<?xml version="1.0" encoding="UTF-8" standalone="no" ?>
<gpx xmlns="http://www.topografix.com/GPX/1/1" xmlns:xsi="http://www.w3.org/2001/XMLSchema-instance" xsi:schemaLocation="http://www.topografix.com/GPX/1/1 http://www.topografix.com/GPX/1/1/gpx.xsd" version="1.1" creator="VisuGPX - https://www.visugpx.com">
  <metadata>
    <name>La Pierre Ardoue</name>
    <desc><![CDATA[Vérifiez si un attelage pourrait passer autour de la pierre Ardoue. 
Et... rentrer sans carte !]]></desc>
  </metadata>
  <trk>
    <name><![CDATA[Untitled]]></name>
    <trkseg>
      <trkpt lat="48.70754" lon="1.75363">
        <ele>171.80000305176</ele>
        <time>2014-05-05T11:07:29.000Z</time>
      </trkpt>
      <trkpt lat="48.70759" lon="1.7535">
        <ele>171.80000305176</ele>
        <time>2014-05-05T11:07:37.000Z</time>
      </trkpt>
      <trkpt lat="48.70764" lon="1.75337">
        <ele>172</ele>
        <time>2014-05-05T11:07:45.000Z</time>
      </trkpt>
      <trkpt lat="48.70766" lon="1.75331">
        <ele>172</ele>
        <time>2014-05-05T11:07:49.000Z</time>
      </trkpt>
      <trkpt lat="48.70769" lon="1.75325">
        <ele>172</ele>
        <time>2014-05-05T11:07:53.000Z</time>
      </trkpt>
      <trkpt lat="48.70773" lon="1.75312">
        <ele>172.19999694824</ele>
        <time>2014-05-05T11:08:01.000Z</time>
      </trkpt>
      <trkpt lat="48.70778" lon="1.75304">
        <ele>172.39999389648</ele>
        <time>2014-05-05T11:08:07.000Z</time>
      </trkpt>
      <trkpt lat="48.70783" lon="1.7529">
        <ele>172.60000610352</ele>
        <time>2014-05-05T11:08:16.000Z</time>
      </trkpt>
      <trkpt lat="48.70787" lon="1.75278">
        <ele>173</ele>
        <time>2014-05-05T11:08:23.000Z</time>
      </trkpt>
      <trkpt lat="48.70792" lon="1.75265">
        <ele>173.19999694824</ele>
        <time>2014-05-05T11:08:31.000Z</time>
      </trkpt>
      <trkpt lat="48.70797" lon="1.75253">
        <ele>173.39999389648</ele>
        <time>2014-05-05T11:08:39.000Z</time>
      </trkpt>
      <trkpt lat="48.70803" lon="1.75241">
        <ele>173.39999389648</ele>
        <time>2014-05-05T11:08:47.000Z</time>
      </trkpt>
      <trkpt lat="48.7081" lon="1.75228">
        <ele>173.39999389648</ele>
        <time>2014-05-05T11:08:56.000Z</time>
      </trkpt>
      <trkpt lat="48.70815" lon="1.75214">
        <ele>173.60000610352</ele>
        <time>2014-05-05T11:09:05.000Z</time>
      </trkpt>
      <trkpt lat="48.70819" lon="1.75201">
        <ele>173.60000610352</ele>
        <time>2014-05-05T11:09:12.000Z</time>
      </trkpt>
      <trkpt lat="48.70823" lon="1.7519">
        <ele>173.39999389648</ele>
        <time>2014-05-05T11:09:19.000Z</time>
      </trkpt>
      <trkpt lat="48.70829" lon="1.75176">
        <ele>173.19999694824</ele>
        <time>2014-05-05T11:09:27.000Z</time>
      </trkpt>
      <trkpt lat="48.70834" lon="1.75166">
        <ele>173.19999694824</ele>
        <time>2014-05-05T11:09:34.000Z</time>
      </trkpt>
      <trkpt lat="48.70841" lon="1.75152">
        <ele>173</ele>
        <time>2014-05-05T11:09:44.000Z</time>
      </trkpt>
      <trkpt lat="48.70847" lon="1.75139">
        <ele>173.19999694824</ele>
        <time>2014-05-05T11:09:53.000Z</time>
      </trkpt>
      <trkpt lat="48.70849" lon="1.75133">
        <ele>173.39999389648</ele>
        <time>2014-05-05T11:09:57.000Z</time>
      </trkpt>
      <trkpt lat="48.70856" lon="1.75121">
        <ele>173.39999389648</ele>
        <time>2014-05-05T11:10:05.000Z</time>
      </trkpt>
      <trkpt lat="48.70859" lon="1.75108">
        <ele>173.60000610352</ele>
        <time>2014-05-05T11:10:13.000Z</time>
      </trkpt>
      <trkpt lat="48.70865" lon="1.75099">
        <ele>174</ele>
        <time>2014-05-05T11:10:19.000Z</time>
      </trkpt>
      <trkpt lat="48.7087" lon="1.7509">
        <ele>174.19999694824</ele>
        <time>2014-05-05T11:10:25.000Z</time>
      </trkpt>
      <trkpt lat="48.70875" lon="1.75075">
        <ele>174</ele>
        <time>2014-05-05T11:10:34.000Z</time>
      </trkpt>
      <trkpt lat="48.70882" lon="1.7506">
        <ele>174.19999694824</ele>
        <time>2014-05-05T11:10:44.000Z</time>
      </trkpt>
      <trkpt lat="48.70889" lon="1.75049">
        <ele>174.19999694824</ele>
        <time>2014-05-05T11:10:52.000Z</time>
      </trkpt>
      <trkpt lat="48.70896" lon="1.75035">
        <ele>174.39999389648</ele>
        <time>2014-05-05T11:11:01.000Z</time>
      </trkpt>
      <trkpt lat="48.70901" lon="1.75023">
        <ele>174.60000610352</ele>
        <time>2014-05-05T11:11:09.000Z</time>
      </trkpt>
      <trkpt lat="48.70908" lon="1.75007">
        <ele>174.80000305176</ele>
        <time>2014-05-05T11:11:19.000Z</time>
      </trkpt>
      <trkpt lat="48.70913" lon="1.74996">
        <ele>174.80000305176</ele>
        <time>2014-05-05T11:11:26.000Z</time>
      </trkpt>
      <trkpt lat="48.70919" lon="1.74984">
        <ele>175</ele>
        <time>2014-05-05T11:11:34.000Z</time>
      </trkpt>
      <trkpt lat="48.70921" lon="1.7498">
        <ele>175</ele>
        <time>2014-05-05T11:11:37.000Z</time>
      </trkpt>
      <trkpt lat="48.70926" lon="1.74969">
        <ele>174.80000305176</ele>
        <time>2014-05-05T11:11:44.000Z</time>
      </trkpt>
      <trkpt lat="48.70932" lon="1.74957">
        <ele>175</ele>
        <time>2014-05-05T11:11:52.000Z</time>
      </trkpt>
      <trkpt lat="48.70939" lon="1.74944">
        <ele>175</ele>
        <time>2014-05-05T11:12:00.000Z</time>
      </trkpt>
      <trkpt lat="48.70945" lon="1.74933">
        <ele>175.19999694824</ele>
        <time>2014-05-05T11:12:07.000Z</time>
      </trkpt>
      <trkpt lat="48.70952" lon="1.74927">
        <ele>175.60000610352</ele>
        <time>2014-05-05T11:12:14.000Z</time>
      </trkpt>
      <trkpt lat="48.70959" lon="1.74919">
        <ele>176</ele>
        <time>2014-05-05T11:12:21.000Z</time>
      </trkpt>
      <trkpt lat="48.70966" lon="1.74909">
        <ele>176.39999389648</ele>
        <time>2014-05-05T11:12:29.000Z</time>
      </trkpt>
      <trkpt lat="48.7097" lon="1.74902">
        <ele>176.60000610352</ele>
        <time>2014-05-05T11:12:34.000Z</time>
      </trkpt>
      <trkpt lat="48.70974" lon="1.74894">
        <ele>177.19999694824</ele>
        <time>2014-05-05T11:12:39.000Z</time>
      </trkpt>
      <trkpt lat="48.70983" lon="1.74881">
        <ele>178</ele>
        <time>2014-05-05T11:12:49.000Z</time>
      </trkpt>
      <trkpt lat="48.70991" lon="1.74871">
        <ele>178.60000610352</ele>
        <time>2014-05-05T11:12:57.000Z</time>
      </trkpt>
      <trkpt lat="48.70999" lon="1.74859">
        <ele>178.80000305176</ele>
        <time>2014-05-05T11:13:06.000Z</time>
      </trkpt>
      <trkpt lat="48.71006" lon="1.74847">
        <ele>178.80000305176</ele>
        <time>2014-05-05T11:13:15.000Z</time>
      </trkpt>
      <trkpt lat="48.71009" lon="1.74841">
        <ele>178.80000305176</ele>
        <time>2014-05-05T11:13:19.000Z</time>
      </trkpt>
      <trkpt lat="48.71007" lon="1.74829">
        <ele>178.80000305176</ele>
        <time>2014-05-05T11:13:29.000Z</time>
      </trkpt>
      <trkpt lat="48.71004" lon="1.7482">
        <ele>178.80000305176</ele>
        <time>2014-05-05T11:13:37.000Z</time>
      </trkpt>
      <trkpt lat="48.70997" lon="1.74813">
        <ele>178.80000305176</ele>
        <time>2014-05-05T11:13:44.000Z</time>
      </trkpt>
      <trkpt lat="48.70987" lon="1.74802">
        <ele>178.60000610352</ele>
        <time>2014-05-05T11:13:52.000Z</time>
      </trkpt>
      <trkpt lat="48.70977" lon="1.74789">
        <ele>178.39999389648</ele>
        <time>2014-05-05T11:14:03.000Z</time>
      </trkpt>
      <trkpt lat="48.70966" lon="1.74776">
        <ele>178.39999389648</ele>
        <time>2014-05-05T11:14:13.000Z</time>
      </trkpt>
      <trkpt lat="48.70957" lon="1.74765">
        <ele>178.19999694824</ele>
        <time>2014-05-05T11:14:21.000Z</time>
      </trkpt>
      <trkpt lat="48.70949" lon="1.74754">
        <ele>178.19999694824</ele>
        <time>2014-05-05T11:14:29.000Z</time>
      </trkpt>
      <trkpt lat="48.70941" lon="1.74742">
        <ele>178</ele>
        <time>2014-05-05T11:14:37.000Z</time>
      </trkpt>
      <trkpt lat="48.70932" lon="1.74728">
        <ele>177.80000305176</ele>
        <time>2014-05-05T11:14:47.000Z</time>
      </trkpt>
      <trkpt lat="48.70923" lon="1.74714">
        <ele>177.39999389648</ele>
        <time>2014-05-05T11:14:57.000Z</time>
      </trkpt>
      <trkpt lat="48.70916" lon="1.74704">
        <ele>177.19999694824</ele>
        <time>2014-05-05T11:15:04.000Z</time>
      </trkpt>
      <trkpt lat="48.70907" lon="1.7469">
        <ele>176.80000305176</ele>
        <time>2014-05-05T11:15:14.000Z</time>
      </trkpt>
      <trkpt lat="48.70896" lon="1.74677">
        <ele>176.60000610352</ele>
        <time>2014-05-05T11:15:24.000Z</time>
      </trkpt>
      <trkpt lat="48.70887" lon="1.74666">
        <ele>176.19999694824</ele>
        <time>2014-05-05T11:15:33.000Z</time>
      </trkpt>
      <trkpt lat="48.70877" lon="1.74654">
        <ele>176</ele>
        <time>2014-05-05T11:15:42.000Z</time>
      </trkpt>
      <trkpt lat="48.70871" lon="1.74647">
        <ele>176</ele>
        <time>2014-05-05T11:15:48.000Z</time>
      </trkpt>
      <trkpt lat="48.70869" lon="1.74645">
        <ele>176</ele>
        <time>2014-05-05T11:15:50.000Z</time>
      </trkpt>
      <trkpt lat="48.7086" lon="1.74634">
        <ele>176</ele>
        <time>2014-05-05T11:15:59.000Z</time>
      </trkpt>
      <trkpt lat="48.70852" lon="1.74628">
        <ele>176</ele>
        <time>2014-05-05T11:16:05.000Z</time>
      </trkpt>
      <trkpt lat="48.70845" lon="1.74618">
        <ele>176.19999694824</ele>
        <time>2014-05-05T11:16:12.000Z</time>
      </trkpt>
      <trkpt lat="48.70844" lon="1.74617">
        <ele>176.19999694824</ele>
        <time>2014-05-05T11:16:13.000Z</time>
      </trkpt>
      <trkpt lat="48.70838" lon="1.74609">
        <ele>176.19999694824</ele>
        <time>2014-05-05T11:16:19.000Z</time>
      </trkpt>
      <trkpt lat="48.70837" lon="1.74608">
        <ele>176.19999694824</ele>
        <time>2014-05-05T11:16:20.000Z</time>
      </trkpt>
      <trkpt lat="48.70831" lon="1.74598">
        <ele>176.19999694824</ele>
        <time>2014-05-05T11:16:27.000Z</time>
      </trkpt>
      <trkpt lat="48.70829" lon="1.74595">
        <ele>176.19999694824</ele>
        <time>2014-05-05T11:16:29.000Z</time>
      </trkpt>
      <trkpt lat="48.70821" lon="1.74586">
        <ele>176.39999389648</ele>
        <time>2014-05-05T11:16:36.000Z</time>
      </trkpt>
      <trkpt lat="48.70814" lon="1.74575">
        <ele>176.39999389648</ele>
        <time>2014-05-05T11:16:43.000Z</time>
      </trkpt>
      <trkpt lat="48.70808" lon="1.74567">
        <ele>176.60000610352</ele>
        <time>2014-05-05T11:16:50.000Z</time>
      </trkpt>
      <trkpt lat="48.70801" lon="1.74556">
        <ele>176.60000610352</ele>
        <time>2014-05-05T11:16:57.000Z</time>
      </trkpt>
      <trkpt lat="48.70793" lon="1.74549">
        <ele>176.80000305176</ele>
        <time>2014-05-05T11:17:04.000Z</time>
      </trkpt>
      <trkpt lat="48.70787" lon="1.74541">
        <ele>176.80000305176</ele>
        <time>2014-05-05T11:17:10.000Z</time>
      </trkpt>
      <trkpt lat="48.70781" lon="1.74532">
        <ele>176.80000305176</ele>
        <time>2014-05-05T11:17:17.000Z</time>
      </trkpt>
      <trkpt lat="48.70774" lon="1.74522">
        <ele>177</ele>
        <time>2014-05-05T11:17:25.000Z</time>
      </trkpt>
      <trkpt lat="48.70771" lon="1.74518">
        <ele>177</ele>
        <time>2014-05-05T11:17:30.000Z</time>
      </trkpt>
      <trkpt lat="48.70763" lon="1.74507">
        <ele>177.19999694824</ele>
        <time>2014-05-05T11:17:46.000Z</time>
      </trkpt>
      <trkpt lat="48.70762" lon="1.74506">
        <ele>177.19999694824</ele>
        <time>2014-05-05T11:17:47.000Z</time>
      </trkpt>
      <trkpt lat="48.70756" lon="1.745">
        <ele>177.60000610352</ele>
        <time>2014-05-05T11:17:52.000Z</time>
      </trkpt>
      <trkpt lat="48.70752" lon="1.74495">
        <ele>177.60000610352</ele>
        <time>2014-05-05T11:17:56.000Z</time>
      </trkpt>
      <trkpt lat="48.70746" lon="1.7449">
        <ele>177.80000305176</ele>
        <time>2014-05-05T11:18:01.000Z</time>
      </trkpt>
      <trkpt lat="48.70744" lon="1.74488">
        <ele>178</ele>
        <time>2014-05-05T11:18:03.000Z</time>
      </trkpt>
      <trkpt lat="48.70738" lon="1.74481">
        <ele>178.19999694824</ele>
        <time>2014-05-05T11:18:09.000Z</time>
      </trkpt>
      <trkpt lat="48.70733" lon="1.74475">
        <ele>178.39999389648</ele>
        <time>2014-05-05T11:18:14.000Z</time>
      </trkpt>
      <trkpt lat="48.70731" lon="1.74473">
        <ele>178.60000610352</ele>
        <time>2014-05-05T11:18:16.000Z</time>
      </trkpt>
      <trkpt lat="48.70728" lon="1.74465">
        <ele>178.80000305176</ele>
        <time>2014-05-05T11:18:21.000Z</time>
      </trkpt>
      <trkpt lat="48.70736" lon="1.74452">
        <ele>178.60000610352</ele>
        <time>2014-05-05T11:18:30.000Z</time>
      </trkpt>
      <trkpt lat="48.70739" lon="1.7445">
        <ele>178.60000610352</ele>
        <time>2014-05-05T11:18:33.000Z</time>
      </trkpt>
      <trkpt lat="48.70749" lon="1.74444">
        <ele>178.19999694824</ele>
        <time>2014-05-05T11:18:41.000Z</time>
      </trkpt>
      <trkpt lat="48.70752" lon="1.74442">
        <ele>178.19999694824</ele>
        <time>2014-05-05T11:18:44.000Z</time>
      </trkpt>
      <trkpt lat="48.70758" lon="1.74438">
        <ele>178</ele>
        <time>2014-05-05T11:18:49.000Z</time>
      </trkpt>
      <trkpt lat="48.70765" lon="1.74435">
        <ele>177.80000305176</ele>
        <time>2014-05-05T11:18:55.000Z</time>
      </trkpt>
      <trkpt lat="48.70765" lon="1.74435">
        <ele>177.80000305176</ele>
        <time>2014-05-05T11:18:55.000Z</time>
      </trkpt>
      <trkpt lat="48.70767" lon="1.74434">
        <ele>177.80000305176</ele>
        <time>2014-05-05T11:18:57.000Z</time>
      </trkpt>
      <trkpt lat="48.70769" lon="1.74432">
        <ele>177.60000610352</ele>
        <time>2014-05-05T11:18:58.000Z</time>
      </trkpt>
      <trkpt lat="48.70928" lon="1.74166">
        <ele>183.39999389648</ele>
        <time>2014-05-05T11:26:45.000Z</time>
      </trkpt>
      <trkpt lat="48.70928" lon="1.74165">
        <ele>183.60000610352</ele>
        <time>2014-05-05T11:26:46.000Z</time>
      </trkpt>
      <trkpt lat="48.70929" lon="1.74162">
        <ele>183.60000610352</ele>
        <time>2014-05-05T11:26:49.000Z</time>
      </trkpt>
      <trkpt lat="48.70932" lon="1.74149">
        <ele>184</ele>
        <time>2014-05-05T11:26:54.000Z</time>
      </trkpt>
      <trkpt lat="48.70932" lon="1.74145">
        <ele>184</ele>
        <time>2014-05-05T11:26:56.000Z</time>
      </trkpt>
      <trkpt lat="48.70935" lon="1.74132">
        <ele>183.80000305176</ele>
        <time>2014-05-05T11:27:04.000Z</time>
      </trkpt>
      <trkpt lat="48.70937" lon="1.74125">
        <ele>183.60000610352</ele>
        <time>2014-05-05T11:27:09.000Z</time>
      </trkpt>
      <trkpt lat="48.70941" lon="1.74113">
        <ele>183.39999389648</ele>
        <time>2014-05-05T11:27:15.000Z</time>
      </trkpt>
      <trkpt lat="48.70944" lon="1.74105">
        <ele>183</ele>
        <time>2014-05-05T11:27:20.000Z</time>
      </trkpt>
      <trkpt lat="48.70945" lon="1.74087">
        <ele>182.80000305176</ele>
        <time>2014-05-05T11:27:28.000Z</time>
      </trkpt>
      <trkpt lat="48.70947" lon="1.7408">
        <ele>182.60000610352</ele>
        <time>2014-05-05T11:27:32.000Z</time>
      </trkpt>
      <trkpt lat="48.70951" lon="1.74063">
        <ele>182.80000305176</ele>
        <time>2014-05-05T11:27:41.000Z</time>
      </trkpt>
      <trkpt lat="48.70951" lon="1.74061">
        <ele>182.80000305176</ele>
        <time>2014-05-05T11:27:42.000Z</time>
      </trkpt>
      <trkpt lat="48.70953" lon="1.74048">
        <ele>182.80000305176</ele>
        <time>2014-05-05T11:27:49.000Z</time>
      </trkpt>
      <trkpt lat="48.70957" lon="1.74034">
        <ele>183</ele>
        <time>2014-05-05T11:27:56.000Z</time>
      </trkpt>
      <trkpt lat="48.70957" lon="1.74032">
        <ele>183</ele>
        <time>2014-05-05T11:27:57.000Z</time>
      </trkpt>
      <trkpt lat="48.70958" lon="1.7403">
        <ele>183</ele>
        <time>2014-05-05T11:27:59.000Z</time>
      </trkpt>
      <trkpt lat="48.70962" lon="1.7402">
        <ele>183</ele>
        <time>2014-05-05T11:28:05.000Z</time>
      </trkpt>
      <trkpt lat="48.70962" lon="1.74016">
        <ele>183</ele>
        <time>2014-05-05T11:28:07.000Z</time>
      </trkpt>
      <trkpt lat="48.70966" lon="1.74003">
        <ele>183.19999694824</ele>
        <time>2014-05-05T11:28:14.000Z</time>
      </trkpt>
      <trkpt lat="48.70968" lon="1.73989">
        <ele>183.19999694824</ele>
        <time>2014-05-05T11:28:21.000Z</time>
      </trkpt>
      <trkpt lat="48.70967" lon="1.73982">
        <ele>183.19999694824</ele>
        <time>2014-05-05T11:28:28.000Z</time>
      </trkpt>
      <trkpt lat="48.70968" lon="1.73971">
        <ele>183</ele>
        <time>2014-05-05T11:28:34.000Z</time>
      </trkpt>
      <trkpt lat="48.70968" lon="1.73966">
        <ele>183</ele>
        <time>2014-05-05T11:28:36.000Z</time>
      </trkpt>
      <trkpt lat="48.70971" lon="1.73952">
        <ele>182.80000305176</ele>
        <time>2014-05-05T11:28:43.000Z</time>
      </trkpt>
      <trkpt lat="48.70972" lon="1.73948">
        <ele>182.60000610352</ele>
        <time>2014-05-05T11:28:45.000Z</time>
      </trkpt>
      <trkpt lat="48.70975" lon="1.73931">
        <ele>183</ele>
        <time>2014-05-05T11:28:54.000Z</time>
      </trkpt>
      <trkpt lat="48.70979" lon="1.73916">
        <ele>183.60000610352</ele>
        <time>2014-05-05T11:29:02.000Z</time>
      </trkpt>
      <trkpt lat="48.70983" lon="1.73903">
        <ele>184</ele>
        <time>2014-05-05T11:29:09.000Z</time>
      </trkpt>
      <trkpt lat="48.70987" lon="1.73887">
        <ele>183.60000610352</ele>
        <time>2014-05-05T11:29:15.000Z</time>
      </trkpt>
      <trkpt lat="48.70987" lon="1.73886">
        <ele>183.60000610352</ele>
        <time>2014-05-05T11:29:16.000Z</time>
      </trkpt>
      <trkpt lat="48.70991" lon="1.73872">
        <ele>183.19999694824</ele>
        <time>2014-05-05T11:29:24.000Z</time>
      </trkpt>
      <trkpt lat="48.70992" lon="1.73871">
        <ele>183.19999694824</ele>
        <time>2014-05-05T11:29:25.000Z</time>
      </trkpt>
      <trkpt lat="48.70995" lon="1.73856">
        <ele>183</ele>
        <time>2014-05-05T11:29:32.000Z</time>
      </trkpt>
      <trkpt lat="48.70997" lon="1.73853">
        <ele>183</ele>
        <time>2014-05-05T11:29:34.000Z</time>
      </trkpt>
      <trkpt lat="48.71002" lon="1.73835">
        <ele>182.60000610352</ele>
        <time>2014-05-05T11:29:43.000Z</time>
      </trkpt>
      <trkpt lat="48.71007" lon="1.73821">
        <ele>182.60000610352</ele>
        <time>2014-05-05T11:29:51.000Z</time>
      </trkpt>
      <trkpt lat="48.71011" lon="1.73805">
        <ele>182.19999694824</ele>
        <time>2014-05-05T11:30:00.000Z</time>
      </trkpt>
      <trkpt lat="48.71019" lon="1.73798">
        <ele>182.39999389648</ele>
        <time>2014-05-05T11:30:09.000Z</time>
      </trkpt>
      <trkpt lat="48.71025" lon="1.73793">
        <ele>182.19999694824</ele>
        <time>2014-05-05T11:30:14.000Z</time>
      </trkpt>
      <trkpt lat="48.71029" lon="1.73787">
        <ele>182</ele>
        <time>2014-05-05T11:30:20.000Z</time>
      </trkpt>
      <trkpt lat="48.71031" lon="1.73786">
        <ele>182</ele>
        <time>2014-05-05T11:30:25.000Z</time>
      </trkpt>
      <trkpt lat="48.71035" lon="1.7378">
        <ele>181.80000305176</ele>
        <time>2014-05-05T11:30:35.000Z</time>
      </trkpt>
      <trkpt lat="48.71042" lon="1.73771">
        <ele>181.60000610352</ele>
        <time>2014-05-05T11:30:41.000Z</time>
      </trkpt>
      <trkpt lat="48.71046" lon="1.73763">
        <ele>181.39999389648</ele>
        <time>2014-05-05T11:30:47.000Z</time>
      </trkpt>
      <trkpt lat="48.71055" lon="1.73754">
        <ele>181.60000610352</ele>
        <time>2014-05-05T11:30:55.000Z</time>
      </trkpt>
      <trkpt lat="48.71063" lon="1.73746">
        <ele>182</ele>
        <time>2014-05-05T11:31:02.000Z</time>
      </trkpt>
      <trkpt lat="48.71068" lon="1.73743">
        <ele>182</ele>
        <time>2014-05-05T11:31:08.000Z</time>
      </trkpt>
      <trkpt lat="48.71074" lon="1.7374">
        <ele>182.19999694824</ele>
        <time>2014-05-05T11:31:14.000Z</time>
      </trkpt>
      <trkpt lat="48.71076" lon="1.73737">
        <ele>182.39999389648</ele>
        <time>2014-05-05T11:31:16.000Z</time>
      </trkpt>
      <trkpt lat="48.71082" lon="1.73728">
        <ele>182.19999694824</ele>
        <time>2014-05-05T11:31:22.000Z</time>
      </trkpt>
      <trkpt lat="48.71085" lon="1.73724">
        <ele>182</ele>
        <time>2014-05-05T11:31:24.000Z</time>
      </trkpt>
      <trkpt lat="48.71092" lon="1.73719">
        <ele>182</ele>
        <time>2014-05-05T11:31:27.000Z</time>
      </trkpt>
      <trkpt lat="48.71101" lon="1.7371">
        <ele>181.60000610352</ele>
        <time>2014-05-05T11:31:35.000Z</time>
      </trkpt>
      <trkpt lat="48.71109" lon="1.73702">
        <ele>181.39999389648</ele>
        <time>2014-05-05T11:31:42.000Z</time>
      </trkpt>
      <trkpt lat="48.71114" lon="1.73696">
        <ele>181.19999694824</ele>
        <time>2014-05-05T11:31:48.000Z</time>
      </trkpt>
      <trkpt lat="48.71117" lon="1.73693">
        <ele>181</ele>
        <time>2014-05-05T11:31:51.000Z</time>
      </trkpt>
      <trkpt lat="48.7112" lon="1.73686">
        <ele>180.80000305176</ele>
        <time>2014-05-05T11:31:56.000Z</time>
      </trkpt>
      <trkpt lat="48.71128" lon="1.73677">
        <ele>180.39999389648</ele>
        <time>2014-05-05T11:32:03.000Z</time>
      </trkpt>
      <trkpt lat="48.71135" lon="1.73669">
        <ele>180.80000305176</ele>
        <time>2014-05-05T11:32:09.000Z</time>
      </trkpt>
      <trkpt lat="48.71142" lon="1.73664">
        <ele>181</ele>
        <time>2014-05-05T11:32:14.000Z</time>
      </trkpt>
      <trkpt lat="48.71143" lon="1.73662">
        <ele>181</ele>
        <time>2014-05-05T11:32:15.000Z</time>
      </trkpt>
      <trkpt lat="48.71156" lon="1.73652">
        <ele>181.39999389648</ele>
        <time>2014-05-05T11:32:25.000Z</time>
      </trkpt>
      <trkpt lat="48.71161" lon="1.73647">
        <ele>181.60000610352</ele>
        <time>2014-05-05T11:32:29.000Z</time>
      </trkpt>
      <trkpt lat="48.71166" lon="1.73639">
        <ele>181.80000305176</ele>
        <time>2014-05-05T11:32:35.000Z</time>
      </trkpt>
      <trkpt lat="48.71174" lon="1.73634">
        <ele>182</ele>
        <time>2014-05-05T11:32:40.000Z</time>
      </trkpt>
      <trkpt lat="48.71183" lon="1.73625">
        <ele>181.80000305176</ele>
        <time>2014-05-05T11:32:46.000Z</time>
      </trkpt>
      <trkpt lat="48.71188" lon="1.73618">
        <ele>181.80000305176</ele>
        <time>2014-05-05T11:32:50.000Z</time>
      </trkpt>
      <trkpt lat="48.71195" lon="1.73609">
        <ele>181.39999389648</ele>
        <time>2014-05-05T11:32:56.000Z</time>
      </trkpt>
      <trkpt lat="48.712" lon="1.73607">
        <ele>181.39999389648</ele>
        <time>2014-05-05T11:33:01.000Z</time>
      </trkpt>
      <trkpt lat="48.71209" lon="1.73612">
        <ele>181.39999389648</ele>
        <time>2014-05-05T11:33:08.000Z</time>
      </trkpt>
      <trkpt lat="48.71211" lon="1.73614">
        <ele>181.60000610352</ele>
        <time>2014-05-05T11:33:10.000Z</time>
      </trkpt>
      <trkpt lat="48.71217" lon="1.73617">
        <ele>181.60000610352</ele>
        <time>2014-05-05T11:33:15.000Z</time>
      </trkpt>
      <trkpt lat="48.71221" lon="1.73619">
        <ele>181.80000305176</ele>
        <time>2014-05-05T11:33:19.000Z</time>
      </trkpt>
      <trkpt lat="48.71225" lon="1.73618">
        <ele>181.80000305176</ele>
        <time>2014-05-05T11:33:23.000Z</time>
      </trkpt>
      <trkpt lat="48.71239" lon="1.73617">
        <ele>182</ele>
        <time>2014-05-05T11:33:32.000Z</time>
      </trkpt>
      <trkpt lat="48.71248" lon="1.73616">
        <ele>182.60000610352</ele>
        <time>2014-05-05T11:33:38.000Z</time>
      </trkpt>
      <trkpt lat="48.71256" lon="1.73616">
        <ele>183</ele>
        <time>2014-05-05T11:33:45.000Z</time>
      </trkpt>
      <trkpt lat="48.71265" lon="1.73614">
        <ele>183.60000610352</ele>
        <time>2014-05-05T11:33:52.000Z</time>
      </trkpt>
      <trkpt lat="48.71268" lon="1.73613">
        <ele>183.80000305176</ele>
        <time>2014-05-05T11:33:56.000Z</time>
      </trkpt>
      <trkpt lat="48.7127" lon="1.73612">
        <ele>184</ele>
        <time>2014-05-05T11:33:58.000Z</time>
      </trkpt>
      <trkpt lat="48.71277" lon="1.73604">
        <ele>182.80000305176</ele>
        <time>2014-05-05T11:34:07.000Z</time>
      </trkpt>
      <trkpt lat="48.71284" lon="1.73598">
        <ele>182</ele>
        <time>2014-05-05T11:34:13.000Z</time>
      </trkpt>
      <trkpt lat="48.71288" lon="1.73591">
        <ele>181.19999694824</ele>
        <time>2014-05-05T11:34:18.000Z</time>
      </trkpt>
      <trkpt lat="48.71291" lon="1.73586">
        <ele>181</ele>
        <time>2014-05-05T11:34:22.000Z</time>
      </trkpt>
      <trkpt lat="48.71296" lon="1.73572">
        <ele>181</ele>
        <time>2014-05-05T11:34:30.000Z</time>
      </trkpt>
      <trkpt lat="48.71299" lon="1.7356">
        <ele>180.19999694824</ele>
        <time>2014-05-05T11:34:37.000Z</time>
      </trkpt>
      <trkpt lat="48.713" lon="1.73556">
        <ele>179.80000305176</ele>
        <time>2014-05-05T11:34:39.000Z</time>
      </trkpt>
      <trkpt lat="48.71301" lon="1.73551">
        <ele>179.60000610352</ele>
        <time>2014-05-05T11:34:42.000Z</time>
      </trkpt>
      <trkpt lat="48.71304" lon="1.73545">
        <ele>178.80000305176</ele>
        <time>2014-05-05T11:34:47.000Z</time>
      </trkpt>
      <trkpt lat="48.71313" lon="1.73538">
        <ele>177.19999694824</ele>
        <time>2014-05-05T11:34:55.000Z</time>
      </trkpt>
      <trkpt lat="48.71321" lon="1.73531">
        <ele>176.39999389648</ele>
        <time>2014-05-05T11:35:01.000Z</time>
      </trkpt>
      <trkpt lat="48.71326" lon="1.73527">
        <ele>176.19999694824</ele>
        <time>2014-05-05T11:35:05.000Z</time>
      </trkpt>
      <trkpt lat="48.71331" lon="1.73529">
        <ele>175.80000305176</ele>
        <time>2014-05-05T11:35:09.000Z</time>
      </trkpt>
      <trkpt lat="48.71343" lon="1.73536">
        <ele>174.80000305176</ele>
        <time>2014-05-05T11:35:17.000Z</time>
      </trkpt>
      <trkpt lat="48.71347" lon="1.7354">
        <ele>174.19999694824</ele>
        <time>2014-05-05T11:35:21.000Z</time>
      </trkpt>
      <trkpt lat="48.71357" lon="1.73551">
        <ele>172.80000305176</ele>
        <time>2014-05-05T11:35:29.000Z</time>
      </trkpt>
      <trkpt lat="48.71364" lon="1.73559">
        <ele>171.39999389648</ele>
        <time>2014-05-05T11:35:35.000Z</time>
      </trkpt>
      <trkpt lat="48.71373" lon="1.73568">
        <ele>169.80000305176</ele>
        <time>2014-05-05T11:35:43.000Z</time>
      </trkpt>
      <trkpt lat="48.71374" lon="1.73569">
        <ele>169.60000610352</ele>
        <time>2014-05-05T11:35:44.000Z</time>
      </trkpt>
      <trkpt lat="48.71382" lon="1.73574">
        <ele>168.39999389648</ele>
        <time>2014-05-05T11:35:50.000Z</time>
      </trkpt>
      <trkpt lat="48.71387" lon="1.73575">
        <ele>167.80000305176</ele>
        <time>2014-05-05T11:35:54.000Z</time>
      </trkpt>
      <trkpt lat="48.71392" lon="1.73576">
        <ele>167.19999694824</ele>
        <time>2014-05-05T11:35:57.000Z</time>
      </trkpt>
      <trkpt lat="48.71397" lon="1.73576">
        <ele>166.39999389648</ele>
        <time>2014-05-05T11:36:01.000Z</time>
      </trkpt>
      <trkpt lat="48.71407" lon="1.73575">
        <ele>165.39999389648</ele>
        <time>2014-05-05T11:36:08.000Z</time>
      </trkpt>
      <trkpt lat="48.71418" lon="1.73575">
        <ele>164</ele>
        <time>2014-05-05T11:36:14.000Z</time>
      </trkpt>
      <trkpt lat="48.7142" lon="1.73575">
        <ele>163.80000305176</ele>
        <time>2014-05-05T11:36:16.000Z</time>
      </trkpt>
      <trkpt lat="48.71425" lon="1.73574">
        <ele>163.19999694824</ele>
        <time>2014-05-05T11:36:20.000Z</time>
      </trkpt>
      <trkpt lat="48.71436" lon="1.73574">
        <ele>162</ele>
        <time>2014-05-05T11:36:28.000Z</time>
      </trkpt>
      <trkpt lat="48.71438" lon="1.73573">
        <ele>161.80000305176</ele>
        <time>2014-05-05T11:36:30.000Z</time>
      </trkpt>
      <trkpt lat="48.71441" lon="1.73569">
        <ele>161.80000305176</ele>
        <time>2014-05-05T11:36:34.000Z</time>
      </trkpt>
      <trkpt lat="48.71449" lon="1.73567">
        <ele>161.19999694824</ele>
        <time>2014-05-05T11:36:41.000Z</time>
      </trkpt>
      <trkpt lat="48.71455" lon="1.73565">
        <ele>160.80000305176</ele>
        <time>2014-05-05T11:36:46.000Z</time>
      </trkpt>
      <trkpt lat="48.71462" lon="1.73563">
        <ele>160.19999694824</ele>
        <time>2014-05-05T11:36:51.000Z</time>
      </trkpt>
      <trkpt lat="48.71472" lon="1.73561">
        <ele>159.39999389648</ele>
        <time>2014-05-05T11:36:58.000Z</time>
      </trkpt>
      <trkpt lat="48.71479" lon="1.7356">
        <ele>159</ele>
        <time>2014-05-05T11:37:03.000Z</time>
      </trkpt>
      <trkpt lat="48.71492" lon="1.7356">
        <ele>157.80000305176</ele>
        <time>2014-05-05T11:37:12.000Z</time>
      </trkpt>
      <trkpt lat="48.71501" lon="1.73558">
        <ele>157.19999694824</ele>
        <time>2014-05-05T11:37:19.000Z</time>
      </trkpt>
      <trkpt lat="48.71507" lon="1.73556">
        <ele>156.60000610352</ele>
        <time>2014-05-05T11:37:24.000Z</time>
      </trkpt>
      <trkpt lat="48.71518" lon="1.73554">
        <ele>154.80000305176</ele>
        <time>2014-05-05T11:37:32.000Z</time>
      </trkpt>
      <trkpt lat="48.71527" lon="1.73552">
        <ele>153.60000610352</ele>
        <time>2014-05-05T11:37:38.000Z</time>
      </trkpt>
      <trkpt lat="48.71537" lon="1.7355">
        <ele>152.19999694824</ele>
        <time>2014-05-05T11:37:44.000Z</time>
      </trkpt>
      <trkpt lat="48.71545" lon="1.73548">
        <ele>151.19999694824</ele>
        <time>2014-05-05T11:37:50.000Z</time>
      </trkpt>
      <trkpt lat="48.7156" lon="1.73544">
        <ele>149.39999389648</ele>
        <time>2014-05-05T11:38:01.000Z</time>
      </trkpt>
      <trkpt lat="48.7157" lon="1.73541">
        <ele>148</ele>
        <time>2014-05-05T11:38:09.000Z</time>
      </trkpt>
      <trkpt lat="48.71581" lon="1.73538">
        <ele>146.80000305176</ele>
        <time>2014-05-05T11:38:17.000Z</time>
      </trkpt>
      <trkpt lat="48.71594" lon="1.73536">
        <ele>145.39999389648</ele>
        <time>2014-05-05T11:38:26.000Z</time>
      </trkpt>
      <trkpt lat="48.71606" lon="1.73532">
        <ele>144.39999389648</ele>
        <time>2014-05-05T11:38:34.000Z</time>
      </trkpt>
      <trkpt lat="48.71618" lon="1.7353">
        <ele>143.60000610352</ele>
        <time>2014-05-05T11:38:42.000Z</time>
      </trkpt>
      <trkpt lat="48.71628" lon="1.73527">
        <ele>143</ele>
        <time>2014-05-05T11:38:48.000Z</time>
      </trkpt>
      <trkpt lat="48.71636" lon="1.73524">
        <ele>142.39999389648</ele>
        <time>2014-05-05T11:38:55.000Z</time>
      </trkpt>
      <trkpt lat="48.71649" lon="1.73521">
        <ele>141.80000305176</ele>
        <time>2014-05-05T11:39:03.000Z</time>
      </trkpt>
      <trkpt lat="48.7166" lon="1.73519">
        <ele>141.39999389648</ele>
        <time>2014-05-05T11:39:10.000Z</time>
      </trkpt>
      <trkpt lat="48.71661" lon="1.73519">
        <ele>141.19999694824</ele>
        <time>2014-05-05T11:39:11.000Z</time>
      </trkpt>
      <trkpt lat="48.71666" lon="1.73517">
        <ele>141</ele>
        <time>2014-05-05T11:39:15.000Z</time>
      </trkpt>
      <trkpt lat="48.71678" lon="1.73514">
        <ele>140.39999389648</ele>
        <time>2014-05-05T11:39:23.000Z</time>
      </trkpt>
      <trkpt lat="48.71689" lon="1.73511">
        <ele>140</ele>
        <time>2014-05-05T11:39:31.000Z</time>
      </trkpt>
      <trkpt lat="48.71702" lon="1.7351">
        <ele>140</ele>
        <time>2014-05-05T11:39:39.000Z</time>
      </trkpt>
      <trkpt lat="48.71717" lon="1.73507">
        <ele>139.60000610352</ele>
        <time>2014-05-05T11:39:48.000Z</time>
      </trkpt>
      <trkpt lat="48.71727" lon="1.73504">
        <ele>139.19999694824</ele>
        <time>2014-05-05T11:39:55.000Z</time>
      </trkpt>
      <trkpt lat="48.71736" lon="1.73502">
        <ele>138.80000305176</ele>
        <time>2014-05-05T11:40:02.000Z</time>
      </trkpt>
      <trkpt lat="48.7175" lon="1.73499">
        <ele>138.19999694824</ele>
        <time>2014-05-05T11:40:09.000Z</time>
      </trkpt>
      <trkpt lat="48.7176" lon="1.73497">
        <ele>137.80000305176</ele>
        <time>2014-05-05T11:40:16.000Z</time>
      </trkpt>
      <trkpt lat="48.71766" lon="1.73494">
        <ele>137.39999389648</ele>
        <time>2014-05-05T11:40:21.000Z</time>
      </trkpt>
      <trkpt lat="48.71775" lon="1.73486">
        <ele>136.80000305176</ele>
        <time>2014-05-05T11:40:28.000Z</time>
      </trkpt>
      <trkpt lat="48.71786" lon="1.73483">
        <ele>136.39999389648</ele>
        <time>2014-05-05T11:40:36.000Z</time>
      </trkpt>
      <trkpt lat="48.71794" lon="1.73481">
        <ele>136.19999694824</ele>
        <time>2014-05-05T11:40:42.000Z</time>
      </trkpt>
      <trkpt lat="48.71802" lon="1.73479">
        <ele>135.80000305176</ele>
        <time>2014-05-05T11:40:48.000Z</time>
      </trkpt>
      <trkpt lat="48.71813" lon="1.73474">
        <ele>135.39999389648</ele>
        <time>2014-05-05T11:40:56.000Z</time>
      </trkpt>
      <trkpt lat="48.71825" lon="1.73467">
        <ele>135</ele>
        <time>2014-05-05T11:41:04.000Z</time>
      </trkpt>
      <trkpt lat="48.71834" lon="1.73465">
        <ele>134.60000610352</ele>
        <time>2014-05-05T11:41:10.000Z</time>
      </trkpt>
      <trkpt lat="48.71841" lon="1.73465">
        <ele>134.19999694824</ele>
        <time>2014-05-05T11:41:15.000Z</time>
      </trkpt>
      <trkpt lat="48.71848" lon="1.73465">
        <ele>133.80000305176</ele>
        <time>2014-05-05T11:41:19.000Z</time>
      </trkpt>
      <trkpt lat="48.71855" lon="1.73464">
        <ele>133.39999389648</ele>
        <time>2014-05-05T11:41:25.000Z</time>
      </trkpt>
      <trkpt lat="48.71864" lon="1.73464">
        <ele>133.19999694824</ele>
        <time>2014-05-05T11:41:32.000Z</time>
      </trkpt>
      <trkpt lat="48.71877" lon="1.73463">
        <ele>132.80000305176</ele>
        <time>2014-05-05T11:41:40.000Z</time>
      </trkpt>
      <trkpt lat="48.71885" lon="1.73459">
        <ele>132.60000610352</ele>
        <time>2014-05-05T11:41:47.000Z</time>
      </trkpt>
      <trkpt lat="48.71893" lon="1.73456">
        <ele>132.19999694824</ele>
        <time>2014-05-05T11:41:53.000Z</time>
      </trkpt>
      <trkpt lat="48.71902" lon="1.73452">
        <ele>132</ele>
        <time>2014-05-05T11:42:01.000Z</time>
      </trkpt>
      <trkpt lat="48.71912" lon="1.73451">
        <ele>131.80000305176</ele>
        <time>2014-05-05T11:42:08.000Z</time>
      </trkpt>
      <trkpt lat="48.7192" lon="1.73447">
        <ele>131.39999389648</ele>
        <time>2014-05-05T11:42:15.000Z</time>
      </trkpt>
      <trkpt lat="48.71926" lon="1.73446">
        <ele>131.19999694824</ele>
        <time>2014-05-05T11:42:20.000Z</time>
      </trkpt>
      <trkpt lat="48.7193" lon="1.73445">
        <ele>131.19999694824</ele>
        <time>2014-05-05T11:42:23.000Z</time>
      </trkpt>
      <trkpt lat="48.71942" lon="1.73443">
        <ele>131</ele>
        <time>2014-05-05T11:42:30.000Z</time>
      </trkpt>
      <trkpt lat="48.7195" lon="1.73441">
        <ele>130.80000305176</ele>
        <time>2014-05-05T11:42:36.000Z</time>
      </trkpt>
      <trkpt lat="48.71958" lon="1.7344">
        <ele>130.80000305176</ele>
        <time>2014-05-05T11:42:42.000Z</time>
      </trkpt>
      <trkpt lat="48.71964" lon="1.7344">
        <ele>130.80000305176</ele>
        <time>2014-05-05T11:42:47.000Z</time>
      </trkpt>
      <trkpt lat="48.71973" lon="1.73438">
        <ele>130.80000305176</ele>
        <time>2014-05-05T11:42:52.000Z</time>
      </trkpt>
      <trkpt lat="48.71977" lon="1.73437">
        <ele>130.80000305176</ele>
        <time>2014-05-05T11:42:54.000Z</time>
      </trkpt>
      <trkpt lat="48.71983" lon="1.73436">
        <ele>130.80000305176</ele>
        <time>2014-05-05T11:42:58.000Z</time>
      </trkpt>
      <trkpt lat="48.71996" lon="1.7343">
        <ele>130.60000610352</ele>
        <time>2014-05-05T11:43:08.000Z</time>
      </trkpt>
      <trkpt lat="48.72006" lon="1.73427">
        <ele>130.60000610352</ele>
        <time>2014-05-05T11:43:15.000Z</time>
      </trkpt>
      <trkpt lat="48.72015" lon="1.73427">
        <ele>130.60000610352</ele>
        <time>2014-05-05T11:43:21.000Z</time>
      </trkpt>
      <trkpt lat="48.72022" lon="1.73425">
        <ele>130.39999389648</ele>
        <time>2014-05-05T11:43:27.000Z</time>
      </trkpt>
      <trkpt lat="48.72027" lon="1.73423">
        <ele>130.19999694824</ele>
        <time>2014-05-05T11:43:31.000Z</time>
      </trkpt>
      <trkpt lat="48.72041" lon="1.73419">
        <ele>129.80000305176</ele>
        <time>2014-05-05T11:43:40.000Z</time>
      </trkpt>
      <trkpt lat="48.72049" lon="1.73418">
        <ele>129.80000305176</ele>
        <time>2014-05-05T11:43:46.000Z</time>
      </trkpt>
      <trkpt lat="48.72057" lon="1.73416">
        <ele>129.80000305176</ele>
        <time>2014-05-05T11:43:53.000Z</time>
      </trkpt>
      <trkpt lat="48.7206" lon="1.73413">
        <ele>129.80000305176</ele>
        <time>2014-05-05T11:43:57.000Z</time>
      </trkpt>
      <trkpt lat="48.72064" lon="1.73411">
        <ele>130</ele>
        <time>2014-05-05T11:44:03.000Z</time>
      </trkpt>
      <trkpt lat="48.72069" lon="1.73408">
        <ele>130</ele>
        <time>2014-05-05T11:44:08.000Z</time>
      </trkpt>
      <trkpt lat="48.72075" lon="1.73404">
        <ele>130</ele>
        <time>2014-05-05T11:44:13.000Z</time>
      </trkpt>
      <trkpt lat="48.72082" lon="1.73405">
        <ele>130</ele>
        <time>2014-05-05T11:44:18.000Z</time>
      </trkpt>
      <trkpt lat="48.72091" lon="1.73408">
        <ele>130</ele>
        <time>2014-05-05T11:44:23.000Z</time>
      </trkpt>
      <trkpt lat="48.72096" lon="1.73408">
        <ele>130</ele>
        <time>2014-05-05T11:44:26.000Z</time>
      </trkpt>
      <trkpt lat="48.721" lon="1.73405">
        <ele>130</ele>
        <time>2014-05-05T11:44:30.000Z</time>
      </trkpt>
      <trkpt lat="48.72109" lon="1.73403">
        <ele>129.80000305176</ele>
        <time>2014-05-05T11:44:37.000Z</time>
      </trkpt>
      <trkpt lat="48.72117" lon="1.73402">
        <ele>129.39999389648</ele>
        <time>2014-05-05T11:44:43.000Z</time>
      </trkpt>
      <trkpt lat="48.72124" lon="1.73402">
        <ele>129.19999694824</ele>
        <time>2014-05-05T11:44:48.000Z</time>
      </trkpt>
      <trkpt lat="48.72127" lon="1.73401">
        <ele>129</ele>
        <time>2014-05-05T11:44:53.000Z</time>
      </trkpt>
      <trkpt lat="48.72131" lon="1.73393">
        <ele>128.80000305176</ele>
        <time>2014-05-05T11:44:59.000Z</time>
      </trkpt>
      <trkpt lat="48.72132" lon="1.73393">
        <ele>128.80000305176</ele>
        <time>2014-05-05T11:45:00.000Z</time>
      </trkpt>
      <trkpt lat="48.7214" lon="1.73391">
        <ele>128.39999389648</ele>
        <time>2014-05-05T11:45:07.000Z</time>
      </trkpt>
      <trkpt lat="48.72145" lon="1.73389">
        <ele>128.19999694824</ele>
        <time>2014-05-05T11:45:12.000Z</time>
      </trkpt>
      <trkpt lat="48.72151" lon="1.73388">
        <ele>128</ele>
        <time>2014-05-05T11:45:19.000Z</time>
      </trkpt>
      <trkpt lat="48.72151" lon="1.73387">
        <ele>127.80000305176</ele>
        <time>2014-05-05T11:45:20.000Z</time>
      </trkpt>
      <trkpt lat="48.72169" lon="1.73384">
        <ele>127.19999694824</ele>
        <time>2014-05-05T11:45:41.000Z</time>
      </trkpt>
      <trkpt lat="48.72173" lon="1.73379">
        <ele>126.80000305176</ele>
        <time>2014-05-05T11:45:48.000Z</time>
      </trkpt>
      <trkpt lat="48.72176" lon="1.73381">
        <ele>126.80000305176</ele>
        <time>2014-05-05T11:45:57.000Z</time>
      </trkpt>
      <trkpt lat="48.72187" lon="1.73393">
        <ele>126.80000305176</ele>
        <time>2014-05-05T11:46:52.000Z</time>
      </trkpt>
      <trkpt lat="48.72195" lon="1.73392">
        <ele>126.80000305176</ele>
        <time>2014-05-05T11:46:57.000Z</time>
      </trkpt>
      <trkpt lat="48.722" lon="1.7339">
        <ele>126.80000305176</ele>
        <time>2014-05-05T11:47:02.000Z</time>
      </trkpt>
      <trkpt lat="48.72208" lon="1.73391">
        <ele>127</ele>
        <time>2014-05-05T11:47:09.000Z</time>
      </trkpt>
      <trkpt lat="48.72212" lon="1.73393">
        <ele>127</ele>
        <time>2014-05-05T11:47:12.000Z</time>
      </trkpt>
      <trkpt lat="48.72217" lon="1.73393">
        <ele>127.19999694824</ele>
        <time>2014-05-05T11:47:18.000Z</time>
      </trkpt>
      <trkpt lat="48.72218" lon="1.73393">
        <ele>127.19999694824</ele>
        <time>2014-05-05T11:47:19.000Z</time>
      </trkpt>
      <trkpt lat="48.72224" lon="1.73395">
        <ele>127.19999694824</ele>
        <time>2014-05-05T11:47:25.000Z</time>
      </trkpt>
      <trkpt lat="48.72226" lon="1.73392">
        <ele>127.19999694824</ele>
        <time>2014-05-05T11:47:28.000Z</time>
      </trkpt>
      <trkpt lat="48.7224" lon="1.7339">
        <ele>127.40000152588</ele>
        <time>2014-05-05T11:47:36.000Z</time>
      </trkpt>
      <trkpt lat="48.72242" lon="1.73392">
        <ele>127.40000152588</ele>
        <time>2014-05-05T11:47:38.000Z</time>
      </trkpt>
      <trkpt lat="48.7225" lon="1.73394">
        <ele>127.59999847412</ele>
        <time>2014-05-05T11:47:44.000Z</time>
      </trkpt>
      <trkpt lat="48.72256" lon="1.73393">
        <ele>127.59999847412</ele>
        <time>2014-05-05T11:47:50.000Z</time>
      </trkpt>
      <trkpt lat="48.7226" lon="1.73394">
        <ele>127.59999847412</ele>
        <time>2014-05-05T11:47:53.000Z</time>
      </trkpt>
      <trkpt lat="48.72262" lon="1.73394">
        <ele>127.59999847412</ele>
        <time>2014-05-05T11:47:55.000Z</time>
      </trkpt>
      <trkpt lat="48.7227" lon="1.73397">
        <ele>128</ele>
        <time>2014-05-05T11:48:00.000Z</time>
      </trkpt>
      <trkpt lat="48.72277" lon="1.73398">
        <ele>128</ele>
        <time>2014-05-05T11:48:06.000Z</time>
      </trkpt>
      <trkpt lat="48.72282" lon="1.73398">
        <ele>128</ele>
        <time>2014-05-05T11:48:10.000Z</time>
      </trkpt>
      <trkpt lat="48.72292" lon="1.73394">
        <ele>128</ele>
        <time>2014-05-05T11:48:17.000Z</time>
      </trkpt>
      <trkpt lat="48.72302" lon="1.73399">
        <ele>128</ele>
        <time>2014-05-05T11:48:23.000Z</time>
      </trkpt>
      <trkpt lat="48.72306" lon="1.73402">
        <ele>128</ele>
        <time>2014-05-05T11:48:27.000Z</time>
      </trkpt>
      <trkpt lat="48.72315" lon="1.73404">
        <ele>128</ele>
        <time>2014-05-05T11:48:34.000Z</time>
      </trkpt>
      <trkpt lat="48.72325" lon="1.73407">
        <ele>128</ele>
        <time>2014-05-05T11:48:42.000Z</time>
      </trkpt>
      <trkpt lat="48.72328" lon="1.73405">
        <ele>128</ele>
        <time>2014-05-05T11:48:46.000Z</time>
      </trkpt>
      <trkpt lat="48.72337" lon="1.73407">
        <ele>128</ele>
        <time>2014-05-05T11:48:52.000Z</time>
      </trkpt>
      <trkpt lat="48.72346" lon="1.73409">
        <ele>128</ele>
        <time>2014-05-05T11:48:59.000Z</time>
      </trkpt>
      <trkpt lat="48.72347" lon="1.73408">
        <ele>128</ele>
        <time>2014-05-05T11:49:03.000Z</time>
      </trkpt>
      <trkpt lat="48.7235" lon="1.73408">
        <ele>128</ele>
        <time>2014-05-05T11:49:12.000Z</time>
      </trkpt>
      <trkpt lat="48.72352" lon="1.73408">
        <ele>128</ele>
        <time>2014-05-05T11:49:13.000Z</time>
      </trkpt>
      <trkpt lat="48.72359" lon="1.73413">
        <ele>127.80000305176</ele>
        <time>2014-05-05T11:49:18.000Z</time>
      </trkpt>
      <trkpt lat="48.72366" lon="1.73418">
        <ele>127.80000305176</ele>
        <time>2014-05-05T11:49:24.000Z</time>
      </trkpt>
      <trkpt lat="48.72373" lon="1.7342">
        <ele>127.59999847412</ele>
        <time>2014-05-05T11:49:30.000Z</time>
      </trkpt>
      <trkpt lat="48.72383" lon="1.73421">
        <ele>127.19999694824</ele>
        <time>2014-05-05T11:49:38.000Z</time>
      </trkpt>
      <trkpt lat="48.72384" lon="1.73421">
        <ele>127.19999694824</ele>
        <time>2014-05-05T11:49:39.000Z</time>
      </trkpt>
      <trkpt lat="48.72391" lon="1.73421">
        <ele>127.19999694824</ele>
        <time>2014-05-05T11:49:46.000Z</time>
      </trkpt>
      <trkpt lat="48.72398" lon="1.73424">
        <ele>127</ele>
        <time>2014-05-05T11:49:51.000Z</time>
      </trkpt>
      <trkpt lat="48.72402" lon="1.73424">
        <ele>126.80000305176</ele>
        <time>2014-05-05T11:49:54.000Z</time>
      </trkpt>
      <trkpt lat="48.72405" lon="1.73424">
        <ele>126.80000305176</ele>
        <time>2014-05-05T11:49:56.000Z</time>
      </trkpt>
      <trkpt lat="48.72417" lon="1.73426">
        <ele>126.40000152588</ele>
        <time>2014-05-05T11:50:03.000Z</time>
      </trkpt>
      <trkpt lat="48.72427" lon="1.7343">
        <ele>126.19999694824</ele>
        <time>2014-05-05T11:50:09.000Z</time>
      </trkpt>
      <trkpt lat="48.72434" lon="1.73432">
        <ele>126</ele>
        <time>2014-05-05T11:50:14.000Z</time>
      </trkpt>
      <trkpt lat="48.72451" lon="1.73432">
        <ele>126.40000152588</ele>
        <time>2014-05-05T11:50:21.000Z</time>
      </trkpt>
      <trkpt lat="48.72461" lon="1.73436">
        <ele>126.59999847412</ele>
        <time>2014-05-05T11:50:27.000Z</time>
      </trkpt>
      <trkpt lat="48.72467" lon="1.73438">
        <ele>126.80000305176</ele>
        <time>2014-05-05T11:50:31.000Z</time>
      </trkpt>
      <trkpt lat="48.72478" lon="1.7344">
        <ele>127</ele>
        <time>2014-05-05T11:50:39.000Z</time>
      </trkpt>
      <trkpt lat="48.72487" lon="1.73439">
        <ele>127.40000152588</ele>
        <time>2014-05-05T11:50:46.000Z</time>
      </trkpt>
      <trkpt lat="48.7249" lon="1.7344">
        <ele>127.40000152588</ele>
        <time>2014-05-05T11:50:48.000Z</time>
      </trkpt>
      <trkpt lat="48.72499" lon="1.73441">
        <ele>127.80000305176</ele>
        <time>2014-05-05T11:50:54.000Z</time>
      </trkpt>
      <trkpt lat="48.72502" lon="1.73442">
        <ele>127.80000305176</ele>
        <time>2014-05-05T11:50:56.000Z</time>
      </trkpt>
      <trkpt lat="48.72511" lon="1.73443">
        <ele>128.19999694824</ele>
        <time>2014-05-05T11:51:04.000Z</time>
      </trkpt>
      <trkpt lat="48.72524" lon="1.73445">
        <ele>128.39999389648</ele>
        <time>2014-05-05T11:51:13.000Z</time>
      </trkpt>
      <trkpt lat="48.72536" lon="1.73451">
        <ele>128.19999694824</ele>
        <time>2014-05-05T11:51:22.000Z</time>
      </trkpt>
      <trkpt lat="48.72551" lon="1.7346">
        <ele>128</ele>
        <time>2014-05-05T11:51:31.000Z</time>
      </trkpt>
      <trkpt lat="48.72561" lon="1.7347">
        <ele>127.80000305176</ele>
        <time>2014-05-05T11:51:38.000Z</time>
      </trkpt>
      <trkpt lat="48.72569" lon="1.73478">
        <ele>127.59999847412</ele>
        <time>2014-05-05T11:51:44.000Z</time>
      </trkpt>
      <trkpt lat="48.72579" lon="1.73487">
        <ele>127.40000152588</ele>
        <time>2014-05-05T11:51:52.000Z</time>
      </trkpt>
      <trkpt lat="48.7259" lon="1.73496">
        <ele>127.19999694824</ele>
        <time>2014-05-05T11:52:00.000Z</time>
      </trkpt>
      <trkpt lat="48.72592" lon="1.73498">
        <ele>127.19999694824</ele>
        <time>2014-05-05T11:52:02.000Z</time>
      </trkpt>
      <trkpt lat="48.72595" lon="1.73501">
        <ele>127.19999694824</ele>
        <time>2014-05-05T11:52:05.000Z</time>
      </trkpt>
      <trkpt lat="48.72602" lon="1.73508">
        <ele>127.19999694824</ele>
        <time>2014-05-05T11:52:11.000Z</time>
      </trkpt>
      <trkpt lat="48.72607" lon="1.73517">
        <ele>127.40000152588</ele>
        <time>2014-05-05T11:52:17.000Z</time>
      </trkpt>
      <trkpt lat="48.72613" lon="1.73523">
        <ele>127.40000152588</ele>
        <time>2014-05-05T11:52:22.000Z</time>
      </trkpt>
      <trkpt lat="48.72617" lon="1.7353">
        <ele>127.59999847412</ele>
        <time>2014-05-05T11:52:27.000Z</time>
      </trkpt>
      <trkpt lat="48.72621" lon="1.73536">
        <ele>127.59999847412</ele>
        <time>2014-05-05T11:52:31.000Z</time>
      </trkpt>
      <trkpt lat="48.72633" lon="1.73551">
        <ele>127.80000305176</ele>
        <time>2014-05-05T11:52:41.000Z</time>
      </trkpt>
      <trkpt lat="48.7264" lon="1.7356">
        <ele>127.80000305176</ele>
        <time>2014-05-05T11:52:46.000Z</time>
      </trkpt>
      <trkpt lat="48.7265" lon="1.73567">
        <ele>128</ele>
        <time>2014-05-05T11:52:52.000Z</time>
      </trkpt>
      <trkpt lat="48.72661" lon="1.73576">
        <ele>128.19999694824</ele>
        <time>2014-05-05T11:53:00.000Z</time>
      </trkpt>
      <trkpt lat="48.7267" lon="1.73586">
        <ele>128.39999389648</ele>
        <time>2014-05-05T11:53:08.000Z</time>
      </trkpt>
      <trkpt lat="48.72679" lon="1.73595">
        <ele>128.60000610352</ele>
        <time>2014-05-05T11:53:16.000Z</time>
      </trkpt>
      <trkpt lat="48.72684" lon="1.73599">
        <ele>128.60000610352</ele>
        <time>2014-05-05T11:53:23.000Z</time>
      </trkpt>
      <trkpt lat="48.72694" lon="1.73609">
        <ele>129</ele>
        <time>2014-05-05T11:54:05.000Z</time>
      </trkpt>
      <trkpt lat="48.72698" lon="1.73614">
        <ele>129.19999694824</ele>
        <time>2014-05-05T11:54:08.000Z</time>
      </trkpt>
      <trkpt lat="48.72707" lon="1.73621">
        <ele>129.39999389648</ele>
        <time>2014-05-05T11:54:15.000Z</time>
      </trkpt>
      <trkpt lat="48.72714" lon="1.73629">
        <ele>129.80000305176</ele>
        <time>2014-05-05T11:54:22.000Z</time>
      </trkpt>
      <trkpt lat="48.72716" lon="1.73636">
        <ele>130</ele>
        <time>2014-05-05T11:54:27.000Z</time>
      </trkpt>
      <trkpt lat="48.72718" lon="1.73639">
        <ele>130</ele>
        <time>2014-05-05T11:54:29.000Z</time>
      </trkpt>
      <trkpt lat="48.72727" lon="1.73648">
        <ele>130.39999389648</ele>
        <time>2014-05-05T11:54:37.000Z</time>
      </trkpt>
      <trkpt lat="48.72728" lon="1.73649">
        <ele>130.39999389648</ele>
        <time>2014-05-05T11:54:38.000Z</time>
      </trkpt>
      <trkpt lat="48.72731" lon="1.73651">
        <ele>130.39999389648</ele>
        <time>2014-05-05T11:54:43.000Z</time>
      </trkpt>
      <trkpt lat="48.72734" lon="1.73657">
        <ele>130.60000610352</ele>
        <time>2014-05-05T11:54:50.000Z</time>
      </trkpt>
      <trkpt lat="48.72745" lon="1.73668">
        <ele>130.80000305176</ele>
        <time>2014-05-05T11:54:54.000Z</time>
      </trkpt>
      <trkpt lat="48.72759" lon="1.73684">
        <ele>131.19999694824</ele>
        <time>2014-05-05T11:55:00.000Z</time>
      </trkpt>
      <trkpt lat="48.72773" lon="1.73696">
        <ele>131.60000610352</ele>
        <time>2014-05-05T11:55:05.000Z</time>
      </trkpt>
      <trkpt lat="48.7279" lon="1.73715">
        <ele>132</ele>
        <time>2014-05-05T11:55:12.000Z</time>
      </trkpt>
      <trkpt lat="48.72807" lon="1.73735">
        <ele>132.39999389648</ele>
        <time>2014-05-05T11:55:19.000Z</time>
      </trkpt>
      <trkpt lat="48.72816" lon="1.73747">
        <ele>132.80000305176</ele>
        <time>2014-05-05T11:55:23.000Z</time>
      </trkpt>
      <trkpt lat="48.72829" lon="1.73759">
        <ele>133.19999694824</ele>
        <time>2014-05-05T11:55:28.000Z</time>
      </trkpt>
      <trkpt lat="48.72842" lon="1.73773">
        <ele>133.80000305176</ele>
        <time>2014-05-05T11:55:33.000Z</time>
      </trkpt>
      <trkpt lat="48.72852" lon="1.73785">
        <ele>134.19999694824</ele>
        <time>2014-05-05T11:55:37.000Z</time>
      </trkpt>
      <trkpt lat="48.7287" lon="1.73805">
        <ele>134.60000610352</ele>
        <time>2014-05-05T11:55:44.000Z</time>
      </trkpt>
      <trkpt lat="48.72892" lon="1.73827">
        <ele>135.19999694824</ele>
        <time>2014-05-05T11:55:52.000Z</time>
      </trkpt>
      <trkpt lat="48.7291" lon="1.73844">
        <ele>135.60000610352</ele>
        <time>2014-05-05T11:55:59.000Z</time>
      </trkpt>
      <trkpt lat="48.72926" lon="1.73861">
        <ele>136</ele>
        <time>2014-05-05T11:56:05.000Z</time>
      </trkpt>
      <trkpt lat="48.72946" lon="1.73882">
        <ele>136.60000610352</ele>
        <time>2014-05-05T11:56:13.000Z</time>
      </trkpt>
      <trkpt lat="48.72964" lon="1.73896">
        <ele>137.19999694824</ele>
        <time>2014-05-05T11:56:20.000Z</time>
      </trkpt>
      <trkpt lat="48.72976" lon="1.73907">
        <ele>137.39999389648</ele>
        <time>2014-05-05T11:56:25.000Z</time>
      </trkpt>
      <trkpt lat="48.72981" lon="1.73912">
        <ele>137.60000610352</ele>
        <time>2014-05-05T11:56:29.000Z</time>
      </trkpt>
      <trkpt lat="48.72992" lon="1.73924">
        <ele>137.60000610352</ele>
        <time>2014-05-05T11:56:38.000Z</time>
      </trkpt>
      <trkpt lat="48.72996" lon="1.73932">
        <ele>137.80000305176</ele>
        <time>2014-05-05T11:56:46.000Z</time>
      </trkpt>
      <trkpt lat="48.72997" lon="1.73941">
        <ele>137.80000305176</ele>
        <time>2014-05-05T11:56:51.000Z</time>
      </trkpt>
      <trkpt lat="48.73" lon="1.73954">
        <ele>137.80000305176</ele>
        <time>2014-05-05T11:56:57.000Z</time>
      </trkpt>
      <trkpt lat="48.72999" lon="1.73959">
        <ele>137.80000305176</ele>
        <time>2014-05-05T11:56:59.000Z</time>
      </trkpt>
      <trkpt lat="48.72999" lon="1.73965">
        <ele>137.80000305176</ele>
        <time>2014-05-05T11:57:02.000Z</time>
      </trkpt>
      <trkpt lat="48.73005" lon="1.73986">
        <ele>137.80000305176</ele>
        <time>2014-05-05T11:57:11.000Z</time>
      </trkpt>
      <trkpt lat="48.73004" lon="1.74001">
        <ele>138</ele>
        <time>2014-05-05T11:57:17.000Z</time>
      </trkpt>
      <trkpt lat="48.73004" lon="1.74015">
        <ele>138.19999694824</ele>
        <time>2014-05-05T11:57:23.000Z</time>
      </trkpt>
      <trkpt lat="48.73005" lon="1.7403">
        <ele>138.39999389648</ele>
        <time>2014-05-05T11:57:30.000Z</time>
      </trkpt>
      <trkpt lat="48.73004" lon="1.74033">
        <ele>138.39999389648</ele>
        <time>2014-05-05T11:57:31.000Z</time>
      </trkpt>
      <trkpt lat="48.73005" lon="1.74043">
        <ele>138.39999389648</ele>
        <time>2014-05-05T11:57:35.000Z</time>
      </trkpt>
      <trkpt lat="48.73005" lon="1.74055">
        <ele>138.60000610352</ele>
        <time>2014-05-05T11:57:40.000Z</time>
      </trkpt>
      <trkpt lat="48.73009" lon="1.74074">
        <ele>139</ele>
        <time>2014-05-05T11:57:49.000Z</time>
      </trkpt>
      <trkpt lat="48.7301" lon="1.74085">
        <ele>139.19999694824</ele>
        <time>2014-05-05T11:57:55.000Z</time>
      </trkpt>
      <trkpt lat="48.73011" lon="1.74091">
        <ele>139.39999389648</ele>
        <time>2014-05-05T11:57:58.000Z</time>
      </trkpt>
      <trkpt lat="48.73014" lon="1.7411">
        <ele>139.80000305176</ele>
        <time>2014-05-05T11:58:06.000Z</time>
      </trkpt>
      <trkpt lat="48.73014" lon="1.74126">
        <ele>140.19999694824</ele>
        <time>2014-05-05T11:58:13.000Z</time>
      </trkpt>
      <trkpt lat="48.73015" lon="1.74138">
        <ele>140.60000610352</ele>
        <time>2014-05-05T11:58:19.000Z</time>
      </trkpt>
      <trkpt lat="48.73017" lon="1.74146">
        <ele>140.80000305176</ele>
        <time>2014-05-05T11:58:23.000Z</time>
      </trkpt>
      <trkpt lat="48.73016" lon="1.74164">
        <ele>141</ele>
        <time>2014-05-05T11:58:31.000Z</time>
      </trkpt>
      <trkpt lat="48.73018" lon="1.74179">
        <ele>141.19999694824</ele>
        <time>2014-05-05T11:58:38.000Z</time>
      </trkpt>
      <trkpt lat="48.73021" lon="1.74195">
        <ele>141.39999389648</ele>
        <time>2014-05-05T11:58:46.000Z</time>
      </trkpt>
      <trkpt lat="48.73022" lon="1.74203">
        <ele>141.60000610352</ele>
        <time>2014-05-05T11:58:50.000Z</time>
      </trkpt>
      <trkpt lat="48.73025" lon="1.74218">
        <ele>141.80000305176</ele>
        <time>2014-05-05T11:58:58.000Z</time>
      </trkpt>
      <trkpt lat="48.73025" lon="1.74224">
        <ele>141.80000305176</ele>
        <time>2014-05-05T11:59:02.000Z</time>
      </trkpt>
      <trkpt lat="48.73028" lon="1.7423">
        <ele>141.80000305176</ele>
        <time>2014-05-05T11:59:05.000Z</time>
      </trkpt>
      <trkpt lat="48.73032" lon="1.74251">
        <ele>141.80000305176</ele>
        <time>2014-05-05T11:59:14.000Z</time>
      </trkpt>
      <trkpt lat="48.73033" lon="1.74264">
        <ele>141.60000610352</ele>
        <time>2014-05-05T11:59:20.000Z</time>
      </trkpt>
      <trkpt lat="48.73034" lon="1.74268">
        <ele>141.60000610352</ele>
        <time>2014-05-05T11:59:22.000Z</time>
      </trkpt>
      <trkpt lat="48.73034" lon="1.74279">
        <ele>141.60000610352</ele>
        <time>2014-05-05T11:59:27.000Z</time>
      </trkpt>
      <trkpt lat="48.73033" lon="1.74289">
        <ele>141.80000305176</ele>
        <time>2014-05-05T11:59:32.000Z</time>
      </trkpt>
      <trkpt lat="48.73034" lon="1.74305">
        <ele>141.60000610352</ele>
        <time>2014-05-05T11:59:39.000Z</time>
      </trkpt>
      <trkpt lat="48.73038" lon="1.74323">
        <ele>141.60000610352</ele>
        <time>2014-05-05T11:59:47.000Z</time>
      </trkpt>
      <trkpt lat="48.73039" lon="1.74327">
        <ele>141.60000610352</ele>
        <time>2014-05-05T11:59:49.000Z</time>
      </trkpt>
      <trkpt lat="48.7304" lon="1.74345">
        <ele>141.39999389648</ele>
        <time>2014-05-05T11:59:57.000Z</time>
      </trkpt>
      <trkpt lat="48.7304" lon="1.74347">
        <ele>141.39999389648</ele>
        <time>2014-05-05T11:59:58.000Z</time>
      </trkpt>
      <trkpt lat="48.73041" lon="1.74359">
        <ele>141.19999694824</ele>
        <time>2014-05-05T12:00:04.000Z</time>
      </trkpt>
      <trkpt lat="48.73043" lon="1.74377">
        <ele>141</ele>
        <time>2014-05-05T12:00:12.000Z</time>
      </trkpt>
      <trkpt lat="48.73044" lon="1.7439">
        <ele>140.80000305176</ele>
        <time>2014-05-05T12:00:18.000Z</time>
      </trkpt>
      <trkpt lat="48.73047" lon="1.74404">
        <ele>140.60000610352</ele>
        <time>2014-05-05T12:00:25.000Z</time>
      </trkpt>
      <trkpt lat="48.73047" lon="1.74418">
        <ele>140.60000610352</ele>
        <time>2014-05-05T12:00:31.000Z</time>
      </trkpt>
      <trkpt lat="48.73047" lon="1.74438">
        <ele>140.80000305176</ele>
        <time>2014-05-05T12:00:39.000Z</time>
      </trkpt>
      <trkpt lat="48.73048" lon="1.74453">
        <ele>141</ele>
        <time>2014-05-05T12:00:46.000Z</time>
      </trkpt>
      <trkpt lat="48.73048" lon="1.74462">
        <ele>141</ele>
        <time>2014-05-05T12:00:52.000Z</time>
      </trkpt>
      <trkpt lat="48.73044" lon="1.74467">
        <ele>141.19999694824</ele>
        <time>2014-05-05T12:00:58.000Z</time>
      </trkpt>
      <trkpt lat="48.73031" lon="1.74477">
        <ele>141.60000610352</ele>
        <time>2014-05-05T12:01:06.000Z</time>
      </trkpt>
      <trkpt lat="48.73021" lon="1.74483">
        <ele>142</ele>
        <time>2014-05-05T12:01:13.000Z</time>
      </trkpt>
      <trkpt lat="48.73008" lon="1.74492">
        <ele>142.39999389648</ele>
        <time>2014-05-05T12:01:23.000Z</time>
      </trkpt>
      <trkpt lat="48.72997" lon="1.74498">
        <ele>143</ele>
        <time>2014-05-05T12:01:31.000Z</time>
      </trkpt>
      <trkpt lat="48.72987" lon="1.74505">
        <ele>143.39999389648</ele>
        <time>2014-05-05T12:01:38.000Z</time>
      </trkpt>
      <trkpt lat="48.72977" lon="1.7451">
        <ele>143.80000305176</ele>
        <time>2014-05-05T12:01:46.000Z</time>
      </trkpt>
      <trkpt lat="48.72971" lon="1.74513">
        <ele>144.19999694824</ele>
        <time>2014-05-05T12:01:51.000Z</time>
      </trkpt>
      <trkpt lat="48.72967" lon="1.74522">
        <ele>144.39999389648</ele>
        <time>2014-05-05T12:01:57.000Z</time>
      </trkpt>
      <trkpt lat="48.72966" lon="1.74525">
        <ele>144.19999694824</ele>
        <time>2014-05-05T12:01:59.000Z</time>
      </trkpt>
      <trkpt lat="48.72962" lon="1.74528">
        <ele>144</ele>
        <time>2014-05-05T12:02:05.000Z</time>
      </trkpt>
      <trkpt lat="48.72961" lon="1.74529">
        <ele>144</ele>
        <time>2014-05-05T12:02:07.000Z</time>
      </trkpt>
      <trkpt lat="48.72963" lon="1.74551">
        <ele>143.80000305176</ele>
        <time>2014-05-05T12:02:50.000Z</time>
      </trkpt>
      <trkpt lat="48.72969" lon="1.74564">
        <ele>143.80000305176</ele>
        <time>2014-05-05T12:02:56.000Z</time>
      </trkpt>
      <trkpt lat="48.7297" lon="1.74565">
        <ele>143.80000305176</ele>
        <time>2014-05-05T12:02:57.000Z</time>
      </trkpt>
      <trkpt lat="48.72971" lon="1.7457">
        <ele>143.80000305176</ele>
        <time>2014-05-05T12:03:00.000Z</time>
      </trkpt>
      <trkpt lat="48.72975" lon="1.7458">
        <ele>144.19999694824</ele>
        <time>2014-05-05T12:03:06.000Z</time>
      </trkpt>
      <trkpt lat="48.72975" lon="1.74587">
        <ele>144.39999389648</ele>
        <time>2014-05-05T12:03:10.000Z</time>
      </trkpt>
      <trkpt lat="48.72977" lon="1.74591">
        <ele>144.60000610352</ele>
        <time>2014-05-05T12:03:14.000Z</time>
      </trkpt>
      <trkpt lat="48.72985" lon="1.74601">
        <ele>145.19999694824</ele>
        <time>2014-05-05T12:03:23.000Z</time>
      </trkpt>
      <trkpt lat="48.72992" lon="1.74608">
        <ele>145.60000610352</ele>
        <time>2014-05-05T12:03:29.000Z</time>
      </trkpt>
      <trkpt lat="48.73" lon="1.74617">
        <ele>146.19999694824</ele>
        <time>2014-05-05T12:03:36.000Z</time>
      </trkpt>
      <trkpt lat="48.73005" lon="1.74626">
        <ele>146.60000610352</ele>
        <time>2014-05-05T12:03:44.000Z</time>
      </trkpt>
      <trkpt lat="48.73014" lon="1.74636">
        <ele>147.19999694824</ele>
        <time>2014-05-05T12:03:51.000Z</time>
      </trkpt>
      <trkpt lat="48.73019" lon="1.74644">
        <ele>147.60000610352</ele>
        <time>2014-05-05T12:03:56.000Z</time>
      </trkpt>
      <trkpt lat="48.73025" lon="1.74659">
        <ele>148</ele>
        <time>2014-05-05T12:04:05.000Z</time>
      </trkpt>
      <trkpt lat="48.73028" lon="1.74668">
        <ele>148</ele>
        <time>2014-05-05T12:04:12.000Z</time>
      </trkpt>
      <trkpt lat="48.73033" lon="1.74678">
        <ele>147.80000305176</ele>
        <time>2014-05-05T12:04:18.000Z</time>
      </trkpt>
      <trkpt lat="48.73039" lon="1.74689">
        <ele>147.80000305176</ele>
        <time>2014-05-05T12:04:25.000Z</time>
      </trkpt>
      <trkpt lat="48.73042" lon="1.74694">
        <ele>147.80000305176</ele>
        <time>2014-05-05T12:04:28.000Z</time>
      </trkpt>
      <trkpt lat="48.73042" lon="1.74701">
        <ele>147.80000305176</ele>
        <time>2014-05-05T12:04:31.000Z</time>
      </trkpt>
      <trkpt lat="48.73043" lon="1.74706">
        <ele>147.80000305176</ele>
        <time>2014-05-05T12:04:33.000Z</time>
      </trkpt>
      <trkpt lat="48.73048" lon="1.74722">
        <ele>147.60000610352</ele>
        <time>2014-05-05T12:04:41.000Z</time>
      </trkpt>
      <trkpt lat="48.73052" lon="1.74738">
        <ele>147.60000610352</ele>
        <time>2014-05-05T12:04:48.000Z</time>
      </trkpt>
      <trkpt lat="48.73052" lon="1.74751">
        <ele>147.60000610352</ele>
        <time>2014-05-05T12:04:54.000Z</time>
      </trkpt>
      <trkpt lat="48.73052" lon="1.74764">
        <ele>147.60000610352</ele>
        <time>2014-05-05T12:05:00.000Z</time>
      </trkpt>
      <trkpt lat="48.73058" lon="1.74776">
        <ele>147.60000610352</ele>
        <time>2014-05-05T12:05:06.000Z</time>
      </trkpt>
      <trkpt lat="48.7306" lon="1.74782">
        <ele>147.60000610352</ele>
        <time>2014-05-05T12:05:09.000Z</time>
      </trkpt>
      <trkpt lat="48.73065" lon="1.74797">
        <ele>147.39999389648</ele>
        <time>2014-05-05T12:05:16.000Z</time>
      </trkpt>
      <trkpt lat="48.73067" lon="1.74814">
        <ele>147.39999389648</ele>
        <time>2014-05-05T12:05:24.000Z</time>
      </trkpt>
      <trkpt lat="48.73067" lon="1.7482">
        <ele>147.39999389648</ele>
        <time>2014-05-05T12:05:27.000Z</time>
      </trkpt>
      <trkpt lat="48.73068" lon="1.74832">
        <ele>148</ele>
        <time>2014-05-05T12:05:33.000Z</time>
      </trkpt>
      <trkpt lat="48.73071" lon="1.74843">
        <ele>148.39999389648</ele>
        <time>2014-05-05T12:05:38.000Z</time>
      </trkpt>
      <trkpt lat="48.73073" lon="1.74857">
        <ele>149.19999694824</ele>
        <time>2014-05-05T12:05:45.000Z</time>
      </trkpt>
      <trkpt lat="48.73068" lon="1.74872">
        <ele>149.60000610352</ele>
        <time>2014-05-05T12:05:51.000Z</time>
      </trkpt>
      <trkpt lat="48.73065" lon="1.74881">
        <ele>149.39999389648</ele>
        <time>2014-05-05T12:05:56.000Z</time>
      </trkpt>
      <trkpt lat="48.73062" lon="1.74891">
        <ele>149.19999694824</ele>
        <time>2014-05-05T12:06:01.000Z</time>
      </trkpt>
      <trkpt lat="48.73063" lon="1.74895">
        <ele>149.19999694824</ele>
        <time>2014-05-05T12:06:03.000Z</time>
      </trkpt>
      <trkpt lat="48.7306" lon="1.74909">
        <ele>149</ele>
        <time>2014-05-05T12:06:09.000Z</time>
      </trkpt>
      <trkpt lat="48.73062" lon="1.74918">
        <ele>149.39999389648</ele>
        <time>2014-05-05T12:06:15.000Z</time>
      </trkpt>
      <trkpt lat="48.73063" lon="1.74926">
        <ele>149.80000305176</ele>
        <time>2014-05-05T12:06:19.000Z</time>
      </trkpt>
      <trkpt lat="48.73063" lon="1.74928">
        <ele>150</ele>
        <time>2014-05-05T12:06:21.000Z</time>
      </trkpt>
      <trkpt lat="48.73066" lon="1.74944">
        <ele>150.60000610352</ele>
        <time>2014-05-05T12:06:29.000Z</time>
      </trkpt>
      <trkpt lat="48.73071" lon="1.74957">
        <ele>151.39999389648</ele>
        <time>2014-05-05T12:06:36.000Z</time>
      </trkpt>
      <trkpt lat="48.73071" lon="1.7497">
        <ele>151.39999389648</ele>
        <time>2014-05-05T12:06:43.000Z</time>
      </trkpt>
      <trkpt lat="48.7307" lon="1.7499">
        <ele>151.60000610352</ele>
        <time>2014-05-05T12:06:53.000Z</time>
      </trkpt>
      <trkpt lat="48.73068" lon="1.74996">
        <ele>151.80000305176</ele>
        <time>2014-05-05T12:06:56.000Z</time>
      </trkpt>
      <trkpt lat="48.73066" lon="1.75012">
        <ele>152.19999694824</ele>
        <time>2014-05-05T12:07:04.000Z</time>
      </trkpt>
      <trkpt lat="48.73064" lon="1.75024">
        <ele>152.39999389648</ele>
        <time>2014-05-05T12:07:10.000Z</time>
      </trkpt>
      <trkpt lat="48.73066" lon="1.75037">
        <ele>153.19999694824</ele>
        <time>2014-05-05T12:07:17.000Z</time>
      </trkpt>
      <trkpt lat="48.73066" lon="1.75039">
        <ele>153.19999694824</ele>
        <time>2014-05-05T12:07:19.000Z</time>
      </trkpt>
      <trkpt lat="48.73069" lon="1.75053">
        <ele>154</ele>
        <time>2014-05-05T12:07:26.000Z</time>
      </trkpt>
      <trkpt lat="48.73069" lon="1.75057">
        <ele>154.19999694824</ele>
        <time>2014-05-05T12:07:28.000Z</time>
      </trkpt>
      <trkpt lat="48.73066" lon="1.7506">
        <ele>154.19999694824</ele>
        <time>2014-05-05T12:07:30.000Z</time>
      </trkpt>
      <trkpt lat="48.73065" lon="1.75068">
        <ele>154.60000610352</ele>
        <time>2014-05-05T12:07:34.000Z</time>
      </trkpt>
      <trkpt lat="48.73068" lon="1.75079">
        <ele>155.60000610352</ele>
        <time>2014-05-05T12:07:39.000Z</time>
      </trkpt>
      <trkpt lat="48.73068" lon="1.75094">
        <ele>156.80000305176</ele>
        <time>2014-05-05T12:07:46.000Z</time>
      </trkpt>
      <trkpt lat="48.73071" lon="1.75104">
        <ele>157.80000305176</ele>
        <time>2014-05-05T12:07:51.000Z</time>
      </trkpt>
      <trkpt lat="48.73074" lon="1.75118">
        <ele>159.19999694824</ele>
        <time>2014-05-05T12:07:58.000Z</time>
      </trkpt>
      <trkpt lat="48.73076" lon="1.75134">
        <ele>160.39999389648</ele>
        <time>2014-05-05T12:08:06.000Z</time>
      </trkpt>
      <trkpt lat="48.73075" lon="1.75136">
        <ele>160.39999389648</ele>
        <time>2014-05-05T12:08:07.000Z</time>
      </trkpt>
      <trkpt lat="48.73074" lon="1.75146">
        <ele>160.80000305176</ele>
        <time>2014-05-05T12:08:12.000Z</time>
      </trkpt>
      <trkpt lat="48.73076" lon="1.75162">
        <ele>162</ele>
        <time>2014-05-05T12:08:20.000Z</time>
      </trkpt>
      <trkpt lat="48.73077" lon="1.75168">
        <ele>162.60000610352</ele>
        <time>2014-05-05T12:08:24.000Z</time>
      </trkpt>
      <trkpt lat="48.73074" lon="1.7517">
        <ele>162.39999389648</ele>
        <time>2014-05-05T12:08:29.000Z</time>
      </trkpt>
      <trkpt lat="48.73074" lon="1.7517">
        <ele>162.39999389648</ele>
        <time>2014-05-05T12:08:31.000Z</time>
      </trkpt>
      <trkpt lat="48.73068" lon="1.75204">
        <ele>164.60000610352</ele>
        <time>2014-05-05T12:09:11.000Z</time>
      </trkpt>
      <trkpt lat="48.73066" lon="1.75218">
        <ele>164.80000305176</ele>
        <time>2014-05-05T12:09:18.000Z</time>
      </trkpt>
      <trkpt lat="48.73062" lon="1.75229">
        <ele>164.80000305176</ele>
        <time>2014-05-05T12:09:25.000Z</time>
      </trkpt>
      <trkpt lat="48.73062" lon="1.75236">
        <ele>165</ele>
        <time>2014-05-05T12:09:28.000Z</time>
      </trkpt>
      <trkpt lat="48.73058" lon="1.75248">
        <ele>165</ele>
        <time>2014-05-05T12:09:35.000Z</time>
      </trkpt>
      <trkpt lat="48.73058" lon="1.7525">
        <ele>165.19999694824</ele>
        <time>2014-05-05T12:09:36.000Z</time>
      </trkpt>
      <trkpt lat="48.7306" lon="1.75267">
        <ele>166.39999389648</ele>
        <time>2014-05-05T12:09:45.000Z</time>
      </trkpt>
      <trkpt lat="48.73065" lon="1.75281">
        <ele>168</ele>
        <time>2014-05-05T12:09:52.000Z</time>
      </trkpt>
      <trkpt lat="48.73067" lon="1.75295">
        <ele>169.39999389648</ele>
        <time>2014-05-05T12:09:59.000Z</time>
      </trkpt>
      <trkpt lat="48.73063" lon="1.7531">
        <ele>170.39999389648</ele>
        <time>2014-05-05T12:10:07.000Z</time>
      </trkpt>
      <trkpt lat="48.73062" lon="1.75327">
        <ele>171.80000305176</ele>
        <time>2014-05-05T12:10:15.000Z</time>
      </trkpt>
      <trkpt lat="48.73061" lon="1.75343">
        <ele>172.39999389648</ele>
        <time>2014-05-05T12:10:23.000Z</time>
      </trkpt>
      <trkpt lat="48.7306" lon="1.75351">
        <ele>172.80000305176</ele>
        <time>2014-05-05T12:10:27.000Z</time>
      </trkpt>
      <trkpt lat="48.73062" lon="1.7537">
        <ele>174</ele>
        <time>2014-05-05T12:10:37.000Z</time>
      </trkpt>
      <trkpt lat="48.73062" lon="1.75383">
        <ele>175</ele>
        <time>2014-05-05T12:10:43.000Z</time>
      </trkpt>
      <trkpt lat="48.73061" lon="1.75385">
        <ele>175</ele>
        <time>2014-05-05T12:10:47.000Z</time>
      </trkpt>
      <trkpt lat="48.73061" lon="1.75398">
        <ele>176</ele>
        <time>2014-05-05T12:11:00.000Z</time>
      </trkpt>
      <trkpt lat="48.73061" lon="1.75405">
        <ele>176.39999389648</ele>
        <time>2014-05-05T12:11:03.000Z</time>
      </trkpt>
      <trkpt lat="48.73061" lon="1.75417">
        <ele>177</ele>
        <time>2014-05-05T12:11:11.000Z</time>
      </trkpt>
      <trkpt lat="48.73062" lon="1.75421">
        <ele>177.19999694824</ele>
        <time>2014-05-05T12:11:13.000Z</time>
      </trkpt>
      <trkpt lat="48.73062" lon="1.75429">
        <ele>177.60000610352</ele>
        <time>2014-05-05T12:11:18.000Z</time>
      </trkpt>
      <trkpt lat="48.73063" lon="1.75431">
        <ele>177.80000305176</ele>
        <time>2014-05-05T12:11:20.000Z</time>
      </trkpt>
      <trkpt lat="48.73063" lon="1.75437">
        <ele>178.19999694824</ele>
        <time>2014-05-05T12:11:24.000Z</time>
      </trkpt>
      <trkpt lat="48.73065" lon="1.7545">
        <ele>179</ele>
        <time>2014-05-05T12:11:32.000Z</time>
      </trkpt>
      <trkpt lat="48.73065" lon="1.75451">
        <ele>179</ele>
        <time>2014-05-05T12:11:33.000Z</time>
      </trkpt>
      <trkpt lat="48.73066" lon="1.75458">
        <ele>179.39999389648</ele>
        <time>2014-05-05T12:11:36.000Z</time>
      </trkpt>
      <trkpt lat="48.73067" lon="1.75472">
        <ele>180.39999389648</ele>
        <time>2014-05-05T12:11:43.000Z</time>
      </trkpt>
      <trkpt lat="48.73066" lon="1.75483">
        <ele>181</ele>
        <time>2014-05-05T12:11:49.000Z</time>
      </trkpt>
      <trkpt lat="48.73068" lon="1.75494">
        <ele>181.39999389648</ele>
        <time>2014-05-05T12:11:55.000Z</time>
      </trkpt>
      <trkpt lat="48.73068" lon="1.75496">
        <ele>181.39999389648</ele>
        <time>2014-05-05T12:11:56.000Z</time>
      </trkpt>
      <trkpt lat="48.73067" lon="1.7551">
        <ele>181.39999389648</ele>
        <time>2014-05-05T12:12:02.000Z</time>
      </trkpt>
      <trkpt lat="48.7307" lon="1.75518">
        <ele>181.60000610352</ele>
        <time>2014-05-05T12:12:06.000Z</time>
      </trkpt>
      <trkpt lat="48.73071" lon="1.75532">
        <ele>181.60000610352</ele>
        <time>2014-05-05T12:12:13.000Z</time>
      </trkpt>
      <trkpt lat="48.73069" lon="1.75547">
        <ele>181.80000305176</ele>
        <time>2014-05-05T12:12:20.000Z</time>
      </trkpt>
      <trkpt lat="48.73065" lon="1.75555">
        <ele>181.80000305176</ele>
        <time>2014-05-05T12:12:24.000Z</time>
      </trkpt>
      <trkpt lat="48.73059" lon="1.75568">
        <ele>181.80000305176</ele>
        <time>2014-05-05T12:12:31.000Z</time>
      </trkpt>
      <trkpt lat="48.73054" lon="1.75581">
        <ele>181.39999389648</ele>
        <time>2014-05-05T12:12:38.000Z</time>
      </trkpt>
      <trkpt lat="48.73054" lon="1.75597">
        <ele>181</ele>
        <time>2014-05-05T12:12:45.000Z</time>
      </trkpt>
      <trkpt lat="48.73055" lon="1.75616">
        <ele>180.80000305176</ele>
        <time>2014-05-05T12:12:53.000Z</time>
      </trkpt>
      <trkpt lat="48.73052" lon="1.75623">
        <ele>180.80000305176</ele>
        <time>2014-05-05T12:12:57.000Z</time>
      </trkpt>
      <trkpt lat="48.73049" lon="1.75636">
        <ele>180.60000610352</ele>
        <time>2014-05-05T12:13:03.000Z</time>
      </trkpt>
      <trkpt lat="48.73048" lon="1.75653">
        <ele>180.60000610352</ele>
        <time>2014-05-05T12:13:11.000Z</time>
      </trkpt>
      <trkpt lat="48.73048" lon="1.75671">
        <ele>180.19999694824</ele>
        <time>2014-05-05T12:13:19.000Z</time>
      </trkpt>
      <trkpt lat="48.73048" lon="1.75689">
        <ele>180</ele>
        <time>2014-05-05T12:13:27.000Z</time>
      </trkpt>
      <trkpt lat="48.73049" lon="1.75693">
        <ele>180.19999694824</ele>
        <time>2014-05-05T12:13:29.000Z</time>
      </trkpt>
      <trkpt lat="48.73052" lon="1.75705">
        <ele>180.19999694824</ele>
        <time>2014-05-05T12:13:35.000Z</time>
      </trkpt>
      <trkpt lat="48.73055" lon="1.75719">
        <ele>180.39999389648</ele>
        <time>2014-05-05T12:13:42.000Z</time>
      </trkpt>
      <trkpt lat="48.73055" lon="1.75729">
        <ele>180.39999389648</ele>
        <time>2014-05-05T12:13:47.000Z</time>
      </trkpt>
      <trkpt lat="48.73056" lon="1.75733">
        <ele>180.60000610352</ele>
        <time>2014-05-05T12:13:49.000Z</time>
      </trkpt>
      <trkpt lat="48.73056" lon="1.75746">
        <ele>180.60000610352</ele>
        <time>2014-05-05T12:13:56.000Z</time>
      </trkpt>
      <trkpt lat="48.73054" lon="1.75759">
        <ele>180.80000305176</ele>
        <time>2014-05-05T12:14:02.000Z</time>
      </trkpt>
      <trkpt lat="48.73052" lon="1.75774">
        <ele>181.19999694824</ele>
        <time>2014-05-05T12:14:09.000Z</time>
      </trkpt>
      <trkpt lat="48.73049" lon="1.75782">
        <ele>181.39999389648</ele>
        <time>2014-05-05T12:14:13.000Z</time>
      </trkpt>
      <trkpt lat="48.73049" lon="1.758">
        <ele>181.80000305176</ele>
        <time>2014-05-05T12:14:21.000Z</time>
      </trkpt>
      <trkpt lat="48.73053" lon="1.75817">
        <ele>182.19999694824</ele>
        <time>2014-05-05T12:14:29.000Z</time>
      </trkpt>
      <trkpt lat="48.73054" lon="1.75826">
        <ele>182.39999389648</ele>
        <time>2014-05-05T12:14:34.000Z</time>
      </trkpt>
      <trkpt lat="48.73051" lon="1.75837">
        <ele>182.60000610352</ele>
        <time>2014-05-05T12:14:39.000Z</time>
      </trkpt>
      <trkpt lat="48.7305" lon="1.75856">
        <ele>182.80000305176</ele>
        <time>2014-05-05T12:14:47.000Z</time>
      </trkpt>
      <trkpt lat="48.73045" lon="1.75869">
        <ele>182.39999389648</ele>
        <time>2014-05-05T12:14:54.000Z</time>
      </trkpt>
      <trkpt lat="48.73044" lon="1.75879">
        <ele>182.19999694824</ele>
        <time>2014-05-05T12:14:59.000Z</time>
      </trkpt>
      <trkpt lat="48.73038" lon="1.75899">
        <ele>181.60000610352</ele>
        <time>2014-05-05T12:15:07.000Z</time>
      </trkpt>
      <trkpt lat="48.73037" lon="1.7591">
        <ele>181.39999389648</ele>
        <time>2014-05-05T12:15:11.000Z</time>
      </trkpt>
      <trkpt lat="48.73034" lon="1.75929">
        <ele>180.80000305176</ele>
        <time>2014-05-05T12:15:19.000Z</time>
      </trkpt>
      <trkpt lat="48.73033" lon="1.7594">
        <ele>180.39999389648</ele>
        <time>2014-05-05T12:15:24.000Z</time>
      </trkpt>
      <trkpt lat="48.73029" lon="1.75957">
        <ele>179.39999389648</ele>
        <time>2014-05-05T12:15:31.000Z</time>
      </trkpt>
      <trkpt lat="48.73028" lon="1.75967">
        <ele>179</ele>
        <time>2014-05-05T12:15:36.000Z</time>
      </trkpt>
      <trkpt lat="48.73023" lon="1.75973">
        <ele>178.60000610352</ele>
        <time>2014-05-05T12:15:42.000Z</time>
      </trkpt>
      <trkpt lat="48.73017" lon="1.75977">
        <ele>178.19999694824</ele>
        <time>2014-05-05T12:16:08.000Z</time>
      </trkpt>
      <trkpt lat="48.73009" lon="1.75984">
        <ele>177.19999694824</ele>
        <time>2014-05-05T12:16:13.000Z</time>
      </trkpt>
      <trkpt lat="48.73002" lon="1.75989">
        <ele>176.19999694824</ele>
        <time>2014-05-05T12:16:18.000Z</time>
      </trkpt>
      <trkpt lat="48.72994" lon="1.75996">
        <ele>175.39999389648</ele>
        <time>2014-05-05T12:16:24.000Z</time>
      </trkpt>
      <trkpt lat="48.72984" lon="1.76004">
        <ele>174.60000610352</ele>
        <time>2014-05-05T12:16:31.000Z</time>
      </trkpt>
      <trkpt lat="48.72978" lon="1.7601">
        <ele>174</ele>
        <time>2014-05-05T12:16:38.000Z</time>
      </trkpt>
      <trkpt lat="48.72977" lon="1.76013">
        <ele>173.80000305176</ele>
        <time>2014-05-05T12:16:40.000Z</time>
      </trkpt>
      <trkpt lat="48.72972" lon="1.76021">
        <ele>173.39999389648</ele>
        <time>2014-05-05T12:16:46.000Z</time>
      </trkpt>
      <trkpt lat="48.72966" lon="1.76022">
        <ele>172.39999389648</ele>
        <time>2014-05-05T12:16:50.000Z</time>
      </trkpt>
      <trkpt lat="48.72961" lon="1.76031">
        <ele>171.39999389648</ele>
        <time>2014-05-05T12:16:55.000Z</time>
      </trkpt>
      <trkpt lat="48.72949" lon="1.76043">
        <ele>169</ele>
        <time>2014-05-05T12:17:03.000Z</time>
      </trkpt>
      <trkpt lat="48.72941" lon="1.76051">
        <ele>167.39999389648</ele>
        <time>2014-05-05T12:17:09.000Z</time>
      </trkpt>
      <trkpt lat="48.72933" lon="1.76059">
        <ele>166.60000610352</ele>
        <time>2014-05-05T12:17:15.000Z</time>
      </trkpt>
      <trkpt lat="48.72923" lon="1.76062">
        <ele>166.39999389648</ele>
        <time>2014-05-05T12:17:21.000Z</time>
      </trkpt>
      <trkpt lat="48.72921" lon="1.76063">
        <ele>166.19999694824</ele>
        <time>2014-05-05T12:17:23.000Z</time>
      </trkpt>
      <trkpt lat="48.72913" lon="1.76072">
        <ele>165.39999389648</ele>
        <time>2014-05-05T12:17:29.000Z</time>
      </trkpt>
      <trkpt lat="48.72903" lon="1.76082">
        <ele>165.39999389648</ele>
        <time>2014-05-05T12:17:36.000Z</time>
      </trkpt>
      <trkpt lat="48.72897" lon="1.76089">
        <ele>165.39999389648</ele>
        <time>2014-05-05T12:17:41.000Z</time>
      </trkpt>
      <trkpt lat="48.72896" lon="1.7609">
        <ele>165.39999389648</ele>
        <time>2014-05-05T12:17:45.000Z</time>
      </trkpt>
      <trkpt lat="48.72895" lon="1.76107">
        <ele>165.80000305176</ele>
        <time>2014-05-05T12:18:02.000Z</time>
      </trkpt>
      <trkpt lat="48.72885" lon="1.76111">
        <ele>165.19999694824</ele>
        <time>2014-05-05T12:18:08.000Z</time>
      </trkpt>
      <trkpt lat="48.72875" lon="1.76116">
        <ele>164.39999389648</ele>
        <time>2014-05-05T12:18:15.000Z</time>
      </trkpt>
      <trkpt lat="48.72864" lon="1.76121">
        <ele>163.60000610352</ele>
        <time>2014-05-05T12:18:22.000Z</time>
      </trkpt>
      <trkpt lat="48.72854" lon="1.76126">
        <ele>162.60000610352</ele>
        <time>2014-05-05T12:18:28.000Z</time>
      </trkpt>
      <trkpt lat="48.72839" lon="1.76128">
        <ele>163</ele>
        <time>2014-05-05T12:18:34.000Z</time>
      </trkpt>
      <trkpt lat="48.7283" lon="1.76137">
        <ele>162.60000610352</ele>
        <time>2014-05-05T12:18:40.000Z</time>
      </trkpt>
      <trkpt lat="48.72829" lon="1.76143">
        <ele>162.19999694824</ele>
        <time>2014-05-05T12:18:43.000Z</time>
      </trkpt>
      <trkpt lat="48.72825" lon="1.76157">
        <ele>161.60000610352</ele>
        <time>2014-05-05T12:18:49.000Z</time>
      </trkpt>
      <trkpt lat="48.72814" lon="1.76169">
        <ele>162.60000610352</ele>
        <time>2014-05-05T12:18:56.000Z</time>
      </trkpt>
      <trkpt lat="48.72806" lon="1.76177">
        <ele>163.19999694824</ele>
        <time>2014-05-05T12:19:01.000Z</time>
      </trkpt>
      <trkpt lat="48.72802" lon="1.76182">
        <ele>163.80000305176</ele>
        <time>2014-05-05T12:19:04.000Z</time>
      </trkpt>
      <trkpt lat="48.72792" lon="1.762">
        <ele>161.80000305176</ele>
        <time>2014-05-05T12:19:14.000Z</time>
      </trkpt>
      <trkpt lat="48.72789" lon="1.76211">
        <ele>160.60000610352</ele>
        <time>2014-05-05T12:19:20.000Z</time>
      </trkpt>
      <trkpt lat="48.72785" lon="1.76223">
        <ele>159.39999389648</ele>
        <time>2014-05-05T12:19:26.000Z</time>
      </trkpt>
      <trkpt lat="48.72782" lon="1.76231">
        <ele>158.39999389648</ele>
        <time>2014-05-05T12:19:30.000Z</time>
      </trkpt>
      <trkpt lat="48.72776" lon="1.76249">
        <ele>157.39999389648</ele>
        <time>2014-05-05T12:19:37.000Z</time>
      </trkpt>
      <trkpt lat="48.72767" lon="1.76269">
        <ele>156.19999694824</ele>
        <time>2014-05-05T12:19:46.000Z</time>
      </trkpt>
      <trkpt lat="48.72759" lon="1.76289">
        <ele>156</ele>
        <time>2014-05-05T12:19:54.000Z</time>
      </trkpt>
      <trkpt lat="48.72748" lon="1.7629">
        <ele>155.60000610352</ele>
        <time>2014-05-05T12:20:01.000Z</time>
      </trkpt>
      <trkpt lat="48.72739" lon="1.76294">
        <ele>155</ele>
        <time>2014-05-05T12:20:07.000Z</time>
      </trkpt>
      <trkpt lat="48.7273" lon="1.76294">
        <ele>154</ele>
        <time>2014-05-05T12:20:12.000Z</time>
      </trkpt>
      <trkpt lat="48.72719" lon="1.76295">
        <ele>153</ele>
        <time>2014-05-05T12:20:19.000Z</time>
      </trkpt>
      <trkpt lat="48.72711" lon="1.76295">
        <ele>152.19999694824</ele>
        <time>2014-05-05T12:20:24.000Z</time>
      </trkpt>
      <trkpt lat="48.72703" lon="1.76298">
        <ele>151.39999389648</ele>
        <time>2014-05-05T12:20:30.000Z</time>
      </trkpt>
      <trkpt lat="48.72696" lon="1.763">
        <ele>150.60000610352</ele>
        <time>2014-05-05T12:20:35.000Z</time>
      </trkpt>
      <trkpt lat="48.72687" lon="1.763">
        <ele>149.80000305176</ele>
        <time>2014-05-05T12:20:41.000Z</time>
      </trkpt>
      <trkpt lat="48.72674" lon="1.763">
        <ele>149.19999694824</ele>
        <time>2014-05-05T12:20:49.000Z</time>
      </trkpt>
      <trkpt lat="48.72665" lon="1.76298">
        <ele>149</ele>
        <time>2014-05-05T12:20:55.000Z</time>
      </trkpt>
      <trkpt lat="48.72656" lon="1.76298">
        <ele>148.60000610352</ele>
        <time>2014-05-05T12:21:01.000Z</time>
      </trkpt>
      <trkpt lat="48.72646" lon="1.76297">
        <ele>148.39999389648</ele>
        <time>2014-05-05T12:21:07.000Z</time>
      </trkpt>
      <trkpt lat="48.72637" lon="1.76296">
        <ele>148</ele>
        <time>2014-05-05T12:21:13.000Z</time>
      </trkpt>
      <trkpt lat="48.72628" lon="1.76294">
        <ele>147.80000305176</ele>
        <time>2014-05-05T12:21:19.000Z</time>
      </trkpt>
      <trkpt lat="48.72621" lon="1.76295">
        <ele>147.60000610352</ele>
        <time>2014-05-05T12:21:24.000Z</time>
      </trkpt>
      <trkpt lat="48.72612" lon="1.76296">
        <ele>147.19999694824</ele>
        <time>2014-05-05T12:21:30.000Z</time>
      </trkpt>
      <trkpt lat="48.72602" lon="1.76295">
        <ele>146.80000305176</ele>
        <time>2014-05-05T12:21:37.000Z</time>
      </trkpt>
      <trkpt lat="48.7259" lon="1.76291">
        <ele>145.80000305176</ele>
        <time>2014-05-05T12:21:45.000Z</time>
      </trkpt>
      <trkpt lat="48.7258" lon="1.76287">
        <ele>145.19999694824</ele>
        <time>2014-05-05T12:21:52.000Z</time>
      </trkpt>
      <trkpt lat="48.72568" lon="1.76279">
        <ele>144.60000610352</ele>
        <time>2014-05-05T12:21:59.000Z</time>
      </trkpt>
      <trkpt lat="48.72558" lon="1.76273">
        <ele>144</ele>
        <time>2014-05-05T12:22:05.000Z</time>
      </trkpt>
      <trkpt lat="48.72545" lon="1.76269">
        <ele>143.39999389648</ele>
        <time>2014-05-05T12:22:13.000Z</time>
      </trkpt>
      <trkpt lat="48.72543" lon="1.76268">
        <ele>143.39999389648</ele>
        <time>2014-05-05T12:22:14.000Z</time>
      </trkpt>
      <trkpt lat="48.72531" lon="1.76265">
        <ele>143</ele>
        <time>2014-05-05T12:22:22.000Z</time>
      </trkpt>
      <trkpt lat="48.72518" lon="1.76261">
        <ele>142.80000305176</ele>
        <time>2014-05-05T12:22:30.000Z</time>
      </trkpt>
      <trkpt lat="48.72514" lon="1.7626">
        <ele>142.39999389648</ele>
        <time>2014-05-05T12:22:32.000Z</time>
      </trkpt>
      <trkpt lat="48.72505" lon="1.76256">
        <ele>141.80000305176</ele>
        <time>2014-05-05T12:22:39.000Z</time>
      </trkpt>
      <trkpt lat="48.72504" lon="1.76252">
        <ele>141.60000610352</ele>
        <time>2014-05-05T12:22:41.000Z</time>
      </trkpt>
      <trkpt lat="48.72503" lon="1.76249">
        <ele>141.39999389648</ele>
        <time>2014-05-05T12:22:43.000Z</time>
      </trkpt>
      <trkpt lat="48.72496" lon="1.7623">
        <ele>140.60000610352</ele>
        <time>2014-05-05T12:22:52.000Z</time>
      </trkpt>
      <trkpt lat="48.72492" lon="1.76216">
        <ele>140.60000610352</ele>
        <time>2014-05-05T12:22:59.000Z</time>
      </trkpt>
      <trkpt lat="48.72486" lon="1.76201">
        <ele>140.39999389648</ele>
        <time>2014-05-05T12:23:07.000Z</time>
      </trkpt>
      <trkpt lat="48.72481" lon="1.76191">
        <ele>140.19999694824</ele>
        <time>2014-05-05T12:23:13.000Z</time>
      </trkpt>
      <trkpt lat="48.72473" lon="1.76182">
        <ele>140</ele>
        <time>2014-05-05T12:23:20.000Z</time>
      </trkpt>
      <trkpt lat="48.72466" lon="1.76172">
        <ele>139.60000610352</ele>
        <time>2014-05-05T12:23:27.000Z</time>
      </trkpt>
      <trkpt lat="48.72456" lon="1.76159">
        <ele>139.19999694824</ele>
        <time>2014-05-05T12:23:33.000Z</time>
      </trkpt>
      <trkpt lat="48.7245" lon="1.76147">
        <ele>139.60000610352</ele>
        <time>2014-05-05T12:23:40.000Z</time>
      </trkpt>
      <trkpt lat="48.72444" lon="1.76136">
        <ele>140</ele>
        <time>2014-05-05T12:23:47.000Z</time>
      </trkpt>
      <trkpt lat="48.72443" lon="1.76132">
        <ele>140.39999389648</ele>
        <time>2014-05-05T12:23:49.000Z</time>
      </trkpt>
      <trkpt lat="48.72439" lon="1.76126">
        <ele>140.39999389648</ele>
        <time>2014-05-05T12:23:53.000Z</time>
      </trkpt>
      <trkpt lat="48.72429" lon="1.76112">
        <ele>140.80000305176</ele>
        <time>2014-05-05T12:24:02.000Z</time>
      </trkpt>
      <trkpt lat="48.72419" lon="1.76097">
        <ele>141</ele>
        <time>2014-05-05T12:24:11.000Z</time>
      </trkpt>
      <trkpt lat="48.72411" lon="1.76089">
        <ele>141</ele>
        <time>2014-05-05T12:24:18.000Z</time>
      </trkpt>
      <trkpt lat="48.72407" lon="1.76077">
        <ele>141.60000610352</ele>
        <time>2014-05-05T12:24:24.000Z</time>
      </trkpt>
      <trkpt lat="48.72404" lon="1.76063">
        <ele>141.60000610352</ele>
        <time>2014-05-05T12:24:31.000Z</time>
      </trkpt>
      <trkpt lat="48.72402" lon="1.76055">
        <ele>141.39999389648</ele>
        <time>2014-05-05T12:24:35.000Z</time>
      </trkpt>
      <trkpt lat="48.724" lon="1.76047">
        <ele>141.19999694824</ele>
        <time>2014-05-05T12:24:39.000Z</time>
      </trkpt>
      <trkpt lat="48.72396" lon="1.76034">
        <ele>140.60000610352</ele>
        <time>2014-05-05T12:24:46.000Z</time>
      </trkpt>
      <trkpt lat="48.72393" lon="1.76022">
        <ele>140.19999694824</ele>
        <time>2014-05-05T12:24:52.000Z</time>
      </trkpt>
      <trkpt lat="48.7239" lon="1.76018">
        <ele>139.80000305176</ele>
        <time>2014-05-05T12:24:55.000Z</time>
      </trkpt>
      <trkpt lat="48.72376" lon="1.76015">
        <ele>138.39999389648</ele>
        <time>2014-05-05T12:25:04.000Z</time>
      </trkpt>
      <trkpt lat="48.72368" lon="1.76013">
        <ele>137.60000610352</ele>
        <time>2014-05-05T12:25:09.000Z</time>
      </trkpt>
      <trkpt lat="48.72358" lon="1.76006">
        <ele>136.60000610352</ele>
        <time>2014-05-05T12:25:15.000Z</time>
      </trkpt>
      <trkpt lat="48.7235" lon="1.75996">
        <ele>136</ele>
        <time>2014-05-05T12:25:21.000Z</time>
      </trkpt>
      <trkpt lat="48.72347" lon="1.75989">
        <ele>135.80000305176</ele>
        <time>2014-05-05T12:25:24.000Z</time>
      </trkpt>
      <trkpt lat="48.72344" lon="1.75974">
        <ele>135.60000610352</ele>
        <time>2014-05-05T12:25:32.000Z</time>
      </trkpt>
      <trkpt lat="48.72341" lon="1.75961">
        <ele>135.39999389648</ele>
        <time>2014-05-05T12:25:39.000Z</time>
      </trkpt>
      <trkpt lat="48.72337" lon="1.75948">
        <ele>135.19999694824</ele>
        <time>2014-05-05T12:25:45.000Z</time>
      </trkpt>
      <trkpt lat="48.72336" lon="1.75942">
        <ele>135</ele>
        <time>2014-05-05T12:25:48.000Z</time>
      </trkpt>
      <trkpt lat="48.72331" lon="1.75931">
        <ele>134.80000305176</ele>
        <time>2014-05-05T12:25:55.000Z</time>
      </trkpt>
      <trkpt lat="48.7233" lon="1.75929">
        <ele>134.80000305176</ele>
        <time>2014-05-05T12:25:56.000Z</time>
      </trkpt>
      <trkpt lat="48.72322" lon="1.75907">
        <ele>134.19999694824</ele>
        <time>2014-05-05T12:26:07.000Z</time>
      </trkpt>
      <trkpt lat="48.72322" lon="1.75905">
        <ele>134.19999694824</ele>
        <time>2014-05-05T12:26:08.000Z</time>
      </trkpt>
      <trkpt lat="48.72319" lon="1.75885">
        <ele>134.19999694824</ele>
        <time>2014-05-05T12:26:17.000Z</time>
      </trkpt>
      <trkpt lat="48.72319" lon="1.75864">
        <ele>134.19999694824</ele>
        <time>2014-05-05T12:26:26.000Z</time>
      </trkpt>
      <trkpt lat="48.72319" lon="1.75848">
        <ele>134.39999389648</ele>
        <time>2014-05-05T12:26:33.000Z</time>
      </trkpt>
      <trkpt lat="48.7232" lon="1.7584">
        <ele>134.60000610352</ele>
        <time>2014-05-05T12:26:37.000Z</time>
      </trkpt>
      <trkpt lat="48.72322" lon="1.75829">
        <ele>134.80000305176</ele>
        <time>2014-05-05T12:26:43.000Z</time>
      </trkpt>
      <trkpt lat="48.72322" lon="1.75824">
        <ele>134.80000305176</ele>
        <time>2014-05-05T12:26:45.000Z</time>
      </trkpt>
      <trkpt lat="48.72323" lon="1.75809">
        <ele>135</ele>
        <time>2014-05-05T12:26:52.000Z</time>
      </trkpt>
      <trkpt lat="48.72325" lon="1.75786">
        <ele>135.39999389648</ele>
        <time>2014-05-05T12:27:02.000Z</time>
      </trkpt>
      <trkpt lat="48.72327" lon="1.75768">
        <ele>136</ele>
        <time>2014-05-05T12:27:11.000Z</time>
      </trkpt>
      <trkpt lat="48.7233" lon="1.7575">
        <ele>136.60000610352</ele>
        <time>2014-05-05T12:27:20.000Z</time>
      </trkpt>
      <trkpt lat="48.72331" lon="1.75732">
        <ele>137</ele>
        <time>2014-05-05T12:27:28.000Z</time>
      </trkpt>
      <trkpt lat="48.72334" lon="1.75716">
        <ele>137.60000610352</ele>
        <time>2014-05-05T12:27:36.000Z</time>
      </trkpt>
      <trkpt lat="48.72333" lon="1.75698">
        <ele>138</ele>
        <time>2014-05-05T12:27:44.000Z</time>
      </trkpt>
      <trkpt lat="48.72331" lon="1.75677">
        <ele>138.39999389648</ele>
        <time>2014-05-05T12:27:54.000Z</time>
      </trkpt>
      <trkpt lat="48.72329" lon="1.75669">
        <ele>138.39999389648</ele>
        <time>2014-05-05T12:27:58.000Z</time>
      </trkpt>
      <trkpt lat="48.72327" lon="1.75663">
        <ele>138.60000610352</ele>
        <time>2014-05-05T12:28:02.000Z</time>
      </trkpt>
      <trkpt lat="48.72323" lon="1.75655">
        <ele>138.39999389648</ele>
        <time>2014-05-05T12:28:08.000Z</time>
      </trkpt>
      <trkpt lat="48.7232" lon="1.75645">
        <ele>138.80000305176</ele>
        <time>2014-05-05T12:28:13.000Z</time>
      </trkpt>
      <trkpt lat="48.72315" lon="1.75632">
        <ele>139</ele>
        <time>2014-05-05T12:28:19.000Z</time>
      </trkpt>
      <trkpt lat="48.72313" lon="1.75628">
        <ele>139</ele>
        <time>2014-05-05T12:28:21.000Z</time>
      </trkpt>
      <trkpt lat="48.72308" lon="1.75614">
        <ele>139.19999694824</ele>
        <time>2014-05-05T12:28:28.000Z</time>
      </trkpt>
      <trkpt lat="48.72303" lon="1.75597">
        <ele>139.60000610352</ele>
        <time>2014-05-05T12:28:36.000Z</time>
      </trkpt>
      <trkpt lat="48.72298" lon="1.75587">
        <ele>139.80000305176</ele>
        <time>2014-05-05T12:28:42.000Z</time>
      </trkpt>
      <trkpt lat="48.7229" lon="1.75569">
        <ele>140.19999694824</ele>
        <time>2014-05-05T12:28:51.000Z</time>
      </trkpt>
      <trkpt lat="48.72285" lon="1.75551">
        <ele>140.39999389648</ele>
        <time>2014-05-05T12:28:59.000Z</time>
      </trkpt>
      <trkpt lat="48.72278" lon="1.75534">
        <ele>140.39999389648</ele>
        <time>2014-05-05T12:29:07.000Z</time>
      </trkpt>
      <trkpt lat="48.72274" lon="1.75522">
        <ele>140.39999389648</ele>
        <time>2014-05-05T12:29:13.000Z</time>
      </trkpt>
      <trkpt lat="48.72269" lon="1.75511">
        <ele>140.39999389648</ele>
        <time>2014-05-05T12:29:20.000Z</time>
      </trkpt>
      <trkpt lat="48.72261" lon="1.75494">
        <ele>140.19999694824</ele>
        <time>2014-05-05T12:29:28.000Z</time>
      </trkpt>
      <trkpt lat="48.7225" lon="1.75475">
        <ele>139.39999389648</ele>
        <time>2014-05-05T12:29:38.000Z</time>
      </trkpt>
      <trkpt lat="48.72243" lon="1.75459">
        <ele>138.80000305176</ele>
        <time>2014-05-05T12:29:46.000Z</time>
      </trkpt>
      <trkpt lat="48.72235" lon="1.75439">
        <ele>138.60000610352</ele>
        <time>2014-05-05T12:29:56.000Z</time>
      </trkpt>
      <trkpt lat="48.72229" lon="1.75425">
        <ele>138.60000610352</ele>
        <time>2014-05-05T12:30:03.000Z</time>
      </trkpt>
      <trkpt lat="48.72224" lon="1.7541">
        <ele>138.60000610352</ele>
        <time>2014-05-05T12:30:10.000Z</time>
      </trkpt>
      <trkpt lat="48.72218" lon="1.75394">
        <ele>138.19999694824</ele>
        <time>2014-05-05T12:30:18.000Z</time>
      </trkpt>
      <trkpt lat="48.72215" lon="1.75381">
        <ele>138</ele>
        <time>2014-05-05T12:30:25.000Z</time>
      </trkpt>
      <trkpt lat="48.72211" lon="1.75367">
        <ele>137.60000610352</ele>
        <time>2014-05-05T12:30:32.000Z</time>
      </trkpt>
      <trkpt lat="48.72208" lon="1.75347">
        <ele>137.39999389648</ele>
        <time>2014-05-05T12:30:41.000Z</time>
      </trkpt>
      <trkpt lat="48.72206" lon="1.75329">
        <ele>137.60000610352</ele>
        <time>2014-05-05T12:30:49.000Z</time>
      </trkpt>
      <trkpt lat="48.72204" lon="1.75315">
        <ele>137.60000610352</ele>
        <time>2014-05-05T12:30:56.000Z</time>
      </trkpt>
      <trkpt lat="48.72204" lon="1.75304">
        <ele>137.60000610352</ele>
        <time>2014-05-05T12:31:01.000Z</time>
      </trkpt>
      <trkpt lat="48.72201" lon="1.75297">
        <ele>137.19999694824</ele>
        <time>2014-05-05T12:31:05.000Z</time>
      </trkpt>
      <trkpt lat="48.72202" lon="1.75288">
        <ele>137.60000610352</ele>
        <time>2014-05-05T12:31:09.000Z</time>
      </trkpt>
      <trkpt lat="48.72202" lon="1.75274">
        <ele>137.60000610352</ele>
        <time>2014-05-05T12:31:16.000Z</time>
      </trkpt>
      <trkpt lat="48.72205" lon="1.75259">
        <ele>138.39999389648</ele>
        <time>2014-05-05T12:31:24.000Z</time>
      </trkpt>
      <trkpt lat="48.72205" lon="1.75256">
        <ele>138.19999694824</ele>
        <time>2014-05-05T12:31:27.000Z</time>
      </trkpt>
      <trkpt lat="48.72205" lon="1.75259">
        <ele>138.39999389648</ele>
        <time>2014-05-05T12:31:49.000Z</time>
      </trkpt>
      <trkpt lat="48.72208" lon="1.75246">
        <ele>139</ele>
        <time>2014-05-05T12:31:53.000Z</time>
      </trkpt>
      <trkpt lat="48.72211" lon="1.75239">
        <ele>139.39999389648</ele>
        <time>2014-05-05T12:31:56.000Z</time>
      </trkpt>
      <trkpt lat="48.72217" lon="1.75211">
        <ele>139.19999694824</ele>
        <time>2014-05-05T12:32:02.000Z</time>
      </trkpt>
      <trkpt lat="48.72223" lon="1.75188">
        <ele>138.80000305176</ele>
        <time>2014-05-05T12:32:07.000Z</time>
      </trkpt>
      <trkpt lat="48.7223" lon="1.75158">
        <ele>137.39999389648</ele>
        <time>2014-05-05T12:32:13.000Z</time>
      </trkpt>
      <trkpt lat="48.72239" lon="1.7512">
        <ele>136.39999389648</ele>
        <time>2014-05-05T12:32:20.000Z</time>
      </trkpt>
      <trkpt lat="48.72249" lon="1.75092">
        <ele>135</ele>
        <time>2014-05-05T12:32:26.000Z</time>
      </trkpt>
      <trkpt lat="48.72261" lon="1.75059">
        <ele>134.19999694824</ele>
        <time>2014-05-05T12:32:33.000Z</time>
      </trkpt>
      <trkpt lat="48.7227" lon="1.75027">
        <ele>134</ele>
        <time>2014-05-05T12:32:39.000Z</time>
      </trkpt>
      <trkpt lat="48.72275" lon="1.75004">
        <ele>134.19999694824</ele>
        <time>2014-05-05T12:32:43.000Z</time>
      </trkpt>
      <trkpt lat="48.72281" lon="1.74973">
        <ele>134.39999389648</ele>
        <time>2014-05-05T12:32:48.000Z</time>
      </trkpt>
      <trkpt lat="48.72285" lon="1.74946">
        <ele>135</ele>
        <time>2014-05-05T12:32:52.000Z</time>
      </trkpt>
      <trkpt lat="48.72294" lon="1.74914">
        <ele>135.19999694824</ele>
        <time>2014-05-05T12:32:58.000Z</time>
      </trkpt>
      <trkpt lat="48.72308" lon="1.74887">
        <ele>135.39999389648</ele>
        <time>2014-05-05T12:33:05.000Z</time>
      </trkpt>
      <trkpt lat="48.72317" lon="1.74859">
        <ele>135.80000305176</ele>
        <time>2014-05-05T12:33:11.000Z</time>
      </trkpt>
      <trkpt lat="48.72322" lon="1.7485">
        <ele>135.39999389648</ele>
        <time>2014-05-05T12:33:15.000Z</time>
      </trkpt>
      <trkpt lat="48.72323" lon="1.74849">
        <ele>135.39999389648</ele>
        <time>2014-05-05T12:33:20.000Z</time>
      </trkpt>
      <trkpt lat="48.72325" lon="1.74848">
        <ele>135.19999694824</ele>
        <time>2014-05-05T12:33:23.000Z</time>
      </trkpt>
      <trkpt lat="48.72336" lon="1.7485">
        <ele>135.39999389648</ele>
        <time>2014-05-05T12:33:29.000Z</time>
      </trkpt>
      <trkpt lat="48.72342" lon="1.74846">
        <ele>135.19999694824</ele>
        <time>2014-05-05T12:33:33.000Z</time>
      </trkpt>
      <trkpt lat="48.72349" lon="1.74844">
        <ele>135.19999694824</ele>
        <time>2014-05-05T12:33:36.000Z</time>
      </trkpt>
      <trkpt lat="48.72358" lon="1.74837">
        <ele>135</ele>
        <time>2014-05-05T12:33:43.000Z</time>
      </trkpt>
      <trkpt lat="48.72367" lon="1.74829">
        <ele>135.19999694824</ele>
        <time>2014-05-05T12:33:49.000Z</time>
      </trkpt>
      <trkpt lat="48.72379" lon="1.74825">
        <ele>135.39999389648</ele>
        <time>2014-05-05T12:33:55.000Z</time>
      </trkpt>
      <trkpt lat="48.7238" lon="1.74824">
        <ele>135.60000610352</ele>
        <time>2014-05-05T12:33:56.000Z</time>
      </trkpt>
      <trkpt lat="48.72389" lon="1.74819">
        <ele>135.60000610352</ele>
        <time>2014-05-05T12:34:02.000Z</time>
      </trkpt>
      <trkpt lat="48.72395" lon="1.74814">
        <ele>136</ele>
        <time>2014-05-05T12:34:07.000Z</time>
      </trkpt>
      <trkpt lat="48.72406" lon="1.74808">
        <ele>136.60000610352</ele>
        <time>2014-05-05T12:34:14.000Z</time>
      </trkpt>
      <trkpt lat="48.72415" lon="1.74804">
        <ele>137</ele>
        <time>2014-05-05T12:34:20.000Z</time>
      </trkpt>
      <trkpt lat="48.72427" lon="1.748">
        <ele>137.39999389648</ele>
        <time>2014-05-05T12:34:28.000Z</time>
      </trkpt>
      <trkpt lat="48.72439" lon="1.74797">
        <ele>137.80000305176</ele>
        <time>2014-05-05T12:34:36.000Z</time>
      </trkpt>
      <trkpt lat="48.72449" lon="1.74795">
        <ele>138</ele>
        <time>2014-05-05T12:34:43.000Z</time>
      </trkpt>
      <trkpt lat="48.72465" lon="1.74798">
        <ele>138.39999389648</ele>
        <time>2014-05-05T12:34:53.000Z</time>
      </trkpt>
      <trkpt lat="48.72477" lon="1.74803">
        <ele>138.80000305176</ele>
        <time>2014-05-05T12:35:01.000Z</time>
      </trkpt>
      <trkpt lat="48.72485" lon="1.74808">
        <ele>139</ele>
        <time>2014-05-05T12:35:08.000Z</time>
      </trkpt>
      <trkpt lat="48.72493" lon="1.74815">
        <ele>139.19999694824</ele>
        <time>2014-05-05T12:35:14.000Z</time>
      </trkpt>
      <trkpt lat="48.72503" lon="1.74824">
        <ele>139.80000305176</ele>
        <time>2014-05-05T12:35:21.000Z</time>
      </trkpt>
      <trkpt lat="48.72519" lon="1.74835">
        <ele>141.19999694824</ele>
        <time>2014-05-05T12:35:30.000Z</time>
      </trkpt>
      <trkpt lat="48.72531" lon="1.74842">
        <ele>141</ele>
        <time>2014-05-05T12:35:38.000Z</time>
      </trkpt>
      <trkpt lat="48.72538" lon="1.74847">
        <ele>141</ele>
        <time>2014-05-05T12:35:43.000Z</time>
      </trkpt>
      <trkpt lat="48.72545" lon="1.74851">
        <ele>140.80000305176</ele>
        <time>2014-05-05T12:35:47.000Z</time>
      </trkpt>
      <trkpt lat="48.72556" lon="1.7486">
        <ele>140.80000305176</ele>
        <time>2014-05-05T12:35:54.000Z</time>
      </trkpt>
      <trkpt lat="48.72572" lon="1.74871">
        <ele>140.60000610352</ele>
        <time>2014-05-05T12:36:05.000Z</time>
      </trkpt>
      <trkpt lat="48.72583" lon="1.74875">
        <ele>140.19999694824</ele>
        <time>2014-05-05T12:36:12.000Z</time>
      </trkpt>
      <trkpt lat="48.72593" lon="1.74874">
        <ele>139.80000305176</ele>
        <time>2014-05-05T12:36:18.000Z</time>
      </trkpt>
      <trkpt lat="48.72598" lon="1.74862">
        <ele>138.80000305176</ele>
        <time>2014-05-05T12:36:24.000Z</time>
      </trkpt>
      <trkpt lat="48.72606" lon="1.74842">
        <ele>137.39999389648</ele>
        <time>2014-05-05T12:36:33.000Z</time>
      </trkpt>
      <trkpt lat="48.72613" lon="1.74821">
        <ele>136.60000610352</ele>
        <time>2014-05-05T12:36:43.000Z</time>
      </trkpt>
      <trkpt lat="48.72619" lon="1.74803">
        <ele>136.60000610352</ele>
        <time>2014-05-05T12:36:51.000Z</time>
      </trkpt>
      <trkpt lat="48.72622" lon="1.74785">
        <ele>136.60000610352</ele>
        <time>2014-05-05T12:36:58.000Z</time>
      </trkpt>
      <trkpt lat="48.72627" lon="1.74768">
        <ele>136.80000305176</ele>
        <time>2014-05-05T12:37:05.000Z</time>
      </trkpt>
      <trkpt lat="48.72629" lon="1.74765">
        <ele>136.80000305176</ele>
        <time>2014-05-05T12:37:07.000Z</time>
      </trkpt>
      <trkpt lat="48.72634" lon="1.74752">
        <ele>136.39999389648</ele>
        <time>2014-05-05T12:37:13.000Z</time>
      </trkpt>
      <trkpt lat="48.72638" lon="1.74738">
        <ele>135.80000305176</ele>
        <time>2014-05-05T12:37:19.000Z</time>
      </trkpt>
      <trkpt lat="48.72642" lon="1.74724">
        <ele>135.60000610352</ele>
        <time>2014-05-05T12:37:25.000Z</time>
      </trkpt>
      <trkpt lat="48.72644" lon="1.74711">
        <ele>135.39999389648</ele>
        <time>2014-05-05T12:37:30.000Z</time>
      </trkpt>
      <trkpt lat="48.72647" lon="1.74704">
        <ele>135.19999694824</ele>
        <time>2014-05-05T12:37:33.000Z</time>
      </trkpt>
      <trkpt lat="48.72657" lon="1.74697">
        <ele>135.19999694824</ele>
        <time>2014-05-05T12:37:41.000Z</time>
      </trkpt>
      <trkpt lat="48.72665" lon="1.74692">
        <ele>135</ele>
        <time>2014-05-05T12:37:47.000Z</time>
      </trkpt>
      <trkpt lat="48.72667" lon="1.74692">
        <ele>135.19999694824</ele>
        <time>2014-05-05T12:37:48.000Z</time>
      </trkpt>
      <trkpt lat="48.72678" lon="1.74683">
        <ele>135</ele>
        <time>2014-05-05T12:37:55.000Z</time>
      </trkpt>
      <trkpt lat="48.7269" lon="1.74678">
        <ele>135</ele>
        <time>2014-05-05T12:38:02.000Z</time>
      </trkpt>
      <trkpt lat="48.72691" lon="1.74676">
        <ele>135</ele>
        <time>2014-05-05T12:38:04.000Z</time>
      </trkpt>
      <trkpt lat="48.72698" lon="1.74671">
        <ele>135.19999694824</ele>
        <time>2014-05-05T12:38:10.000Z</time>
      </trkpt>
      <trkpt lat="48.72699" lon="1.7467">
        <ele>135.19999694824</ele>
        <time>2014-05-05T12:38:11.000Z</time>
      </trkpt>
      <trkpt lat="48.72709" lon="1.74663">
        <ele>135.19999694824</ele>
        <time>2014-05-05T12:38:18.000Z</time>
      </trkpt>
      <trkpt lat="48.72711" lon="1.74659">
        <ele>135.19999694824</ele>
        <time>2014-05-05T12:38:21.000Z</time>
      </trkpt>
      <trkpt lat="48.72718" lon="1.74653">
        <ele>135.19999694824</ele>
        <time>2014-05-05T12:38:26.000Z</time>
      </trkpt>
      <trkpt lat="48.72727" lon="1.74644">
        <ele>135.39999389648</ele>
        <time>2014-05-05T12:38:34.000Z</time>
      </trkpt>
      <trkpt lat="48.72732" lon="1.74639">
        <ele>135.39999389648</ele>
        <time>2014-05-05T12:38:38.000Z</time>
      </trkpt>
      <trkpt lat="48.7274" lon="1.74634">
        <ele>135.60000610352</ele>
        <time>2014-05-05T12:38:44.000Z</time>
      </trkpt>
      <trkpt lat="48.7275" lon="1.74629">
        <ele>136</ele>
        <time>2014-05-05T12:38:51.000Z</time>
      </trkpt>
      <trkpt lat="48.72752" lon="1.74627">
        <ele>136</ele>
        <time>2014-05-05T12:38:53.000Z</time>
      </trkpt>
      <trkpt lat="48.72759" lon="1.7462">
        <ele>136.19999694824</ele>
        <time>2014-05-05T12:38:59.000Z</time>
      </trkpt>
      <trkpt lat="48.72761" lon="1.74619">
        <ele>136.19999694824</ele>
        <time>2014-05-05T12:39:00.000Z</time>
      </trkpt>
      <trkpt lat="48.72772" lon="1.74612">
        <ele>136.60000610352</ele>
        <time>2014-05-05T12:39:08.000Z</time>
      </trkpt>
      <trkpt lat="48.72774" lon="1.74611">
        <ele>136.60000610352</ele>
        <time>2014-05-05T12:39:09.000Z</time>
      </trkpt>
      <trkpt lat="48.72783" lon="1.74607">
        <ele>136.80000305176</ele>
        <time>2014-05-05T12:39:15.000Z</time>
      </trkpt>
      <trkpt lat="48.72792" lon="1.74604">
        <ele>137.19999694824</ele>
        <time>2014-05-05T12:39:20.000Z</time>
      </trkpt>
      <trkpt lat="48.72797" lon="1.74601">
        <ele>137.39999389648</ele>
        <time>2014-05-05T12:39:23.000Z</time>
      </trkpt>
      <trkpt lat="48.72808" lon="1.74592">
        <ele>137.80000305176</ele>
        <time>2014-05-05T12:39:30.000Z</time>
      </trkpt>
      <trkpt lat="48.72816" lon="1.74588">
        <ele>138.19999694824</ele>
        <time>2014-05-05T12:39:36.000Z</time>
      </trkpt>
      <trkpt lat="48.7282" lon="1.74586">
        <ele>138.39999389648</ele>
        <time>2014-05-05T12:39:38.000Z</time>
      </trkpt>
      <trkpt lat="48.72828" lon="1.74584">
        <ele>138.80000305176</ele>
        <time>2014-05-05T12:39:43.000Z</time>
      </trkpt>
      <trkpt lat="48.7283" lon="1.74583">
        <ele>138.80000305176</ele>
        <time>2014-05-05T12:39:44.000Z</time>
      </trkpt>
      <trkpt lat="48.7284" lon="1.74577">
        <ele>139.39999389648</ele>
        <time>2014-05-05T12:39:52.000Z</time>
      </trkpt>
      <trkpt lat="48.7285" lon="1.74572">
        <ele>139.80000305176</ele>
        <time>2014-05-05T12:39:58.000Z</time>
      </trkpt>
      <trkpt lat="48.72861" lon="1.74568">
        <ele>140.19999694824</ele>
        <time>2014-05-05T12:40:05.000Z</time>
      </trkpt>
      <trkpt lat="48.72868" lon="1.74564">
        <ele>140.39999389648</ele>
        <time>2014-05-05T12:40:10.000Z</time>
      </trkpt>
      <trkpt lat="48.72877" lon="1.74559">
        <ele>140.60000610352</ele>
        <time>2014-05-05T12:40:16.000Z</time>
      </trkpt>
      <trkpt lat="48.72886" lon="1.74556">
        <ele>140.80000305176</ele>
        <time>2014-05-05T12:40:22.000Z</time>
      </trkpt>
      <trkpt lat="48.72893" lon="1.74548">
        <ele>140.80000305176</ele>
        <time>2014-05-05T12:40:27.000Z</time>
      </trkpt>
      <trkpt lat="48.7289" lon="1.74539">
        <ele>140.60000610352</ele>
        <time>2014-05-05T12:40:33.000Z</time>
      </trkpt>
      <trkpt lat="48.72887" lon="1.74534">
        <ele>140.19999694824</ele>
        <time>2014-05-05T12:40:37.000Z</time>
      </trkpt>
      <trkpt lat="48.72882" lon="1.74521">
        <ele>139.80000305176</ele>
        <time>2014-05-05T12:40:45.000Z</time>
      </trkpt>
      <trkpt lat="48.72879" lon="1.74513">
        <ele>139.60000610352</ele>
        <time>2014-05-05T12:40:49.000Z</time>
      </trkpt>
      <trkpt lat="48.72876" lon="1.74501">
        <ele>139.39999389648</ele>
        <time>2014-05-05T12:40:55.000Z</time>
      </trkpt>
      <trkpt lat="48.72874" lon="1.74483">
        <ele>139.60000610352</ele>
        <time>2014-05-05T12:41:03.000Z</time>
      </trkpt>
      <trkpt lat="48.72871" lon="1.74474">
        <ele>139.60000610352</ele>
        <time>2014-05-05T12:41:09.000Z</time>
      </trkpt>
      <trkpt lat="48.72864" lon="1.74464">
        <ele>139.39999389648</ele>
        <time>2014-05-05T12:41:15.000Z</time>
      </trkpt>
      <trkpt lat="48.72861" lon="1.74453">
        <ele>139.39999389648</ele>
        <time>2014-05-05T12:41:21.000Z</time>
      </trkpt>
      <trkpt lat="48.72859" lon="1.74447">
        <ele>139.39999389648</ele>
        <time>2014-05-05T12:41:24.000Z</time>
      </trkpt>
      <trkpt lat="48.72859" lon="1.74442">
        <ele>139.39999389648</ele>
        <time>2014-05-05T12:41:26.000Z</time>
      </trkpt>
      <trkpt lat="48.72855" lon="1.74434">
        <ele>139.39999389648</ele>
        <time>2014-05-05T12:41:32.000Z</time>
      </trkpt>
      <trkpt lat="48.72851" lon="1.74426">
        <ele>139.60000610352</ele>
        <time>2014-05-05T12:41:36.000Z</time>
      </trkpt>
      <trkpt lat="48.7285" lon="1.74418">
        <ele>139.80000305176</ele>
        <time>2014-05-05T12:41:40.000Z</time>
      </trkpt>
      <trkpt lat="48.72844" lon="1.74406">
        <ele>140.19999694824</ele>
        <time>2014-05-05T12:41:47.000Z</time>
      </trkpt>
      <trkpt lat="48.72835" lon="1.74389">
        <ele>140.19999694824</ele>
        <time>2014-05-05T12:41:55.000Z</time>
      </trkpt>
      <trkpt lat="48.72831" lon="1.74378">
        <ele>140.39999389648</ele>
        <time>2014-05-05T12:42:00.000Z</time>
      </trkpt>
      <trkpt lat="48.72826" lon="1.74364">
        <ele>140.60000610352</ele>
        <time>2014-05-05T12:42:06.000Z</time>
      </trkpt>
      <trkpt lat="48.72823" lon="1.74351">
        <ele>141</ele>
        <time>2014-05-05T12:42:12.000Z</time>
      </trkpt>
      <trkpt lat="48.72822" lon="1.74336">
        <ele>141.19999694824</ele>
        <time>2014-05-05T12:42:19.000Z</time>
      </trkpt>
      <trkpt lat="48.72821" lon="1.7433">
        <ele>141.39999389648</ele>
        <time>2014-05-05T12:42:22.000Z</time>
      </trkpt>
      <trkpt lat="48.7282" lon="1.74325">
        <ele>141.39999389648</ele>
        <time>2014-05-05T12:42:24.000Z</time>
      </trkpt>
      <trkpt lat="48.72815" lon="1.74309">
        <ele>141.19999694824</ele>
        <time>2014-05-05T12:42:32.000Z</time>
      </trkpt>
      <trkpt lat="48.72812" lon="1.743">
        <ele>141</ele>
        <time>2014-05-05T12:42:36.000Z</time>
      </trkpt>
      <trkpt lat="48.72811" lon="1.74292">
        <ele>140.80000305176</ele>
        <time>2014-05-05T12:42:40.000Z</time>
      </trkpt>
      <trkpt lat="48.72809" lon="1.74283">
        <ele>140.60000610352</ele>
        <time>2014-05-05T12:42:44.000Z</time>
      </trkpt>
      <trkpt lat="48.72807" lon="1.74268">
        <ele>140.39999389648</ele>
        <time>2014-05-05T12:42:50.000Z</time>
      </trkpt>
      <trkpt lat="48.72806" lon="1.74258">
        <ele>140.19999694824</ele>
        <time>2014-05-05T12:42:55.000Z</time>
      </trkpt>
      <trkpt lat="48.72804" lon="1.74254">
        <ele>140.19999694824</ele>
        <time>2014-05-05T12:42:57.000Z</time>
      </trkpt>
      <trkpt lat="48.72802" lon="1.74248">
        <ele>140.19999694824</ele>
        <time>2014-05-05T12:43:00.000Z</time>
      </trkpt>
      <trkpt lat="48.72801" lon="1.74239">
        <ele>140</ele>
        <time>2014-05-05T12:43:04.000Z</time>
      </trkpt>
      <trkpt lat="48.728" lon="1.74222">
        <ele>139.80000305176</ele>
        <time>2014-05-05T12:43:10.000Z</time>
      </trkpt>
      <trkpt lat="48.72795" lon="1.74204">
        <ele>139.39999389648</ele>
        <time>2014-05-05T12:43:17.000Z</time>
      </trkpt>
      <trkpt lat="48.72792" lon="1.74195">
        <ele>139.19999694824</ele>
        <time>2014-05-05T12:43:21.000Z</time>
      </trkpt>
      <trkpt lat="48.7279" lon="1.74187">
        <ele>139</ele>
        <time>2014-05-05T12:43:26.000Z</time>
      </trkpt>
      <trkpt lat="48.72787" lon="1.74174">
        <ele>138.80000305176</ele>
        <time>2014-05-05T12:43:32.000Z</time>
      </trkpt>
      <trkpt lat="48.72785" lon="1.74167">
        <ele>138.60000610352</ele>
        <time>2014-05-05T12:43:35.000Z</time>
      </trkpt>
      <trkpt lat="48.72784" lon="1.74162">
        <ele>138.60000610352</ele>
        <time>2014-05-05T12:43:37.000Z</time>
      </trkpt>
      <trkpt lat="48.72781" lon="1.74149">
        <ele>138.19999694824</ele>
        <time>2014-05-05T12:43:42.000Z</time>
      </trkpt>
      <trkpt lat="48.72779" lon="1.74136">
        <ele>138.19999694824</ele>
        <time>2014-05-05T12:43:47.000Z</time>
      </trkpt>
      <trkpt lat="48.72778" lon="1.74132">
        <ele>138.19999694824</ele>
        <time>2014-05-05T12:43:49.000Z</time>
      </trkpt>
      <trkpt lat="48.72776" lon="1.7412">
        <ele>138.19999694824</ele>
        <time>2014-05-05T12:43:54.000Z</time>
      </trkpt>
      <trkpt lat="48.72773" lon="1.74104">
        <ele>138</ele>
        <time>2014-05-05T12:44:00.000Z</time>
      </trkpt>
      <trkpt lat="48.72773" lon="1.741">
        <ele>138</ele>
        <time>2014-05-05T12:44:02.000Z</time>
      </trkpt>
      <trkpt lat="48.72772" lon="1.74089">
        <ele>138</ele>
        <time>2014-05-05T12:44:07.000Z</time>
      </trkpt>
      <trkpt lat="48.72769" lon="1.74083">
        <ele>138</ele>
        <time>2014-05-05T12:44:09.000Z</time>
      </trkpt>
      <trkpt lat="48.72764" lon="1.74064">
        <ele>137.80000305176</ele>
        <time>2014-05-05T12:44:17.000Z</time>
      </trkpt>
      <trkpt lat="48.7276" lon="1.74052">
        <ele>137.80000305176</ele>
        <time>2014-05-05T12:44:23.000Z</time>
      </trkpt>
      <trkpt lat="48.72754" lon="1.74034">
        <ele>137.60000610352</ele>
        <time>2014-05-05T12:44:31.000Z</time>
      </trkpt>
      <trkpt lat="48.7275" lon="1.74018">
        <ele>137.60000610352</ele>
        <time>2014-05-05T12:44:38.000Z</time>
      </trkpt>
      <trkpt lat="48.72743" lon="1.73999">
        <ele>137.39999389648</ele>
        <time>2014-05-05T12:44:46.000Z</time>
      </trkpt>
      <trkpt lat="48.72739" lon="1.73983">
        <ele>137.19999694824</ele>
        <time>2014-05-05T12:44:53.000Z</time>
      </trkpt>
      <trkpt lat="48.72736" lon="1.73973">
        <ele>137.19999694824</ele>
        <time>2014-05-05T12:44:57.000Z</time>
      </trkpt>
      <trkpt lat="48.72733" lon="1.7396">
        <ele>137.19999694824</ele>
        <time>2014-05-05T12:45:03.000Z</time>
      </trkpt>
      <trkpt lat="48.72731" lon="1.73953">
        <ele>137</ele>
        <time>2014-05-05T12:45:07.000Z</time>
      </trkpt>
      <trkpt lat="48.72727" lon="1.73941">
        <ele>136.80000305176</ele>
        <time>2014-05-05T12:45:13.000Z</time>
      </trkpt>
      <trkpt lat="48.72723" lon="1.73927">
        <ele>136.39999389648</ele>
        <time>2014-05-05T12:45:19.000Z</time>
      </trkpt>
      <trkpt lat="48.72721" lon="1.73922">
        <ele>136.19999694824</ele>
        <time>2014-05-05T12:45:22.000Z</time>
      </trkpt>
      <trkpt lat="48.72717" lon="1.73912">
        <ele>136</ele>
        <time>2014-05-05T12:45:27.000Z</time>
      </trkpt>
      <trkpt lat="48.72715" lon="1.73903">
        <ele>135.60000610352</ele>
        <time>2014-05-05T12:45:31.000Z</time>
      </trkpt>
      <trkpt lat="48.72715" lon="1.73896">
        <ele>135.19999694824</ele>
        <time>2014-05-05T12:45:35.000Z</time>
      </trkpt>
      <trkpt lat="48.7271" lon="1.73884">
        <ele>134.80000305176</ele>
        <time>2014-05-05T12:45:41.000Z</time>
      </trkpt>
      <trkpt lat="48.72704" lon="1.73863">
        <ele>133.80000305176</ele>
        <time>2014-05-05T12:45:50.000Z</time>
      </trkpt>
      <trkpt lat="48.72695" lon="1.73847">
        <ele>133.19999694824</ele>
        <time>2014-05-05T12:45:58.000Z</time>
      </trkpt>
      <trkpt lat="48.72691" lon="1.73839">
        <ele>132.80000305176</ele>
        <time>2014-05-05T12:46:03.000Z</time>
      </trkpt>
      <trkpt lat="48.72688" lon="1.73828">
        <ele>132.39999389648</ele>
        <time>2014-05-05T12:46:09.000Z</time>
      </trkpt>
      <trkpt lat="48.72683" lon="1.73814">
        <ele>132</ele>
        <time>2014-05-05T12:46:16.000Z</time>
      </trkpt>
      <trkpt lat="48.72677" lon="1.73803">
        <ele>131.80000305176</ele>
        <time>2014-05-05T12:46:21.000Z</time>
      </trkpt>
      <trkpt lat="48.72673" lon="1.73794">
        <ele>131.60000610352</ele>
        <time>2014-05-05T12:46:26.000Z</time>
      </trkpt>
      <trkpt lat="48.7267" lon="1.7379">
        <ele>131.60000610352</ele>
        <time>2014-05-05T12:46:28.000Z</time>
      </trkpt>
      <trkpt lat="48.72664" lon="1.73775">
        <ele>131.39999389648</ele>
        <time>2014-05-05T12:46:35.000Z</time>
      </trkpt>
      <trkpt lat="48.72657" lon="1.7376">
        <ele>131.19999694824</ele>
        <time>2014-05-05T12:46:43.000Z</time>
      </trkpt>
      <trkpt lat="48.72654" lon="1.73754">
        <ele>131.19999694824</ele>
        <time>2014-05-05T12:46:46.000Z</time>
      </trkpt>
      <trkpt lat="48.7265" lon="1.73746">
        <ele>131.19999694824</ele>
        <time>2014-05-05T12:46:53.000Z</time>
      </trkpt>
      <trkpt lat="48.7265" lon="1.73746">
        <ele>131.19999694824</ele>
        <time>2014-05-05T12:46:54.000Z</time>
      </trkpt>
      <trkpt lat="48.72646" lon="1.73739">
        <ele>131</ele>
        <time>2014-05-05T12:47:13.000Z</time>
      </trkpt>
      <trkpt lat="48.72641" lon="1.7373">
        <ele>130.80000305176</ele>
        <time>2014-05-05T12:47:17.000Z</time>
      </trkpt>
      <trkpt lat="48.72636" lon="1.7372">
        <ele>130.60000610352</ele>
        <time>2014-05-05T12:47:22.000Z</time>
      </trkpt>
      <trkpt lat="48.72628" lon="1.73711">
        <ele>130.39999389648</ele>
        <time>2014-05-05T12:47:28.000Z</time>
      </trkpt>
      <trkpt lat="48.72625" lon="1.73692">
        <ele>130</ele>
        <time>2014-05-05T12:47:35.000Z</time>
      </trkpt>
      <trkpt lat="48.72619" lon="1.73672">
        <ele>129.39999389648</ele>
        <time>2014-05-05T12:47:42.000Z</time>
      </trkpt>
      <trkpt lat="48.72617" lon="1.73658">
        <ele>129.19999694824</ele>
        <time>2014-05-05T12:47:48.000Z</time>
      </trkpt>
      <trkpt lat="48.72615" lon="1.73653">
        <ele>129.19999694824</ele>
        <time>2014-05-05T12:47:51.000Z</time>
      </trkpt>
      <trkpt lat="48.72611" lon="1.73636">
        <ele>128.80000305176</ele>
        <time>2014-05-05T12:47:58.000Z</time>
      </trkpt>
      <trkpt lat="48.72608" lon="1.73624">
        <ele>128.60000610352</ele>
        <time>2014-05-05T12:48:04.000Z</time>
      </trkpt>
      <trkpt lat="48.72602" lon="1.73611">
        <ele>128.39999389648</ele>
        <time>2014-05-05T12:48:11.000Z</time>
      </trkpt>
      <trkpt lat="48.72598" lon="1.73601">
        <ele>128.39999389648</ele>
        <time>2014-05-05T12:48:16.000Z</time>
      </trkpt>
      <trkpt lat="48.72596" lon="1.73597">
        <ele>128.39999389648</ele>
        <time>2014-05-05T12:48:18.000Z</time>
      </trkpt>
      <trkpt lat="48.72592" lon="1.73582">
        <ele>128.19999694824</ele>
        <time>2014-05-05T12:48:25.000Z</time>
      </trkpt>
      <trkpt lat="48.72587" lon="1.73572">
        <ele>128</ele>
        <time>2014-05-05T12:48:32.000Z</time>
      </trkpt>
      <trkpt lat="48.72581" lon="1.73558">
        <ele>128</ele>
        <time>2014-05-05T12:48:39.000Z</time>
      </trkpt>
      <trkpt lat="48.72575" lon="1.73541">
        <ele>128</ele>
        <time>2014-05-05T12:48:47.000Z</time>
      </trkpt>
      <trkpt lat="48.72569" lon="1.7353">
        <ele>128</ele>
        <time>2014-05-05T12:48:53.000Z</time>
      </trkpt>
      <trkpt lat="48.72568" lon="1.73528">
        <ele>128</ele>
        <time>2014-05-05T12:48:55.000Z</time>
      </trkpt>
      <trkpt lat="48.7256" lon="1.73521">
        <ele>128</ele>
        <time>2014-05-05T12:49:00.000Z</time>
      </trkpt>
      <trkpt lat="48.72558" lon="1.73513">
        <ele>127.80000305176</ele>
        <time>2014-05-05T12:49:03.000Z</time>
      </trkpt>
      <trkpt lat="48.72555" lon="1.73496">
        <ele>127.59999847412</ele>
        <time>2014-05-05T12:49:10.000Z</time>
      </trkpt>
      <trkpt lat="48.72551" lon="1.73479">
        <ele>127.80000305176</ele>
        <time>2014-05-05T12:49:17.000Z</time>
      </trkpt>
      <trkpt lat="48.72546" lon="1.73468">
        <ele>128</ele>
        <time>2014-05-05T12:49:22.000Z</time>
      </trkpt>
      <trkpt lat="48.72539" lon="1.73459">
        <ele>128.19999694824</ele>
        <time>2014-05-05T12:49:28.000Z</time>
      </trkpt>
      <trkpt lat="48.72532" lon="1.73457">
        <ele>128.19999694824</ele>
        <time>2014-05-05T12:49:33.000Z</time>
      </trkpt>
      <trkpt lat="48.72526" lon="1.73455">
        <ele>128.39999389648</ele>
        <time>2014-05-05T12:49:37.000Z</time>
      </trkpt>
      <trkpt lat="48.72514" lon="1.73451">
        <ele>128.19999694824</ele>
        <time>2014-05-05T12:49:44.000Z</time>
      </trkpt>
      <trkpt lat="48.72501" lon="1.73449">
        <ele>127.80000305176</ele>
        <time>2014-05-05T12:49:52.000Z</time>
      </trkpt>
      <trkpt lat="48.72499" lon="1.73449">
        <ele>127.59999847412</ele>
        <time>2014-05-05T12:49:53.000Z</time>
      </trkpt>
      <trkpt lat="48.72486" lon="1.73448">
        <ele>127.19999694824</ele>
        <time>2014-05-05T12:50:01.000Z</time>
      </trkpt>
      <trkpt lat="48.72476" lon="1.73446">
        <ele>127</ele>
        <time>2014-05-05T12:50:08.000Z</time>
      </trkpt>
      <trkpt lat="48.72467" lon="1.73446">
        <ele>126.80000305176</ele>
        <time>2014-05-05T12:50:13.000Z</time>
      </trkpt>
      <trkpt lat="48.72459" lon="1.73445">
        <ele>126.59999847412</ele>
        <time>2014-05-05T12:50:18.000Z</time>
      </trkpt>
      <trkpt lat="48.72457" lon="1.73444">
        <ele>126.40000152588</ele>
        <time>2014-05-05T12:50:19.000Z</time>
      </trkpt>
      <trkpt lat="48.72448" lon="1.73444">
        <ele>126.19999694824</ele>
        <time>2014-05-05T12:50:25.000Z</time>
      </trkpt>
      <trkpt lat="48.72438" lon="1.7344">
        <ele>126</ele>
        <time>2014-05-05T12:50:31.000Z</time>
      </trkpt>
      <trkpt lat="48.72434" lon="1.7344">
        <ele>126</ele>
        <time>2014-05-05T12:50:33.000Z</time>
      </trkpt>
      <trkpt lat="48.72427" lon="1.73437">
        <ele>126.19999694824</ele>
        <time>2014-05-05T12:50:38.000Z</time>
      </trkpt>
      <trkpt lat="48.72419" lon="1.73434">
        <ele>126.40000152588</ele>
        <time>2014-05-05T12:50:44.000Z</time>
      </trkpt>
      <trkpt lat="48.72412" lon="1.73431">
        <ele>126.59999847412</ele>
        <time>2014-05-05T12:50:49.000Z</time>
      </trkpt>
      <trkpt lat="48.72403" lon="1.73429">
        <ele>126.80000305176</ele>
        <time>2014-05-05T12:50:55.000Z</time>
      </trkpt>
      <trkpt lat="48.72393" lon="1.7343">
        <ele>127</ele>
        <time>2014-05-05T12:51:01.000Z</time>
      </trkpt>
      <trkpt lat="48.72384" lon="1.73426">
        <ele>127.19999694824</ele>
        <time>2014-05-05T12:51:06.000Z</time>
      </trkpt>
      <trkpt lat="48.72376" lon="1.73424">
        <ele>127.40000152588</ele>
        <time>2014-05-05T12:51:11.000Z</time>
      </trkpt>
      <trkpt lat="48.72368" lon="1.73423">
        <ele>127.59999847412</ele>
        <time>2014-05-05T12:51:16.000Z</time>
      </trkpt>
      <trkpt lat="48.72361" lon="1.7342">
        <ele>127.80000305176</ele>
        <time>2014-05-05T12:51:23.000Z</time>
      </trkpt>
      <trkpt lat="48.72349" lon="1.73418">
        <ele>128</ele>
        <time>2014-05-05T12:51:29.000Z</time>
      </trkpt>
      <trkpt lat="48.72337" lon="1.73416">
        <ele>128</ele>
        <time>2014-05-05T12:51:37.000Z</time>
      </trkpt>
      <trkpt lat="48.72322" lon="1.73417">
        <ele>128</ele>
        <time>2014-05-05T12:51:45.000Z</time>
      </trkpt>
      <trkpt lat="48.72319" lon="1.73417">
        <ele>128</ele>
        <time>2014-05-05T12:51:47.000Z</time>
      </trkpt>
      <trkpt lat="48.72312" lon="1.73414">
        <ele>128</ele>
        <time>2014-05-05T12:51:53.000Z</time>
      </trkpt>
      <trkpt lat="48.72304" lon="1.7341">
        <ele>128</ele>
        <time>2014-05-05T12:51:59.000Z</time>
      </trkpt>
      <trkpt lat="48.72296" lon="1.73406">
        <ele>128</ele>
        <time>2014-05-05T12:52:04.000Z</time>
      </trkpt>
      <trkpt lat="48.72287" lon="1.73405">
        <ele>128</ele>
        <time>2014-05-05T12:52:11.000Z</time>
      </trkpt>
      <trkpt lat="48.7228" lon="1.73404">
        <ele>128</ele>
        <time>2014-05-05T12:52:15.000Z</time>
      </trkpt>
      <trkpt lat="48.72274" lon="1.73398">
        <ele>128</ele>
        <time>2014-05-05T12:52:21.000Z</time>
      </trkpt>
      <trkpt lat="48.72272" lon="1.73398">
        <ele>128</ele>
        <time>2014-05-05T12:52:22.000Z</time>
      </trkpt>
      <trkpt lat="48.72262" lon="1.73393">
        <ele>127.59999847412</ele>
        <time>2014-05-05T12:52:29.000Z</time>
      </trkpt>
      <trkpt lat="48.72259" lon="1.73394">
        <ele>127.59999847412</ele>
        <time>2014-05-05T12:52:31.000Z</time>
      </trkpt>
      <trkpt lat="48.72248" lon="1.73392">
        <ele>127.40000152588</ele>
        <time>2014-05-05T12:52:38.000Z</time>
      </trkpt>
      <trkpt lat="48.72239" lon="1.73391">
        <ele>127.40000152588</ele>
        <time>2014-05-05T12:52:43.000Z</time>
      </trkpt>
      <trkpt lat="48.72231" lon="1.73395">
        <ele>127.40000152588</ele>
        <time>2014-05-05T12:52:49.000Z</time>
      </trkpt>
      <trkpt lat="48.72224" lon="1.73395">
        <ele>127.19999694824</ele>
        <time>2014-05-05T12:52:55.000Z</time>
      </trkpt>
      <trkpt lat="48.72214" lon="1.73398">
        <ele>127.19999694824</ele>
        <time>2014-05-05T12:53:01.000Z</time>
      </trkpt>
      <trkpt lat="48.7221" lon="1.73397">
        <ele>127.19999694824</ele>
        <time>2014-05-05T12:53:04.000Z</time>
      </trkpt>
      <trkpt lat="48.72204" lon="1.73396">
        <ele>127</ele>
        <time>2014-05-05T12:53:08.000Z</time>
      </trkpt>
      <trkpt lat="48.72201" lon="1.73396">
        <ele>127</ele>
        <time>2014-05-05T12:53:10.000Z</time>
      </trkpt>
      <trkpt lat="48.72193" lon="1.73399">
        <ele>127</ele>
        <time>2014-05-05T12:53:16.000Z</time>
      </trkpt>
      <trkpt lat="48.7219" lon="1.73401">
        <ele>127</ele>
        <time>2014-05-05T12:53:19.000Z</time>
      </trkpt>
      <trkpt lat="48.72186" lon="1.734">
        <ele>127</ele>
        <time>2014-05-05T12:53:22.000Z</time>
      </trkpt>
      <trkpt lat="48.72181" lon="1.73401">
        <ele>127.19999694824</ele>
        <time>2014-05-05T12:53:25.000Z</time>
      </trkpt>
      <trkpt lat="48.72176" lon="1.73393">
        <ele>127.19999694824</ele>
        <time>2014-05-05T12:53:31.000Z</time>
      </trkpt>
      <trkpt lat="48.72171" lon="1.73392">
        <ele>127.40000152588</ele>
        <time>2014-05-05T12:53:35.000Z</time>
      </trkpt>
      <trkpt lat="48.72162" lon="1.7339">
        <ele>127.59999847412</ele>
        <time>2014-05-05T12:53:41.000Z</time>
      </trkpt>
      <trkpt lat="48.72156" lon="1.73392">
        <ele>127.80000305176</ele>
        <time>2014-05-05T12:53:46.000Z</time>
      </trkpt>
      <trkpt lat="48.72149" lon="1.73394">
        <ele>128.19999694824</ele>
        <time>2014-05-05T12:53:52.000Z</time>
      </trkpt>
      <trkpt lat="48.72139" lon="1.73396">
        <ele>128.60000610352</ele>
        <time>2014-05-05T12:53:59.000Z</time>
      </trkpt>
      <trkpt lat="48.72135" lon="1.73402">
        <ele>128.80000305176</ele>
        <time>2014-05-05T12:54:03.000Z</time>
      </trkpt>
      <trkpt lat="48.72127" lon="1.73405">
        <ele>129.19999694824</ele>
        <time>2014-05-05T12:54:09.000Z</time>
      </trkpt>
      <trkpt lat="48.72125" lon="1.73404">
        <ele>129.19999694824</ele>
        <time>2014-05-05T12:54:10.000Z</time>
      </trkpt>
      <trkpt lat="48.7212" lon="1.73404">
        <ele>129.39999389648</ele>
        <time>2014-05-05T12:54:13.000Z</time>
      </trkpt>
      <trkpt lat="48.72113" lon="1.73411">
        <ele>129.60000610352</ele>
        <time>2014-05-05T12:54:18.000Z</time>
      </trkpt>
      <trkpt lat="48.72104" lon="1.73415">
        <ele>129.80000305176</ele>
        <time>2014-05-05T12:54:24.000Z</time>
      </trkpt>
      <trkpt lat="48.72103" lon="1.73415">
        <ele>129.80000305176</ele>
        <time>2014-05-05T12:54:25.000Z</time>
      </trkpt>
      <trkpt lat="48.72089" lon="1.73415">
        <ele>129.80000305176</ele>
        <time>2014-05-05T12:54:33.000Z</time>
      </trkpt>
      <trkpt lat="48.72083" lon="1.73417">
        <ele>129.80000305176</ele>
        <time>2014-05-05T12:54:37.000Z</time>
      </trkpt>
      <trkpt lat="48.72074" lon="1.73419">
        <ele>129.80000305176</ele>
        <time>2014-05-05T12:54:43.000Z</time>
      </trkpt>
      <trkpt lat="48.72066" lon="1.73421">
        <ele>129.80000305176</ele>
        <time>2014-05-05T12:54:48.000Z</time>
      </trkpt>
      <trkpt lat="48.72058" lon="1.73419">
        <ele>129.80000305176</ele>
        <time>2014-05-05T12:54:53.000Z</time>
      </trkpt>
      <trkpt lat="48.72049" lon="1.73421">
        <ele>129.80000305176</ele>
        <time>2014-05-05T12:54:59.000Z</time>
      </trkpt>
      <trkpt lat="48.72042" lon="1.73422">
        <ele>129.80000305176</ele>
        <time>2014-05-05T12:55:04.000Z</time>
      </trkpt>
      <trkpt lat="48.72035" lon="1.73428">
        <ele>130</ele>
        <time>2014-05-05T12:55:10.000Z</time>
      </trkpt>
      <trkpt lat="48.72033" lon="1.73431">
        <ele>130.19999694824</ele>
        <time>2014-05-05T12:55:12.000Z</time>
      </trkpt>
      <trkpt lat="48.72026" lon="1.73432">
        <ele>130.39999389648</ele>
        <time>2014-05-05T12:55:16.000Z</time>
      </trkpt>
      <trkpt lat="48.72015" lon="1.73435">
        <ele>130.80000305176</ele>
        <time>2014-05-05T12:55:23.000Z</time>
      </trkpt>
      <trkpt lat="48.72007" lon="1.73437">
        <ele>130.80000305176</ele>
        <time>2014-05-05T12:55:28.000Z</time>
      </trkpt>
      <trkpt lat="48.71995" lon="1.7344">
        <ele>130.80000305176</ele>
        <time>2014-05-05T12:55:35.000Z</time>
      </trkpt>
      <trkpt lat="48.71982" lon="1.73445">
        <ele>131</ele>
        <time>2014-05-05T12:55:44.000Z</time>
      </trkpt>
      <trkpt lat="48.71972" lon="1.73446">
        <ele>131</ele>
        <time>2014-05-05T12:55:51.000Z</time>
      </trkpt>
      <trkpt lat="48.71957" lon="1.73447">
        <ele>131</ele>
        <time>2014-05-05T12:56:01.000Z</time>
      </trkpt>
      <trkpt lat="48.71949" lon="1.73449">
        <ele>131</ele>
        <time>2014-05-05T12:56:07.000Z</time>
      </trkpt>
      <trkpt lat="48.71941" lon="1.73451">
        <ele>131.19999694824</ele>
        <time>2014-05-05T12:56:11.000Z</time>
      </trkpt>
      <trkpt lat="48.71934" lon="1.73453">
        <ele>131.19999694824</ele>
        <time>2014-05-05T12:56:16.000Z</time>
      </trkpt>
      <trkpt lat="48.71922" lon="1.73455">
        <ele>131.60000610352</ele>
        <time>2014-05-05T12:56:23.000Z</time>
      </trkpt>
      <trkpt lat="48.71914" lon="1.73456">
        <ele>131.80000305176</ele>
        <time>2014-05-05T12:56:29.000Z</time>
      </trkpt>
      <trkpt lat="48.71905" lon="1.73459">
        <ele>132.19999694824</ele>
        <time>2014-05-05T12:56:37.000Z</time>
      </trkpt>
      <trkpt lat="48.71895" lon="1.73462">
        <ele>132.39999389648</ele>
        <time>2014-05-05T12:56:43.000Z</time>
      </trkpt>
      <trkpt lat="48.71885" lon="1.73464">
        <ele>132.60000610352</ele>
        <time>2014-05-05T12:56:50.000Z</time>
      </trkpt>
      <trkpt lat="48.71873" lon="1.73466">
        <ele>133</ele>
        <time>2014-05-05T12:56:58.000Z</time>
      </trkpt>
      <trkpt lat="48.71871" lon="1.73467">
        <ele>133.19999694824</ele>
        <time>2014-05-05T12:56:59.000Z</time>
      </trkpt>
      <trkpt lat="48.7186" lon="1.73467">
        <ele>133.39999389648</ele>
        <time>2014-05-05T12:57:06.000Z</time>
      </trkpt>
      <trkpt lat="48.71854" lon="1.7347">
        <ele>133.60000610352</ele>
        <time>2014-05-05T12:57:09.000Z</time>
      </trkpt>
      <trkpt lat="48.71843" lon="1.73471">
        <ele>134.19999694824</ele>
        <time>2014-05-05T12:57:17.000Z</time>
      </trkpt>
      <trkpt lat="48.71832" lon="1.73474">
        <ele>134.80000305176</ele>
        <time>2014-05-05T12:57:23.000Z</time>
      </trkpt>
      <trkpt lat="48.71819" lon="1.73479">
        <ele>135.19999694824</ele>
        <time>2014-05-05T12:57:32.000Z</time>
      </trkpt>
      <trkpt lat="48.71809" lon="1.7348">
        <ele>135.60000610352</ele>
        <time>2014-05-05T12:57:38.000Z</time>
      </trkpt>
      <trkpt lat="48.71797" lon="1.73482">
        <ele>136</ele>
        <time>2014-05-05T12:57:46.000Z</time>
      </trkpt>
      <trkpt lat="48.71795" lon="1.73483">
        <ele>136.19999694824</ele>
        <time>2014-05-05T12:57:47.000Z</time>
      </trkpt>
      <trkpt lat="48.71784" lon="1.73488">
        <ele>136.60000610352</ele>
        <time>2014-05-05T12:57:53.000Z</time>
      </trkpt>
      <trkpt lat="48.71777" lon="1.73492">
        <ele>136.80000305176</ele>
        <time>2014-05-05T12:57:58.000Z</time>
      </trkpt>
      <trkpt lat="48.71776" lon="1.73494">
        <ele>137</ele>
        <time>2014-05-05T12:57:59.000Z</time>
      </trkpt>
      <trkpt lat="48.71773" lon="1.73505">
        <ele>137.60000610352</ele>
        <time>2014-05-05T12:58:05.000Z</time>
      </trkpt>
      <trkpt lat="48.71772" lon="1.7352">
        <ele>138.19999694824</ele>
        <time>2014-05-05T12:58:12.000Z</time>
      </trkpt>
      <trkpt lat="48.7177" lon="1.73529">
        <ele>138.60000610352</ele>
        <time>2014-05-05T12:58:16.000Z</time>
      </trkpt>
      <trkpt lat="48.71772" lon="1.73547">
        <ele>139</ele>
        <time>2014-05-05T12:58:24.000Z</time>
      </trkpt>
      <trkpt lat="48.71775" lon="1.7356">
        <ele>139.39999389648</ele>
        <time>2014-05-05T12:58:30.000Z</time>
      </trkpt>
      <trkpt lat="48.71776" lon="1.73565">
        <ele>139.60000610352</ele>
        <time>2014-05-05T12:58:32.000Z</time>
      </trkpt>
      <trkpt lat="48.7178" lon="1.73586">
        <ele>139.80000305176</ele>
        <time>2014-05-05T12:58:41.000Z</time>
      </trkpt>
      <trkpt lat="48.71781" lon="1.73596">
        <ele>139.80000305176</ele>
        <time>2014-05-05T12:58:46.000Z</time>
      </trkpt>
      <trkpt lat="48.71782" lon="1.73613">
        <ele>139.80000305176</ele>
        <time>2014-05-05T12:58:53.000Z</time>
      </trkpt>
      <trkpt lat="48.71783" lon="1.73627">
        <ele>139.60000610352</ele>
        <time>2014-05-05T12:58:59.000Z</time>
      </trkpt>
      <trkpt lat="48.71782" lon="1.73643">
        <ele>139.80000305176</ele>
        <time>2014-05-05T12:59:06.000Z</time>
      </trkpt>
      <trkpt lat="48.71783" lon="1.73659">
        <ele>139.60000610352</ele>
        <time>2014-05-05T12:59:13.000Z</time>
      </trkpt>
      <trkpt lat="48.71784" lon="1.73663">
        <ele>139.60000610352</ele>
        <time>2014-05-05T12:59:17.000Z</time>
      </trkpt>
      <trkpt lat="48.71787" lon="1.7367">
        <ele>139.39999389648</ele>
        <time>2014-05-05T12:59:30.000Z</time>
      </trkpt>
      <trkpt lat="48.7179" lon="1.73682">
        <ele>139</ele>
        <time>2014-05-05T12:59:35.000Z</time>
      </trkpt>
      <trkpt lat="48.71792" lon="1.73692">
        <ele>138.60000610352</ele>
        <time>2014-05-05T12:59:39.000Z</time>
      </trkpt>
      <trkpt lat="48.71794" lon="1.73708">
        <ele>138</ele>
        <time>2014-05-05T12:59:46.000Z</time>
      </trkpt>
      <trkpt lat="48.71798" lon="1.73728">
        <ele>137.39999389648</ele>
        <time>2014-05-05T12:59:55.000Z</time>
      </trkpt>
      <trkpt lat="48.71801" lon="1.73745">
        <ele>137</ele>
        <time>2014-05-05T13:00:03.000Z</time>
      </trkpt>
      <trkpt lat="48.71805" lon="1.73764">
        <ele>137</ele>
        <time>2014-05-05T13:00:11.000Z</time>
      </trkpt>
      <trkpt lat="48.71808" lon="1.73774">
        <ele>137</ele>
        <time>2014-05-05T13:00:16.000Z</time>
      </trkpt>
      <trkpt lat="48.71816" lon="1.73798">
        <ele>136.80000305176</ele>
        <time>2014-05-05T13:00:26.000Z</time>
      </trkpt>
      <trkpt lat="48.71822" lon="1.73822">
        <ele>136.60000610352</ele>
        <time>2014-05-05T13:00:31.000Z</time>
      </trkpt>
      <trkpt lat="48.71831" lon="1.73852">
        <ele>136.39999389648</ele>
        <time>2014-05-05T13:00:37.000Z</time>
      </trkpt>
      <trkpt lat="48.71837" lon="1.73872">
        <ele>136.19999694824</ele>
        <time>2014-05-05T13:00:41.000Z</time>
      </trkpt>
      <trkpt lat="48.71845" lon="1.73899">
        <ele>136.19999694824</ele>
        <time>2014-05-05T13:00:46.000Z</time>
      </trkpt>
      <trkpt lat="48.71853" lon="1.73927">
        <ele>137</ele>
        <time>2014-05-05T13:00:51.000Z</time>
      </trkpt>
      <trkpt lat="48.71864" lon="1.73956">
        <ele>137.39999389648</ele>
        <time>2014-05-05T13:00:56.000Z</time>
      </trkpt>
      <trkpt lat="48.71877" lon="1.74002">
        <ele>138.19999694824</ele>
        <time>2014-05-05T13:01:04.000Z</time>
      </trkpt>
      <trkpt lat="48.71889" lon="1.74045">
        <ele>139.60000610352</ele>
        <time>2014-05-05T13:01:12.000Z</time>
      </trkpt>
      <trkpt lat="48.71898" lon="1.74072">
        <ele>140.19999694824</ele>
        <time>2014-05-05T13:01:17.000Z</time>
      </trkpt>
      <trkpt lat="48.71904" lon="1.7409">
        <ele>139.60000610352</ele>
        <time>2014-05-05T13:01:20.000Z</time>
      </trkpt>
      <trkpt lat="48.71916" lon="1.74127">
        <ele>138.19999694824</ele>
        <time>2014-05-05T13:01:25.000Z</time>
      </trkpt>
      <trkpt lat="48.71929" lon="1.74167">
        <ele>137.39999389648</ele>
        <time>2014-05-05T13:01:32.000Z</time>
      </trkpt>
      <trkpt lat="48.71934" lon="1.74183">
        <ele>138</ele>
        <time>2014-05-05T13:01:35.000Z</time>
      </trkpt>
      <trkpt lat="48.71943" lon="1.74216">
        <ele>139.60000610352</ele>
        <time>2014-05-05T13:01:41.000Z</time>
      </trkpt>
      <trkpt lat="48.71955" lon="1.74254">
        <ele>140.60000610352</ele>
        <time>2014-05-05T13:01:48.000Z</time>
      </trkpt>
      <trkpt lat="48.7196" lon="1.74272">
        <ele>140.80000305176</ele>
        <time>2014-05-05T13:01:51.000Z</time>
      </trkpt>
      <trkpt lat="48.71963" lon="1.74297">
        <ele>141.60000610352</ele>
        <time>2014-05-05T13:01:55.000Z</time>
      </trkpt>
      <trkpt lat="48.71967" lon="1.74343">
        <ele>142</ele>
        <time>2014-05-05T13:02:02.000Z</time>
      </trkpt>
      <trkpt lat="48.71967" lon="1.74349">
        <ele>141.80000305176</ele>
        <time>2014-05-05T13:02:03.000Z</time>
      </trkpt>
      <trkpt lat="48.71969" lon="1.74387">
        <ele>141.60000610352</ele>
        <time>2014-05-05T13:02:09.000Z</time>
      </trkpt>
      <trkpt lat="48.71971" lon="1.7442">
        <ele>141.39999389648</ele>
        <time>2014-05-05T13:02:14.000Z</time>
      </trkpt>
      <trkpt lat="48.71975" lon="1.74468">
        <ele>140.19999694824</ele>
        <time>2014-05-05T13:02:23.000Z</time>
      </trkpt>
      <trkpt lat="48.71977" lon="1.74506">
        <ele>140</ele>
        <time>2014-05-05T13:02:30.000Z</time>
      </trkpt>
      <trkpt lat="48.71978" lon="1.74535">
        <ele>140.60000610352</ele>
        <time>2014-05-05T13:02:35.000Z</time>
      </trkpt>
      <trkpt lat="48.71979" lon="1.74566">
        <ele>141</ele>
        <time>2014-05-05T13:02:40.000Z</time>
      </trkpt>
      <trkpt lat="48.71981" lon="1.74602">
        <ele>141.19999694824</ele>
        <time>2014-05-05T13:02:46.000Z</time>
      </trkpt>
      <trkpt lat="48.71983" lon="1.7464">
        <ele>142</ele>
        <time>2014-05-05T13:02:52.000Z</time>
      </trkpt>
      <trkpt lat="48.71983" lon="1.74665">
        <ele>142.19999694824</ele>
        <time>2014-05-05T13:02:56.000Z</time>
      </trkpt>
      <trkpt lat="48.71982" lon="1.74716">
        <ele>142.39999389648</ele>
        <time>2014-05-05T13:03:04.000Z</time>
      </trkpt>
      <trkpt lat="48.71982" lon="1.74752">
        <ele>143.19999694824</ele>
        <time>2014-05-05T13:03:10.000Z</time>
      </trkpt>
      <trkpt lat="48.71977" lon="1.748">
        <ele>143.60000610352</ele>
        <time>2014-05-05T13:03:18.000Z</time>
      </trkpt>
      <trkpt lat="48.71971" lon="1.74834">
        <ele>143</ele>
        <time>2014-05-05T13:03:24.000Z</time>
      </trkpt>
      <trkpt lat="48.71968" lon="1.74854">
        <ele>142.80000305176</ele>
        <time>2014-05-05T13:03:27.000Z</time>
      </trkpt>
      <trkpt lat="48.71965" lon="1.74878">
        <ele>143</ele>
        <time>2014-05-05T13:03:31.000Z</time>
      </trkpt>
      <trkpt lat="48.71959" lon="1.74908">
        <ele>143.19999694824</ele>
        <time>2014-05-05T13:03:37.000Z</time>
      </trkpt>
      <trkpt lat="48.71955" lon="1.74931">
        <ele>143.39999389648</ele>
        <time>2014-05-05T13:03:42.000Z</time>
      </trkpt>
      <trkpt lat="48.71947" lon="1.74958">
        <ele>144.60000610352</ele>
        <time>2014-05-05T13:03:48.000Z</time>
      </trkpt>
      <trkpt lat="48.71941" lon="1.74979">
        <ele>145.60000610352</ele>
        <time>2014-05-05T13:03:53.000Z</time>
      </trkpt>
      <trkpt lat="48.71934" lon="1.74995">
        <ele>145.80000305176</ele>
        <time>2014-05-05T13:03:57.000Z</time>
      </trkpt>
      <trkpt lat="48.71923" lon="1.75016">
        <ele>145</ele>
        <time>2014-05-05T13:04:02.000Z</time>
      </trkpt>
      <trkpt lat="48.71909" lon="1.75043">
        <ele>144</ele>
        <time>2014-05-05T13:04:09.000Z</time>
      </trkpt>
      <trkpt lat="48.71898" lon="1.75068">
        <ele>144</ele>
        <time>2014-05-05T13:04:15.000Z</time>
      </trkpt>
      <trkpt lat="48.71897" lon="1.75088">
        <ele>143.39999389648</ele>
        <time>2014-05-05T13:04:19.000Z</time>
      </trkpt>
      <trkpt lat="48.71894" lon="1.75123">
        <ele>142.60000610352</ele>
        <time>2014-05-05T13:04:25.000Z</time>
      </trkpt>
      <trkpt lat="48.71886" lon="1.75164">
        <ele>143.80000305176</ele>
        <time>2014-05-05T13:04:32.000Z</time>
      </trkpt>
      <trkpt lat="48.71884" lon="1.75183">
        <ele>144.60000610352</ele>
        <time>2014-05-05T13:04:36.000Z</time>
      </trkpt>
      <trkpt lat="48.71877" lon="1.75215">
        <ele>144.80000305176</ele>
        <time>2014-05-05T13:04:42.000Z</time>
      </trkpt>
      <trkpt lat="48.71871" lon="1.75239">
        <ele>144.80000305176</ele>
        <time>2014-05-05T13:04:47.000Z</time>
      </trkpt>
      <trkpt lat="48.71865" lon="1.7527">
        <ele>144.39999389648</ele>
        <time>2014-05-05T13:04:53.000Z</time>
      </trkpt>
      <trkpt lat="48.71858" lon="1.75296">
        <ele>144.19999694824</ele>
        <time>2014-05-05T13:04:58.000Z</time>
      </trkpt>
      <trkpt lat="48.71851" lon="1.75333">
        <ele>144.19999694824</ele>
        <time>2014-05-05T13:05:05.000Z</time>
      </trkpt>
      <trkpt lat="48.71851" lon="1.75362">
        <ele>144.60000610352</ele>
        <time>2014-05-05T13:05:10.000Z</time>
      </trkpt>
      <trkpt lat="48.71858" lon="1.75384">
        <ele>144.80000305176</ele>
        <time>2014-05-05T13:05:16.000Z</time>
      </trkpt>
      <trkpt lat="48.71861" lon="1.75397">
        <ele>145</ele>
        <time>2014-05-05T13:05:21.000Z</time>
      </trkpt>
      <trkpt lat="48.71865" lon="1.75415">
        <ele>145.60000610352</ele>
        <time>2014-05-05T13:05:28.000Z</time>
      </trkpt>
      <trkpt lat="48.71868" lon="1.75428">
        <ele>146.39999389648</ele>
        <time>2014-05-05T13:05:34.000Z</time>
      </trkpt>
      <trkpt lat="48.71873" lon="1.75454">
        <ele>148</ele>
        <time>2014-05-05T13:05:46.000Z</time>
      </trkpt>
      <trkpt lat="48.71875" lon="1.75465">
        <ele>148.80000305176</ele>
        <time>2014-05-05T13:05:52.000Z</time>
      </trkpt>
      <trkpt lat="48.71876" lon="1.75476">
        <ele>149.60000610352</ele>
        <time>2014-05-05T13:05:58.000Z</time>
      </trkpt>
      <trkpt lat="48.71876" lon="1.75479">
        <ele>149.80000305176</ele>
        <time>2014-05-05T13:06:00.000Z</time>
      </trkpt>
      <trkpt lat="48.71876" lon="1.75483">
        <ele>150.19999694824</ele>
        <time>2014-05-05T13:06:02.000Z</time>
      </trkpt>
      <trkpt lat="48.71878" lon="1.75489">
        <ele>150.39999389648</ele>
        <time>2014-05-05T13:06:06.000Z</time>
      </trkpt>
      <trkpt lat="48.71876" lon="1.75497">
        <ele>150.39999389648</ele>
        <time>2014-05-05T13:06:11.000Z</time>
      </trkpt>
      <trkpt lat="48.7187" lon="1.7551">
        <ele>150.60000610352</ele>
        <time>2014-05-05T13:06:17.000Z</time>
      </trkpt>
      <trkpt lat="48.71863" lon="1.75521">
        <ele>151.80000305176</ele>
        <time>2014-05-05T13:06:23.000Z</time>
      </trkpt>
      <trkpt lat="48.71859" lon="1.75533">
        <ele>152.80000305176</ele>
        <time>2014-05-05T13:06:29.000Z</time>
      </trkpt>
      <trkpt lat="48.71855" lon="1.75542">
        <ele>153.39999389648</ele>
        <time>2014-05-05T13:06:34.000Z</time>
      </trkpt>
      <trkpt lat="48.71852" lon="1.75557">
        <ele>154.39999389648</ele>
        <time>2014-05-05T13:06:40.000Z</time>
      </trkpt>
      <trkpt lat="48.71851" lon="1.75561">
        <ele>154.80000305176</ele>
        <time>2014-05-05T13:06:42.000Z</time>
      </trkpt>
      <trkpt lat="48.71847" lon="1.75574">
        <ele>156</ele>
        <time>2014-05-05T13:06:47.000Z</time>
      </trkpt>
      <trkpt lat="48.71846" lon="1.75576">
        <ele>156.19999694824</ele>
        <time>2014-05-05T13:06:48.000Z</time>
      </trkpt>
      <trkpt lat="48.71844" lon="1.75582">
        <ele>156.60000610352</ele>
        <time>2014-05-05T13:06:51.000Z</time>
      </trkpt>
      <trkpt lat="48.71841" lon="1.75588">
        <ele>157.19999694824</ele>
        <time>2014-05-05T13:06:55.000Z</time>
      </trkpt>
      <trkpt lat="48.71839" lon="1.75594">
        <ele>157.60000610352</ele>
        <time>2014-05-05T13:06:59.000Z</time>
      </trkpt>
      <trkpt lat="48.71838" lon="1.75603">
        <ele>158</ele>
        <time>2014-05-05T13:07:04.000Z</time>
      </trkpt>
      <trkpt lat="48.71838" lon="1.75614">
        <ele>158.39999389648</ele>
        <time>2014-05-05T13:07:10.000Z</time>
      </trkpt>
      <trkpt lat="48.71838" lon="1.75621">
        <ele>158.60000610352</ele>
        <time>2014-05-05T13:07:14.000Z</time>
      </trkpt>
      <trkpt lat="48.71837" lon="1.75634">
        <ele>159.19999694824</ele>
        <time>2014-05-05T13:07:21.000Z</time>
      </trkpt>
      <trkpt lat="48.71837" lon="1.75638">
        <ele>159.39999389648</ele>
        <time>2014-05-05T13:07:24.000Z</time>
      </trkpt>
      <trkpt lat="48.71834" lon="1.7565">
        <ele>159.80000305176</ele>
        <time>2014-05-05T13:07:30.000Z</time>
      </trkpt>
      <trkpt lat="48.71833" lon="1.75664">
        <ele>160.19999694824</ele>
        <time>2014-05-05T13:07:36.000Z</time>
      </trkpt>
      <trkpt lat="48.71833" lon="1.75677">
        <ele>160.19999694824</ele>
        <time>2014-05-05T13:07:41.000Z</time>
      </trkpt>
      <trkpt lat="48.71833" lon="1.75687">
        <ele>160.39999389648</ele>
        <time>2014-05-05T13:07:46.000Z</time>
      </trkpt>
      <trkpt lat="48.71834" lon="1.75698">
        <ele>160.39999389648</ele>
        <time>2014-05-05T13:07:51.000Z</time>
      </trkpt>
      <trkpt lat="48.71837" lon="1.75702">
        <ele>160.19999694824</ele>
        <time>2014-05-05T13:07:55.000Z</time>
      </trkpt>
      <trkpt lat="48.71836" lon="1.75715">
        <ele>160.39999389648</ele>
        <time>2014-05-05T13:08:00.000Z</time>
      </trkpt>
      <trkpt lat="48.71834" lon="1.75726">
        <ele>160.39999389648</ele>
        <time>2014-05-05T13:08:07.000Z</time>
      </trkpt>
      <trkpt lat="48.71832" lon="1.75733">
        <ele>160.19999694824</ele>
        <time>2014-05-05T13:08:10.000Z</time>
      </trkpt>
      <trkpt lat="48.71828" lon="1.75748">
        <ele>160.80000305176</ele>
        <time>2014-05-05T13:08:18.000Z</time>
      </trkpt>
      <trkpt lat="48.71824" lon="1.75754">
        <ele>161.19999694824</ele>
        <time>2014-05-05T13:08:21.000Z</time>
      </trkpt>
      <trkpt lat="48.71817" lon="1.75762">
        <ele>162</ele>
        <time>2014-05-05T13:08:27.000Z</time>
      </trkpt>
      <trkpt lat="48.71816" lon="1.75764">
        <ele>162</ele>
        <time>2014-05-05T13:08:28.000Z</time>
      </trkpt>
      <trkpt lat="48.71809" lon="1.75783">
        <ele>162.80000305176</ele>
        <time>2014-05-05T13:08:37.000Z</time>
      </trkpt>
      <trkpt lat="48.71807" lon="1.75788">
        <ele>162.39999389648</ele>
        <time>2014-05-05T13:08:40.000Z</time>
      </trkpt>
      <trkpt lat="48.71804" lon="1.75803">
        <ele>161.80000305176</ele>
        <time>2014-05-05T13:08:47.000Z</time>
      </trkpt>
      <trkpt lat="48.718" lon="1.75815">
        <ele>161.39999389648</ele>
        <time>2014-05-05T13:08:53.000Z</time>
      </trkpt>
      <trkpt lat="48.71798" lon="1.75828">
        <ele>161.19999694824</ele>
        <time>2014-05-05T13:09:00.000Z</time>
      </trkpt>
      <trkpt lat="48.71794" lon="1.75838">
        <ele>161.39999389648</ele>
        <time>2014-05-05T13:09:06.000Z</time>
      </trkpt>
      <trkpt lat="48.71793" lon="1.75854">
        <ele>162</ele>
        <time>2014-05-05T13:09:13.000Z</time>
      </trkpt>
      <trkpt lat="48.7179" lon="1.75872">
        <ele>162.60000610352</ele>
        <time>2014-05-05T13:09:20.000Z</time>
      </trkpt>
      <trkpt lat="48.71789" lon="1.75874">
        <ele>162.60000610352</ele>
        <time>2014-05-05T13:09:21.000Z</time>
      </trkpt>
      <trkpt lat="48.71787" lon="1.75883">
        <ele>162.80000305176</ele>
        <time>2014-05-05T13:09:25.000Z</time>
      </trkpt>
      <trkpt lat="48.71786" lon="1.75897">
        <ele>163.39999389648</ele>
        <time>2014-05-05T13:09:32.000Z</time>
      </trkpt>
      <trkpt lat="48.71786" lon="1.75902">
        <ele>163.39999389648</ele>
        <time>2014-05-05T13:09:35.000Z</time>
      </trkpt>
      <trkpt lat="48.71783" lon="1.75914">
        <ele>163.19999694824</ele>
        <time>2014-05-05T13:09:41.000Z</time>
      </trkpt>
      <trkpt lat="48.71782" lon="1.75932">
        <ele>163</ele>
        <time>2014-05-05T13:09:49.000Z</time>
      </trkpt>
      <trkpt lat="48.71783" lon="1.7594">
        <ele>162.80000305176</ele>
        <time>2014-05-05T13:09:53.000Z</time>
      </trkpt>
      <trkpt lat="48.71777" lon="1.75955">
        <ele>162.60000610352</ele>
        <time>2014-05-05T13:10:00.000Z</time>
      </trkpt>
      <trkpt lat="48.71773" lon="1.75973">
        <ele>162.19999694824</ele>
        <time>2014-05-05T13:10:08.000Z</time>
      </trkpt>
      <trkpt lat="48.7177" lon="1.75989">
        <ele>162</ele>
        <time>2014-05-05T13:10:15.000Z</time>
      </trkpt>
      <trkpt lat="48.71765" lon="1.76006">
        <ele>161.39999389648</ele>
        <time>2014-05-05T13:10:22.000Z</time>
      </trkpt>
      <trkpt lat="48.71757" lon="1.76027">
        <ele>160.80000305176</ele>
        <time>2014-05-05T13:10:32.000Z</time>
      </trkpt>
      <trkpt lat="48.71753" lon="1.76042">
        <ele>160.39999389648</ele>
        <time>2014-05-05T13:10:39.000Z</time>
      </trkpt>
      <trkpt lat="48.7175" lon="1.7605">
        <ele>160.19999694824</ele>
        <time>2014-05-05T13:10:43.000Z</time>
      </trkpt>
      <trkpt lat="48.71745" lon="1.76066">
        <ele>159.80000305176</ele>
        <time>2014-05-05T13:10:51.000Z</time>
      </trkpt>
      <trkpt lat="48.71739" lon="1.76083">
        <ele>159.39999389648</ele>
        <time>2014-05-05T13:10:59.000Z</time>
      </trkpt>
      <trkpt lat="48.71736" lon="1.76085">
        <ele>159.39999389648</ele>
        <time>2014-05-05T13:11:01.000Z</time>
      </trkpt>
      <trkpt lat="48.7173" lon="1.7608">
        <ele>159.39999389648</ele>
        <time>2014-05-05T13:11:06.000Z</time>
      </trkpt>
      <trkpt lat="48.7172" lon="1.76056">
        <ele>159.80000305176</ele>
        <time>2014-05-05T13:11:18.000Z</time>
      </trkpt>
      <trkpt lat="48.71712" lon="1.76037">
        <ele>160.19999694824</ele>
        <time>2014-05-05T13:11:28.000Z</time>
      </trkpt>
      <trkpt lat="48.71705" lon="1.76017">
        <ele>160.39999389648</ele>
        <time>2014-05-05T13:11:38.000Z</time>
      </trkpt>
      <trkpt lat="48.717" lon="1.76008">
        <ele>160.60000610352</ele>
        <time>2014-05-05T13:11:43.000Z</time>
      </trkpt>
      <trkpt lat="48.71692" lon="1.7599">
        <ele>161</ele>
        <time>2014-05-05T13:11:52.000Z</time>
      </trkpt>
      <trkpt lat="48.71685" lon="1.75974">
        <ele>161.60000610352</ele>
        <time>2014-05-05T13:12:00.000Z</time>
      </trkpt>
      <trkpt lat="48.7168" lon="1.75959">
        <ele>162.19999694824</ele>
        <time>2014-05-05T13:12:07.000Z</time>
      </trkpt>
      <trkpt lat="48.71676" lon="1.75951">
        <ele>162.80000305176</ele>
        <time>2014-05-05T13:12:11.000Z</time>
      </trkpt>
      <trkpt lat="48.71673" lon="1.75941">
        <ele>163.19999694824</ele>
        <time>2014-05-05T13:12:16.000Z</time>
      </trkpt>
      <trkpt lat="48.7167" lon="1.75936">
        <ele>163.39999389648</ele>
        <time>2014-05-05T13:12:19.000Z</time>
      </trkpt>
      <trkpt lat="48.71661" lon="1.75919">
        <ele>164.39999389648</ele>
        <time>2014-05-05T13:12:28.000Z</time>
      </trkpt>
      <trkpt lat="48.71653" lon="1.75903">
        <ele>165.19999694824</ele>
        <time>2014-05-05T13:12:37.000Z</time>
      </trkpt>
      <trkpt lat="48.71644" lon="1.75885">
        <ele>166</ele>
        <time>2014-05-05T13:12:46.000Z</time>
      </trkpt>
      <trkpt lat="48.71639" lon="1.75874">
        <ele>166.39999389648</ele>
        <time>2014-05-05T13:12:52.000Z</time>
      </trkpt>
      <trkpt lat="48.71634" lon="1.75863">
        <ele>167</ele>
        <time>2014-05-05T13:12:58.000Z</time>
      </trkpt>
      <trkpt lat="48.71627" lon="1.75849">
        <ele>167.39999389648</ele>
        <time>2014-05-05T13:13:05.000Z</time>
      </trkpt>
      <trkpt lat="48.7162" lon="1.75833">
        <ele>168.19999694824</ele>
        <time>2014-05-05T13:13:14.000Z</time>
      </trkpt>
      <trkpt lat="48.71612" lon="1.75817">
        <ele>168.80000305176</ele>
        <time>2014-05-05T13:13:23.000Z</time>
      </trkpt>
      <trkpt lat="48.71605" lon="1.75803">
        <ele>169.39999389648</ele>
        <time>2014-05-05T13:13:31.000Z</time>
      </trkpt>
      <trkpt lat="48.71596" lon="1.75782">
        <ele>169.80000305176</ele>
        <time>2014-05-05T13:13:41.000Z</time>
      </trkpt>
      <trkpt lat="48.71595" lon="1.7578">
        <ele>169.80000305176</ele>
        <time>2014-05-05T13:13:42.000Z</time>
      </trkpt>
      <trkpt lat="48.71588" lon="1.75766">
        <ele>170</ele>
        <time>2014-05-05T13:13:50.000Z</time>
      </trkpt>
      <trkpt lat="48.71581" lon="1.75753">
        <ele>170</ele>
        <time>2014-05-05T13:13:57.000Z</time>
      </trkpt>
      <trkpt lat="48.71574" lon="1.75739">
        <ele>170.19999694824</ele>
        <time>2014-05-05T13:14:04.000Z</time>
      </trkpt>
      <trkpt lat="48.71568" lon="1.75726">
        <ele>170.60000610352</ele>
        <time>2014-05-05T13:14:11.000Z</time>
      </trkpt>
      <trkpt lat="48.7156" lon="1.75712">
        <ele>171.19999694824</ele>
        <time>2014-05-05T13:14:19.000Z</time>
      </trkpt>
      <trkpt lat="48.71553" lon="1.75696">
        <ele>171.80000305176</ele>
        <time>2014-05-05T13:14:27.000Z</time>
      </trkpt>
      <trkpt lat="48.71545" lon="1.75679">
        <ele>172.39999389648</ele>
        <time>2014-05-05T13:14:36.000Z</time>
      </trkpt>
      <trkpt lat="48.7154" lon="1.75667">
        <ele>172.60000610352</ele>
        <time>2014-05-05T13:14:42.000Z</time>
      </trkpt>
      <trkpt lat="48.71533" lon="1.75649">
        <ele>173.19999694824</ele>
        <time>2014-05-05T13:14:52.000Z</time>
      </trkpt>
      <trkpt lat="48.71529" lon="1.75641">
        <ele>173.39999389648</ele>
        <time>2014-05-05T13:14:57.000Z</time>
      </trkpt>
      <trkpt lat="48.71525" lon="1.75632">
        <ele>173.80000305176</ele>
        <time>2014-05-05T13:15:03.000Z</time>
      </trkpt>
      <trkpt lat="48.71523" lon="1.75626">
        <ele>174</ele>
        <time>2014-05-05T13:15:06.000Z</time>
      </trkpt>
      <trkpt lat="48.71521" lon="1.75622">
        <ele>174.19999694824</ele>
        <time>2014-05-05T13:15:11.000Z</time>
      </trkpt>
      <trkpt lat="48.71516" lon="1.75613">
        <ele>174.39999389648</ele>
        <time>2014-05-05T13:15:30.000Z</time>
      </trkpt>
      <trkpt lat="48.71509" lon="1.75599">
        <ele>174.60000610352</ele>
        <time>2014-05-05T13:15:37.000Z</time>
      </trkpt>
      <trkpt lat="48.71502" lon="1.75582">
        <ele>175</ele>
        <time>2014-05-05T13:15:46.000Z</time>
      </trkpt>
      <trkpt lat="48.71501" lon="1.75579">
        <ele>175</ele>
        <time>2014-05-05T13:15:47.000Z</time>
      </trkpt>
      <trkpt lat="48.71497" lon="1.75569">
        <ele>175.19999694824</ele>
        <time>2014-05-05T13:15:53.000Z</time>
      </trkpt>
      <trkpt lat="48.7149" lon="1.75555">
        <ele>175</ele>
        <time>2014-05-05T13:16:01.000Z</time>
      </trkpt>
      <trkpt lat="48.71485" lon="1.75538">
        <ele>174.80000305176</ele>
        <time>2014-05-05T13:16:10.000Z</time>
      </trkpt>
      <trkpt lat="48.71483" lon="1.75526">
        <ele>174.80000305176</ele>
        <time>2014-05-05T13:16:15.000Z</time>
      </trkpt>
      <trkpt lat="48.71479" lon="1.75513">
        <ele>174.60000610352</ele>
        <time>2014-05-05T13:16:23.000Z</time>
      </trkpt>
      <trkpt lat="48.71473" lon="1.75495">
        <ele>174.60000610352</ele>
        <time>2014-05-05T13:16:32.000Z</time>
      </trkpt>
      <trkpt lat="48.71467" lon="1.75479">
        <ele>174.60000610352</ele>
        <time>2014-05-05T13:16:40.000Z</time>
      </trkpt>
      <trkpt lat="48.71461" lon="1.75459">
        <ele>174.80000305176</ele>
        <time>2014-05-05T13:16:49.000Z</time>
      </trkpt>
      <trkpt lat="48.7146" lon="1.75453">
        <ele>175</ele>
        <time>2014-05-05T13:16:52.000Z</time>
      </trkpt>
      <trkpt lat="48.71457" lon="1.75435">
        <ele>175.19999694824</ele>
        <time>2014-05-05T13:17:00.000Z</time>
      </trkpt>
      <trkpt lat="48.71454" lon="1.75426">
        <ele>175.19999694824</ele>
        <time>2014-05-05T13:17:04.000Z</time>
      </trkpt>
      <trkpt lat="48.7145" lon="1.75409">
        <ele>175.19999694824</ele>
        <time>2014-05-05T13:17:12.000Z</time>
      </trkpt>
      <trkpt lat="48.71445" lon="1.7539">
        <ele>174.80000305176</ele>
        <time>2014-05-05T13:17:21.000Z</time>
      </trkpt>
      <trkpt lat="48.71437" lon="1.75366">
        <ele>174</ele>
        <time>2014-05-05T13:17:32.000Z</time>
      </trkpt>
      <trkpt lat="48.71429" lon="1.75338">
        <ele>173.60000610352</ele>
        <time>2014-05-05T13:17:44.000Z</time>
      </trkpt>
      <trkpt lat="48.71423" lon="1.75317">
        <ele>173.19999694824</ele>
        <time>2014-05-05T13:17:54.000Z</time>
      </trkpt>
      <trkpt lat="48.71414" lon="1.75294">
        <ele>173.60000610352</ele>
        <time>2014-05-05T13:18:05.000Z</time>
      </trkpt>
      <trkpt lat="48.71407" lon="1.75279">
        <ele>173.80000305176</ele>
        <time>2014-05-05T13:18:13.000Z</time>
      </trkpt>
      <trkpt lat="48.71399" lon="1.75266">
        <ele>174.19999694824</ele>
        <time>2014-05-05T13:18:20.000Z</time>
      </trkpt>
      <trkpt lat="48.71396" lon="1.75259">
        <ele>174.19999694824</ele>
        <time>2014-05-05T13:18:26.000Z</time>
      </trkpt>
      <trkpt lat="48.71392" lon="1.75251">
        <ele>174.39999389648</ele>
        <time>2014-05-05T13:18:35.000Z</time>
      </trkpt>
      <trkpt lat="48.7139" lon="1.75247">
        <ele>174.39999389648</ele>
        <time>2014-05-05T13:18:37.000Z</time>
      </trkpt>
      <trkpt lat="48.71388" lon="1.75242">
        <ele>174.60000610352</ele>
        <time>2014-05-05T13:18:41.000Z</time>
      </trkpt>
      <trkpt lat="48.71384" lon="1.7523">
        <ele>174.80000305176</ele>
        <time>2014-05-05T13:18:48.000Z</time>
      </trkpt>
      <trkpt lat="48.71379" lon="1.75217">
        <ele>175</ele>
        <time>2014-05-05T13:18:55.000Z</time>
      </trkpt>
      <trkpt lat="48.71376" lon="1.7521">
        <ele>175</ele>
        <time>2014-05-05T13:18:59.000Z</time>
      </trkpt>
      <trkpt lat="48.71372" lon="1.75202">
        <ele>175.19999694824</ele>
        <time>2014-05-05T13:19:04.000Z</time>
      </trkpt>
      <trkpt lat="48.71368" lon="1.75189">
        <ele>175.39999389648</ele>
        <time>2014-05-05T13:19:11.000Z</time>
      </trkpt>
      <trkpt lat="48.71364" lon="1.75176">
        <ele>175.60000610352</ele>
        <time>2014-05-05T13:19:17.000Z</time>
      </trkpt>
      <trkpt lat="48.7136" lon="1.75164">
        <ele>175.80000305176</ele>
        <time>2014-05-05T13:19:23.000Z</time>
      </trkpt>
      <trkpt lat="48.71354" lon="1.75149">
        <ele>176.19999694824</ele>
        <time>2014-05-05T13:19:31.000Z</time>
      </trkpt>
      <trkpt lat="48.71349" lon="1.75134">
        <ele>176.39999389648</ele>
        <time>2014-05-05T13:19:40.000Z</time>
      </trkpt>
      <trkpt lat="48.71342" lon="1.75118">
        <ele>176.80000305176</ele>
        <time>2014-05-05T13:19:48.000Z</time>
      </trkpt>
      <trkpt lat="48.71337" lon="1.75105">
        <ele>177</ele>
        <time>2014-05-05T13:19:54.000Z</time>
      </trkpt>
      <trkpt lat="48.71336" lon="1.75101">
        <ele>177</ele>
        <time>2014-05-05T13:19:56.000Z</time>
      </trkpt>
      <trkpt lat="48.71332" lon="1.75091">
        <ele>177.19999694824</ele>
        <time>2014-05-05T13:20:02.000Z</time>
      </trkpt>
      <trkpt lat="48.71326" lon="1.75076">
        <ele>177.60000610352</ele>
        <time>2014-05-05T13:20:09.000Z</time>
      </trkpt>
      <trkpt lat="48.71322" lon="1.75064">
        <ele>177.60000610352</ele>
        <time>2014-05-05T13:20:15.000Z</time>
      </trkpt>
      <trkpt lat="48.71317" lon="1.75047">
        <ele>177.19999694824</ele>
        <time>2014-05-05T13:20:22.000Z</time>
      </trkpt>
      <trkpt lat="48.71315" lon="1.75041">
        <ele>177.19999694824</ele>
        <time>2014-05-05T13:20:25.000Z</time>
      </trkpt>
      <trkpt lat="48.71313" lon="1.75029">
        <ele>177</ele>
        <time>2014-05-05T13:20:30.000Z</time>
      </trkpt>
      <trkpt lat="48.71311" lon="1.75018">
        <ele>177</ele>
        <time>2014-05-05T13:20:35.000Z</time>
      </trkpt>
      <trkpt lat="48.71308" lon="1.75006">
        <ele>177.19999694824</ele>
        <time>2014-05-05T13:20:39.000Z</time>
      </trkpt>
      <trkpt lat="48.71307" lon="1.7499">
        <ele>177.39999389648</ele>
        <time>2014-05-05T13:20:45.000Z</time>
      </trkpt>
      <trkpt lat="48.71308" lon="1.74971">
        <ele>177.39999389648</ele>
        <time>2014-05-05T13:20:53.000Z</time>
      </trkpt>
      <trkpt lat="48.71308" lon="1.74951">
        <ele>177.39999389648</ele>
        <time>2014-05-05T13:21:01.000Z</time>
      </trkpt>
      <trkpt lat="48.71309" lon="1.74928">
        <ele>177.39999389648</ele>
        <time>2014-05-05T13:21:10.000Z</time>
      </trkpt>
      <trkpt lat="48.7131" lon="1.74905">
        <ele>177.39999389648</ele>
        <time>2014-05-05T13:21:20.000Z</time>
      </trkpt>
      <trkpt lat="48.71309" lon="1.74887">
        <ele>177.60000610352</ele>
        <time>2014-05-05T13:21:28.000Z</time>
      </trkpt>
      <trkpt lat="48.71308" lon="1.74877">
        <ele>177.60000610352</ele>
        <time>2014-05-05T13:21:32.000Z</time>
      </trkpt>
      <trkpt lat="48.71309" lon="1.74874">
        <ele>177.80000305176</ele>
        <time>2014-05-05T13:21:34.000Z</time>
      </trkpt>
      <trkpt lat="48.71309" lon="1.74858">
        <ele>178</ele>
        <time>2014-05-05T13:21:42.000Z</time>
      </trkpt>
      <trkpt lat="48.71309" lon="1.74836">
        <ele>178.60000610352</ele>
        <time>2014-05-05T13:21:51.000Z</time>
      </trkpt>
      <trkpt lat="48.71309" lon="1.74814">
        <ele>179</ele>
        <time>2014-05-05T13:22:00.000Z</time>
      </trkpt>
      <trkpt lat="48.71309" lon="1.74797">
        <ele>179.19999694824</ele>
        <time>2014-05-05T13:22:08.000Z</time>
      </trkpt>
      <trkpt lat="48.71307" lon="1.74781">
        <ele>179.19999694824</ele>
        <time>2014-05-05T13:22:14.000Z</time>
      </trkpt>
      <trkpt lat="48.71306" lon="1.7476">
        <ele>179.60000610352</ele>
        <time>2014-05-05T13:22:21.000Z</time>
      </trkpt>
      <trkpt lat="48.71307" lon="1.74752">
        <ele>179.80000305176</ele>
        <time>2014-05-05T13:22:24.000Z</time>
      </trkpt>
      <trkpt lat="48.7131" lon="1.7474">
        <ele>180.39999389648</ele>
        <time>2014-05-05T13:22:30.000Z</time>
      </trkpt>
      <trkpt lat="48.7131" lon="1.74735">
        <ele>180.60000610352</ele>
        <time>2014-05-05T13:22:32.000Z</time>
      </trkpt>
      <trkpt lat="48.71312" lon="1.74726">
        <ele>181</ele>
        <time>2014-05-05T13:22:37.000Z</time>
      </trkpt>
      <trkpt lat="48.71311" lon="1.74715">
        <ele>181.60000610352</ele>
        <time>2014-05-05T13:22:42.000Z</time>
      </trkpt>
      <trkpt lat="48.71309" lon="1.74705">
        <ele>181.80000305176</ele>
        <time>2014-05-05T13:22:46.000Z</time>
      </trkpt>
      <trkpt lat="48.7131" lon="1.74691">
        <ele>182.60000610352</ele>
        <time>2014-05-05T13:22:52.000Z</time>
      </trkpt>
      <trkpt lat="48.71311" lon="1.74688">
        <ele>182.60000610352</ele>
        <time>2014-05-05T13:22:54.000Z</time>
      </trkpt>
      <trkpt lat="48.71311" lon="1.74678">
        <ele>182.80000305176</ele>
        <time>2014-05-05T13:22:58.000Z</time>
      </trkpt>
      <trkpt lat="48.71313" lon="1.74667">
        <ele>183.19999694824</ele>
        <time>2014-05-05T13:23:03.000Z</time>
      </trkpt>
      <trkpt lat="48.71314" lon="1.74647">
        <ele>183.80000305176</ele>
        <time>2014-05-05T13:23:11.000Z</time>
      </trkpt>
      <trkpt lat="48.71315" lon="1.74623">
        <ele>184.80000305176</ele>
        <time>2014-05-05T13:23:19.000Z</time>
      </trkpt>
      <trkpt lat="48.71312" lon="1.746">
        <ele>184.80000305176</ele>
        <time>2014-05-05T13:23:24.000Z</time>
      </trkpt>
      <trkpt lat="48.71312" lon="1.74589">
        <ele>184.80000305176</ele>
        <time>2014-05-05T13:23:27.000Z</time>
      </trkpt>
      <trkpt lat="48.71311" lon="1.74579">
        <ele>184.60000610352</ele>
        <time>2014-05-05T13:23:32.000Z</time>
      </trkpt>
      <trkpt lat="48.7131" lon="1.74573">
        <ele>184.60000610352</ele>
        <time>2014-05-05T13:23:34.000Z</time>
      </trkpt>
      <trkpt lat="48.71309" lon="1.74562">
        <ele>184.39999389648</ele>
        <time>2014-05-05T13:23:39.000Z</time>
      </trkpt>
      <trkpt lat="48.71308" lon="1.74547">
        <ele>184.19999694824</ele>
        <time>2014-05-05T13:23:45.000Z</time>
      </trkpt>
      <trkpt lat="48.71308" lon="1.74545">
        <ele>184.19999694824</ele>
        <time>2014-05-05T13:23:46.000Z</time>
      </trkpt>
      <trkpt lat="48.71308" lon="1.74538">
        <ele>184.19999694824</ele>
        <time>2014-05-05T13:23:49.000Z</time>
      </trkpt>
      <trkpt lat="48.71308" lon="1.74524">
        <ele>183.80000305176</ele>
        <time>2014-05-05T13:23:57.000Z</time>
      </trkpt>
      <trkpt lat="48.71305" lon="1.74514">
        <ele>183.39999389648</ele>
        <time>2014-05-05T13:24:03.000Z</time>
      </trkpt>
      <trkpt lat="48.71302" lon="1.74504">
        <ele>183</ele>
        <time>2014-05-05T13:24:08.000Z</time>
      </trkpt>
      <trkpt lat="48.71299" lon="1.74491">
        <ele>182.19999694824</ele>
        <time>2014-05-05T13:24:14.000Z</time>
      </trkpt>
      <trkpt lat="48.71298" lon="1.7449">
        <ele>182.19999694824</ele>
        <time>2014-05-05T13:24:17.000Z</time>
      </trkpt>
      <trkpt lat="48.71297" lon="1.74484">
        <ele>182</ele>
        <time>2014-05-05T13:24:21.000Z</time>
      </trkpt>
      <trkpt lat="48.71294" lon="1.74473">
        <ele>181.80000305176</ele>
        <time>2014-05-05T13:24:25.000Z</time>
      </trkpt>
      <trkpt lat="48.71286" lon="1.74452">
        <ele>181.60000610352</ele>
        <time>2014-05-05T13:24:33.000Z</time>
      </trkpt>
      <trkpt lat="48.71283" lon="1.74441">
        <ele>181.39999389648</ele>
        <time>2014-05-05T13:24:38.000Z</time>
      </trkpt>
      <trkpt lat="48.71276" lon="1.74425">
        <ele>181.39999389648</ele>
        <time>2014-05-05T13:24:46.000Z</time>
      </trkpt>
      <trkpt lat="48.71268" lon="1.74409">
        <ele>181.39999389648</ele>
        <time>2014-05-05T13:24:53.000Z</time>
      </trkpt>
      <trkpt lat="48.71266" lon="1.74407">
        <ele>181.39999389648</ele>
        <time>2014-05-05T13:24:55.000Z</time>
      </trkpt>
      <trkpt lat="48.71263" lon="1.74399">
        <ele>181.39999389648</ele>
        <time>2014-05-05T13:25:00.000Z</time>
      </trkpt>
      <trkpt lat="48.7126" lon="1.74393">
        <ele>181.39999389648</ele>
        <time>2014-05-05T13:25:03.000Z</time>
      </trkpt>
      <trkpt lat="48.71253" lon="1.74382">
        <ele>181.60000610352</ele>
        <time>2014-05-05T13:25:12.000Z</time>
      </trkpt>
      <trkpt lat="48.71248" lon="1.74376">
        <ele>181.80000305176</ele>
        <time>2014-05-05T13:25:17.000Z</time>
      </trkpt>
      <trkpt lat="48.71245" lon="1.74369">
        <ele>181.80000305176</ele>
        <time>2014-05-05T13:25:20.000Z</time>
      </trkpt>
      <trkpt lat="48.71241" lon="1.74364">
        <ele>181.80000305176</ele>
        <time>2014-05-05T13:25:24.000Z</time>
      </trkpt>
      <trkpt lat="48.71231" lon="1.74348">
        <ele>182</ele>
        <time>2014-05-05T13:25:31.000Z</time>
      </trkpt>
      <trkpt lat="48.71226" lon="1.74338">
        <ele>182.19999694824</ele>
        <time>2014-05-05T13:25:37.000Z</time>
      </trkpt>
      <trkpt lat="48.71222" lon="1.74332">
        <ele>182.19999694824</ele>
        <time>2014-05-05T13:25:41.000Z</time>
      </trkpt>
      <trkpt lat="48.71219" lon="1.74323">
        <ele>182</ele>
        <time>2014-05-05T13:25:46.000Z</time>
      </trkpt>
      <trkpt lat="48.71216" lon="1.74314">
        <ele>182</ele>
        <time>2014-05-05T13:25:50.000Z</time>
      </trkpt>
      <trkpt lat="48.71215" lon="1.7431">
        <ele>182</ele>
        <time>2014-05-05T13:25:52.000Z</time>
      </trkpt>
      <trkpt lat="48.71211" lon="1.743">
        <ele>182</ele>
        <time>2014-05-05T13:25:57.000Z</time>
      </trkpt>
      <trkpt lat="48.7121" lon="1.74295">
        <ele>181.80000305176</ele>
        <time>2014-05-05T13:25:59.000Z</time>
      </trkpt>
      <trkpt lat="48.71203" lon="1.74281">
        <ele>182</ele>
        <time>2014-05-05T13:26:05.000Z</time>
      </trkpt>
      <trkpt lat="48.71197" lon="1.7427">
        <ele>182.19999694824</ele>
        <time>2014-05-05T13:26:11.000Z</time>
      </trkpt>
      <trkpt lat="48.71193" lon="1.7426">
        <ele>182.19999694824</ele>
        <time>2014-05-05T13:26:16.000Z</time>
      </trkpt>
      <trkpt lat="48.7119" lon="1.74255">
        <ele>182.39999389648</ele>
        <time>2014-05-05T13:26:18.000Z</time>
      </trkpt>
      <trkpt lat="48.71186" lon="1.74247">
        <ele>182.39999389648</ele>
        <time>2014-05-05T13:26:22.000Z</time>
      </trkpt>
      <trkpt lat="48.71181" lon="1.74236">
        <ele>181.80000305176</ele>
        <time>2014-05-05T13:26:27.000Z</time>
      </trkpt>
      <trkpt lat="48.71177" lon="1.74227">
        <ele>182</ele>
        <time>2014-05-05T13:26:33.000Z</time>
      </trkpt>
      <trkpt lat="48.71173" lon="1.74214">
        <ele>181.80000305176</ele>
        <time>2014-05-05T13:26:38.000Z</time>
      </trkpt>
      <trkpt lat="48.71167" lon="1.74197">
        <ele>181.39999389648</ele>
        <time>2014-05-05T13:26:44.000Z</time>
      </trkpt>
      <trkpt lat="48.71167" lon="1.74193">
        <ele>181.39999389648</ele>
        <time>2014-05-05T13:26:45.000Z</time>
      </trkpt>
      <trkpt lat="48.71165" lon="1.74186">
        <ele>181.19999694824</ele>
        <time>2014-05-05T13:26:48.000Z</time>
      </trkpt>
      <trkpt lat="48.71163" lon="1.74172">
        <ele>181</ele>
        <time>2014-05-05T13:26:55.000Z</time>
      </trkpt>
      <trkpt lat="48.71163" lon="1.74166">
        <ele>180.80000305176</ele>
        <time>2014-05-05T13:26:59.000Z</time>
      </trkpt>
      <trkpt lat="48.71164" lon="1.74163">
        <ele>180.80000305176</ele>
        <time>2014-05-05T13:27:00.000Z</time>
      </trkpt>
      <trkpt lat="48.71163" lon="1.74141">
        <ele>180.80000305176</ele>
        <time>2014-05-05T13:27:08.000Z</time>
      </trkpt>
      <trkpt lat="48.71163" lon="1.74138">
        <ele>180.80000305176</ele>
        <time>2014-05-05T13:27:09.000Z</time>
      </trkpt>
      <trkpt lat="48.71162" lon="1.74124">
        <ele>180.80000305176</ele>
        <time>2014-05-05T13:27:16.000Z</time>
      </trkpt>
      <trkpt lat="48.71165" lon="1.74105">
        <ele>180.80000305176</ele>
        <time>2014-05-05T13:27:24.000Z</time>
      </trkpt>
      <trkpt lat="48.71166" lon="1.74101">
        <ele>180.80000305176</ele>
        <time>2014-05-05T13:27:26.000Z</time>
      </trkpt>
      <trkpt lat="48.71166" lon="1.7409">
        <ele>180.80000305176</ele>
        <time>2014-05-05T13:27:31.000Z</time>
      </trkpt>
      <trkpt lat="48.71166" lon="1.74087">
        <ele>180.80000305176</ele>
        <time>2014-05-05T13:27:32.000Z</time>
      </trkpt>
      <trkpt lat="48.71166" lon="1.74069">
        <ele>180.80000305176</ele>
        <time>2014-05-05T13:27:38.000Z</time>
      </trkpt>
      <trkpt lat="48.71165" lon="1.74062">
        <ele>180.60000610352</ele>
        <time>2014-05-05T13:27:40.000Z</time>
      </trkpt>
      <trkpt lat="48.71168" lon="1.74046">
        <ele>180.60000610352</ele>
        <time>2014-05-05T13:27:46.000Z</time>
      </trkpt>
      <trkpt lat="48.71173" lon="1.74019">
        <ele>181.19999694824</ele>
        <time>2014-05-05T13:27:51.000Z</time>
      </trkpt>
      <trkpt lat="48.71179" lon="1.73991">
        <ele>182</ele>
        <time>2014-05-05T13:27:56.000Z</time>
      </trkpt>
      <trkpt lat="48.71187" lon="1.73967">
        <ele>182.19999694824</ele>
        <time>2014-05-05T13:28:00.000Z</time>
      </trkpt>
      <trkpt lat="48.71198" lon="1.73946">
        <ele>182.39999389648</ele>
        <time>2014-05-05T13:28:05.000Z</time>
      </trkpt>
      <trkpt lat="48.7121" lon="1.73924">
        <ele>182.60000610352</ele>
        <time>2014-05-05T13:28:10.000Z</time>
      </trkpt>
      <trkpt lat="48.7122" lon="1.7391">
        <ele>183.19999694824</ele>
        <time>2014-05-05T13:28:14.000Z</time>
      </trkpt>
      <trkpt lat="48.71232" lon="1.73885">
        <ele>183.60000610352</ele>
        <time>2014-05-05T13:28:19.000Z</time>
      </trkpt>
      <trkpt lat="48.71241" lon="1.73875">
        <ele>183.60000610352</ele>
        <time>2014-05-05T13:28:23.000Z</time>
      </trkpt>
      <trkpt lat="48.71252" lon="1.73857">
        <ele>183.80000305176</ele>
        <time>2014-05-05T13:28:28.000Z</time>
      </trkpt>
      <trkpt lat="48.71259" lon="1.7383">
        <ele>183.80000305176</ele>
        <time>2014-05-05T13:28:33.000Z</time>
      </trkpt>
      <trkpt lat="48.71261" lon="1.73821">
        <ele>183.80000305176</ele>
        <time>2014-05-05T13:28:35.000Z</time>
      </trkpt>
      <trkpt lat="48.71268" lon="1.73808">
        <ele>183.80000305176</ele>
        <time>2014-05-05T13:28:40.000Z</time>
      </trkpt>
      <trkpt lat="48.7126" lon="1.73783">
        <ele>183.60000610352</ele>
        <time>2014-05-05T13:28:45.000Z</time>
      </trkpt>
      <trkpt lat="48.71252" lon="1.73766">
        <ele>183.60000610352</ele>
        <time>2014-05-05T13:28:49.000Z</time>
      </trkpt>
      <trkpt lat="48.71248" lon="1.73746">
        <ele>183.39999389648</ele>
        <time>2014-05-05T13:28:53.000Z</time>
      </trkpt>
      <trkpt lat="48.7124" lon="1.73725">
        <ele>183.19999694824</ele>
        <time>2014-05-05T13:28:57.000Z</time>
      </trkpt>
      <trkpt lat="48.71234" lon="1.73705">
        <ele>183</ele>
        <time>2014-05-05T13:29:01.000Z</time>
      </trkpt>
      <trkpt lat="48.71225" lon="1.73677">
        <ele>183</ele>
        <time>2014-05-05T13:29:06.000Z</time>
      </trkpt>
      <trkpt lat="48.71218" lon="1.73656">
        <ele>183</ele>
        <time>2014-05-05T13:29:10.000Z</time>
      </trkpt>
      <trkpt lat="48.71213" lon="1.7364">
        <ele>182.39999389648</ele>
        <time>2014-05-05T13:29:13.000Z</time>
      </trkpt>
      <trkpt lat="48.71213" lon="1.73616">
        <ele>181.60000610352</ele>
        <time>2014-05-05T13:29:17.000Z</time>
      </trkpt>
      <trkpt lat="48.71214" lon="1.7361">
        <ele>181.39999389648</ele>
        <time>2014-05-05T13:29:21.000Z</time>
      </trkpt>
      <trkpt lat="48.71205" lon="1.73604">
        <ele>181.19999694824</ele>
        <time>2014-05-05T13:29:25.000Z</time>
      </trkpt>
      <trkpt lat="48.71193" lon="1.73585">
        <ele>180.60000610352</ele>
        <time>2014-05-05T13:29:31.000Z</time>
      </trkpt>
      <trkpt lat="48.71182" lon="1.73558">
        <ele>180</ele>
        <time>2014-05-05T13:29:37.000Z</time>
      </trkpt>
      <trkpt lat="48.71173" lon="1.73532">
        <ele>180.19999694824</ele>
        <time>2014-05-05T13:29:42.000Z</time>
      </trkpt>
      <trkpt lat="48.71165" lon="1.735">
        <ele>180.39999389648</ele>
        <time>2014-05-05T13:29:47.000Z</time>
      </trkpt>
      <trkpt lat="48.71163" lon="1.73486">
        <ele>180.39999389648</ele>
        <time>2014-05-05T13:29:49.000Z</time>
      </trkpt>
      <trkpt lat="48.71154" lon="1.7346">
        <ele>179.80000305176</ele>
        <time>2014-05-05T13:29:54.000Z</time>
      </trkpt>
      <trkpt lat="48.71151" lon="1.7345">
        <ele>179.80000305176</ele>
        <time>2014-05-05T13:29:56.000Z</time>
      </trkpt>
      <trkpt lat="48.71142" lon="1.73427">
        <ele>179.80000305176</ele>
        <time>2014-05-05T13:30:01.000Z</time>
      </trkpt>
      <trkpt lat="48.71137" lon="1.73413">
        <ele>179.80000305176</ele>
        <time>2014-05-05T13:30:04.000Z</time>
      </trkpt>
      <trkpt lat="48.71131" lon="1.73387">
        <ele>180</ele>
        <time>2014-05-05T13:30:10.000Z</time>
      </trkpt>
      <trkpt lat="48.71122" lon="1.73353">
        <ele>180.39999389648</ele>
        <time>2014-05-05T13:30:16.000Z</time>
      </trkpt>
      <trkpt lat="48.71113" lon="1.73327">
        <ele>180.39999389648</ele>
        <time>2014-05-05T13:30:21.000Z</time>
      </trkpt>
      <trkpt lat="48.71107" lon="1.73308">
        <ele>180.39999389648</ele>
        <time>2014-05-05T13:30:24.000Z</time>
      </trkpt>
      <trkpt lat="48.71096" lon="1.73275">
        <ele>179.80000305176</ele>
        <time>2014-05-05T13:30:31.000Z</time>
      </trkpt>
      <trkpt lat="48.71087" lon="1.73239">
        <ele>179.60000610352</ele>
        <time>2014-05-05T13:30:38.000Z</time>
      </trkpt>
      <trkpt lat="48.71079" lon="1.73201">
        <ele>178.80000305176</ele>
        <time>2014-05-05T13:30:45.000Z</time>
      </trkpt>
      <trkpt lat="48.71073" lon="1.73169">
        <ele>178</ele>
        <time>2014-05-05T13:30:51.000Z</time>
      </trkpt>
      <trkpt lat="48.71065" lon="1.73144">
        <ele>177.39999389648</ele>
        <time>2014-05-05T13:30:56.000Z</time>
      </trkpt>
      <trkpt lat="48.71061" lon="1.73113">
        <ele>177.39999389648</ele>
        <time>2014-05-05T13:31:02.000Z</time>
      </trkpt>
      <trkpt lat="48.71055" lon="1.73082">
        <ele>176.80000305176</ele>
        <time>2014-05-05T13:31:07.000Z</time>
      </trkpt>
      <trkpt lat="48.71049" lon="1.73054">
        <ele>176.60000610352</ele>
        <time>2014-05-05T13:31:12.000Z</time>
      </trkpt>
      <trkpt lat="48.71042" lon="1.73022">
        <ele>176.60000610352</ele>
        <time>2014-05-05T13:31:18.000Z</time>
      </trkpt>
      <trkpt lat="48.71037" lon="1.72991">
        <ele>176.60000610352</ele>
        <time>2014-05-05T13:31:25.000Z</time>
      </trkpt>
      <trkpt lat="48.71028" lon="1.72967">
        <ele>176.80000305176</ele>
        <time>2014-05-05T13:31:30.000Z</time>
      </trkpt>
      <trkpt lat="48.7102" lon="1.72946">
        <ele>177</ele>
        <time>2014-05-05T13:31:35.000Z</time>
      </trkpt>
      <trkpt lat="48.7101" lon="1.72916">
        <ele>177.80000305176</ele>
        <time>2014-05-05T13:31:41.000Z</time>
      </trkpt>
      <trkpt lat="48.70999" lon="1.72883">
        <ele>178.39999389648</ele>
        <time>2014-05-05T13:31:48.000Z</time>
      </trkpt>
      <trkpt lat="48.70987" lon="1.72845">
        <ele>178.39999389648</ele>
        <time>2014-05-05T13:31:55.000Z</time>
      </trkpt>
      <trkpt lat="48.70981" lon="1.72811">
        <ele>178.39999389648</ele>
        <time>2014-05-05T13:32:00.000Z</time>
      </trkpt>
      <trkpt lat="48.70977" lon="1.728">
        <ele>178.60000610352</ele>
        <time>2014-05-05T13:32:02.000Z</time>
      </trkpt>
      <trkpt lat="48.70971" lon="1.7277">
        <ele>178.80000305176</ele>
        <time>2014-05-05T13:32:07.000Z</time>
      </trkpt>
      <trkpt lat="48.70962" lon="1.72732">
        <ele>178.19999694824</ele>
        <time>2014-05-05T13:32:14.000Z</time>
      </trkpt>
      <trkpt lat="48.70961" lon="1.72719">
        <ele>178</ele>
        <time>2014-05-05T13:32:16.000Z</time>
      </trkpt>
      <trkpt lat="48.7095" lon="1.72689">
        <ele>178.39999389648</ele>
        <time>2014-05-05T13:32:22.000Z</time>
      </trkpt>
      <trkpt lat="48.70941" lon="1.72689">
        <ele>179.19999694824</ele>
        <time>2014-05-05T13:32:25.000Z</time>
      </trkpt>
      <trkpt lat="48.70917" lon="1.72691">
        <ele>180.19999694824</ele>
        <time>2014-05-05T13:32:32.000Z</time>
      </trkpt>
      <trkpt lat="48.70897" lon="1.7269">
        <ele>180.80000305176</ele>
        <time>2014-05-05T13:32:38.000Z</time>
      </trkpt>
      <trkpt lat="48.70878" lon="1.72687">
        <ele>181.39999389648</ele>
        <time>2014-05-05T13:32:43.000Z</time>
      </trkpt>
      <trkpt lat="48.70854" lon="1.72687">
        <ele>181.60000610352</ele>
        <time>2014-05-05T13:32:49.000Z</time>
      </trkpt>
      <trkpt lat="48.70836" lon="1.72689">
        <ele>181.60000610352</ele>
        <time>2014-05-05T13:32:54.000Z</time>
      </trkpt>
      <trkpt lat="48.7082" lon="1.72693">
        <ele>181.60000610352</ele>
        <time>2014-05-05T13:33:01.000Z</time>
      </trkpt>
      <trkpt lat="48.70807" lon="1.72695">
        <ele>181.60000610352</ele>
        <time>2014-05-05T13:33:09.000Z</time>
      </trkpt>
      <trkpt lat="48.70797" lon="1.72694">
        <ele>181.60000610352</ele>
        <time>2014-05-05T13:33:16.000Z</time>
      </trkpt>
      <trkpt lat="48.70787" lon="1.7269">
        <ele>181.80000305176</ele>
        <time>2014-05-05T13:33:23.000Z</time>
      </trkpt>
      <trkpt lat="48.70778" lon="1.72691">
        <ele>182</ele>
        <time>2014-05-05T13:33:29.000Z</time>
      </trkpt>
      <trkpt lat="48.7077" lon="1.72691">
        <ele>182</ele>
        <time>2014-05-05T13:33:34.000Z</time>
      </trkpt>
      <trkpt lat="48.70758" lon="1.72693">
        <ele>182.19999694824</ele>
        <time>2014-05-05T13:33:41.000Z</time>
      </trkpt>
      <trkpt lat="48.70745" lon="1.72696">
        <ele>182.60000610352</ele>
        <time>2014-05-05T13:33:50.000Z</time>
      </trkpt>
      <trkpt lat="48.70735" lon="1.727">
        <ele>182.80000305176</ele>
        <time>2014-05-05T13:33:57.000Z</time>
      </trkpt>
      <trkpt lat="48.70723" lon="1.72704">
        <ele>183.19999694824</ele>
        <time>2014-05-05T13:34:05.000Z</time>
      </trkpt>
      <trkpt lat="48.70712" lon="1.72703">
        <ele>183.39999389648</ele>
        <time>2014-05-05T13:34:13.000Z</time>
      </trkpt>
      <trkpt lat="48.70701" lon="1.72703">
        <ele>183.60000610352</ele>
        <time>2014-05-05T13:34:21.000Z</time>
      </trkpt>
      <trkpt lat="48.70694" lon="1.72702">
        <ele>183.80000305176</ele>
        <time>2014-05-05T13:34:26.000Z</time>
      </trkpt>
      <trkpt lat="48.7069" lon="1.72702">
        <ele>184</ele>
        <time>2014-05-05T13:34:29.000Z</time>
      </trkpt>
      <trkpt lat="48.70684" lon="1.72699">
        <ele>184</ele>
        <time>2014-05-05T13:34:33.000Z</time>
      </trkpt>
      <trkpt lat="48.70674" lon="1.72695">
        <ele>183.80000305176</ele>
        <time>2014-05-05T13:34:41.000Z</time>
      </trkpt>
      <trkpt lat="48.70662" lon="1.72697">
        <ele>183.80000305176</ele>
        <time>2014-05-05T13:34:49.000Z</time>
      </trkpt>
      <trkpt lat="48.70655" lon="1.72699">
        <ele>183.60000610352</ele>
        <time>2014-05-05T13:34:53.000Z</time>
      </trkpt>
      <trkpt lat="48.7064" lon="1.72702">
        <ele>183.39999389648</ele>
        <time>2014-05-05T13:35:02.000Z</time>
      </trkpt>
      <trkpt lat="48.70626" lon="1.72707">
        <ele>183.19999694824</ele>
        <time>2014-05-05T13:35:10.000Z</time>
      </trkpt>
      <trkpt lat="48.70615" lon="1.72708">
        <ele>183.19999694824</ele>
        <time>2014-05-05T13:35:16.000Z</time>
      </trkpt>
      <trkpt lat="48.70604" lon="1.72705">
        <ele>183</ele>
        <time>2014-05-05T13:35:23.000Z</time>
      </trkpt>
      <trkpt lat="48.70597" lon="1.72704">
        <ele>182.80000305176</ele>
        <time>2014-05-05T13:35:28.000Z</time>
      </trkpt>
      <trkpt lat="48.70587" lon="1.727">
        <ele>182.19999694824</ele>
        <time>2014-05-05T13:35:34.000Z</time>
      </trkpt>
      <trkpt lat="48.70586" lon="1.727">
        <ele>182.19999694824</ele>
        <time>2014-05-05T13:35:35.000Z</time>
      </trkpt>
      <trkpt lat="48.7058" lon="1.72701">
        <ele>181.80000305176</ele>
        <time>2014-05-05T13:35:39.000Z</time>
      </trkpt>
      <trkpt lat="48.70577" lon="1.72702">
        <ele>181.80000305176</ele>
        <time>2014-05-05T13:35:41.000Z</time>
      </trkpt>
      <trkpt lat="48.70569" lon="1.72705">
        <ele>181.39999389648</ele>
        <time>2014-05-05T13:35:46.000Z</time>
      </trkpt>
      <trkpt lat="48.70561" lon="1.72708">
        <ele>180.80000305176</ele>
        <time>2014-05-05T13:35:53.000Z</time>
      </trkpt>
      <trkpt lat="48.70555" lon="1.7271">
        <ele>180.39999389648</ele>
        <time>2014-05-05T13:35:56.000Z</time>
      </trkpt>
      <trkpt lat="48.70545" lon="1.72716">
        <ele>179.80000305176</ele>
        <time>2014-05-05T13:36:03.000Z</time>
      </trkpt>
      <trkpt lat="48.70535" lon="1.72712">
        <ele>179.19999694824</ele>
        <time>2014-05-05T13:36:09.000Z</time>
      </trkpt>
      <trkpt lat="48.70525" lon="1.72707">
        <ele>178.60000610352</ele>
        <time>2014-05-05T13:36:16.000Z</time>
      </trkpt>
      <trkpt lat="48.70512" lon="1.72703">
        <ele>178.19999694824</ele>
        <time>2014-05-05T13:36:24.000Z</time>
      </trkpt>
      <trkpt lat="48.70502" lon="1.72697">
        <ele>178</ele>
        <time>2014-05-05T13:36:31.000Z</time>
      </trkpt>
      <trkpt lat="48.70496" lon="1.72701">
        <ele>177.80000305176</ele>
        <time>2014-05-05T13:36:36.000Z</time>
      </trkpt>
      <trkpt lat="48.70482" lon="1.727">
        <ele>177.60000610352</ele>
        <time>2014-05-05T13:36:45.000Z</time>
      </trkpt>
      <trkpt lat="48.70472" lon="1.72699">
        <ele>177.19999694824</ele>
        <time>2014-05-05T13:36:52.000Z</time>
      </trkpt>
      <trkpt lat="48.70459" lon="1.72701">
        <ele>177</ele>
        <time>2014-05-05T13:37:00.000Z</time>
      </trkpt>
      <trkpt lat="48.70449" lon="1.72701">
        <ele>176.80000305176</ele>
        <time>2014-05-05T13:37:07.000Z</time>
      </trkpt>
      <trkpt lat="48.70448" lon="1.72702">
        <ele>176.60000610352</ele>
        <time>2014-05-05T13:37:08.000Z</time>
      </trkpt>
      <trkpt lat="48.70436" lon="1.72705">
        <ele>176.39999389648</ele>
        <time>2014-05-05T13:37:16.000Z</time>
      </trkpt>
      <trkpt lat="48.70427" lon="1.72705">
        <ele>176.39999389648</ele>
        <time>2014-05-05T13:37:23.000Z</time>
      </trkpt>
      <trkpt lat="48.70413" lon="1.72708">
        <ele>176.39999389648</ele>
        <time>2014-05-05T13:37:31.000Z</time>
      </trkpt>
      <trkpt lat="48.70412" lon="1.72708">
        <ele>176.39999389648</ele>
        <time>2014-05-05T13:37:32.000Z</time>
      </trkpt>
      <trkpt lat="48.7041" lon="1.72708">
        <ele>176.39999389648</ele>
        <time>2014-05-05T13:37:35.000Z</time>
      </trkpt>
      <trkpt lat="48.70401" lon="1.72707">
        <ele>176.60000610352</ele>
        <time>2014-05-05T13:37:43.000Z</time>
      </trkpt>
      <trkpt lat="48.70398" lon="1.72706">
        <ele>176.60000610352</ele>
        <time>2014-05-05T13:37:45.000Z</time>
      </trkpt>
      <trkpt lat="48.70395" lon="1.72705">
        <ele>176.60000610352</ele>
        <time>2014-05-05T13:37:47.000Z</time>
      </trkpt>
      <trkpt lat="48.70392" lon="1.72704">
        <ele>176.60000610352</ele>
        <time>2014-05-05T13:37:52.000Z</time>
      </trkpt>
      <trkpt lat="48.70385" lon="1.72703">
        <ele>176.80000305176</ele>
        <time>2014-05-05T13:37:58.000Z</time>
      </trkpt>
      <trkpt lat="48.70377" lon="1.72703">
        <ele>177</ele>
        <time>2014-05-05T13:38:04.000Z</time>
      </trkpt>
      <trkpt lat="48.70367" lon="1.72701">
        <ele>177.19999694824</ele>
        <time>2014-05-05T13:38:11.000Z</time>
      </trkpt>
      <trkpt lat="48.70361" lon="1.72701">
        <ele>177.39999389648</ele>
        <time>2014-05-05T13:38:17.000Z</time>
      </trkpt>
      <trkpt lat="48.70355" lon="1.72701">
        <ele>177.60000610352</ele>
        <time>2014-05-05T13:38:22.000Z</time>
      </trkpt>
      <trkpt lat="48.70343" lon="1.72699">
        <ele>177.39999389648</ele>
        <time>2014-05-05T13:38:30.000Z</time>
      </trkpt>
      <trkpt lat="48.70335" lon="1.72699">
        <ele>177.39999389648</ele>
        <time>2014-05-05T13:38:35.000Z</time>
      </trkpt>
      <trkpt lat="48.70324" lon="1.72703">
        <ele>177.19999694824</ele>
        <time>2014-05-05T13:38:42.000Z</time>
      </trkpt>
      <trkpt lat="48.70317" lon="1.72702">
        <ele>177.19999694824</ele>
        <time>2014-05-05T13:38:47.000Z</time>
      </trkpt>
      <trkpt lat="48.70305" lon="1.72703">
        <ele>177.19999694824</ele>
        <time>2014-05-05T13:38:54.000Z</time>
      </trkpt>
      <trkpt lat="48.70295" lon="1.72702">
        <ele>177.19999694824</ele>
        <time>2014-05-05T13:39:01.000Z</time>
      </trkpt>
      <trkpt lat="48.70288" lon="1.72702">
        <ele>177.19999694824</ele>
        <time>2014-05-05T13:39:07.000Z</time>
      </trkpt>
      <trkpt lat="48.70276" lon="1.72705">
        <ele>177.19999694824</ele>
        <time>2014-05-05T13:39:15.000Z</time>
      </trkpt>
      <trkpt lat="48.70267" lon="1.72704">
        <ele>177.39999389648</ele>
        <time>2014-05-05T13:39:21.000Z</time>
      </trkpt>
      <trkpt lat="48.70253" lon="1.72706">
        <ele>178</ele>
        <time>2014-05-05T13:39:29.000Z</time>
      </trkpt>
      <trkpt lat="48.70242" lon="1.72706">
        <ele>178.60000610352</ele>
        <time>2014-05-05T13:39:36.000Z</time>
      </trkpt>
      <trkpt lat="48.70233" lon="1.72706">
        <ele>178.60000610352</ele>
        <time>2014-05-05T13:39:42.000Z</time>
      </trkpt>
      <trkpt lat="48.70224" lon="1.72704">
        <ele>178.39999389648</ele>
        <time>2014-05-05T13:39:48.000Z</time>
      </trkpt>
      <trkpt lat="48.7022" lon="1.72704">
        <ele>178.39999389648</ele>
        <time>2014-05-05T13:39:51.000Z</time>
      </trkpt>
      <trkpt lat="48.70212" lon="1.72702">
        <ele>178.19999694824</ele>
        <time>2014-05-05T13:39:57.000Z</time>
      </trkpt>
      <trkpt lat="48.70201" lon="1.72703">
        <ele>178</ele>
        <time>2014-05-05T13:40:03.000Z</time>
      </trkpt>
      <trkpt lat="48.70188" lon="1.72705">
        <ele>177.60000610352</ele>
        <time>2014-05-05T13:40:11.000Z</time>
      </trkpt>
      <trkpt lat="48.70172" lon="1.72709">
        <ele>177.19999694824</ele>
        <time>2014-05-05T13:40:19.000Z</time>
      </trkpt>
      <trkpt lat="48.70168" lon="1.72714">
        <ele>176.80000305176</ele>
        <time>2014-05-05T13:40:24.000Z</time>
      </trkpt>
      <trkpt lat="48.70169" lon="1.72715">
        <ele>176.80000305176</ele>
        <time>2014-05-05T13:40:25.000Z</time>
      </trkpt>
      <trkpt lat="48.7017" lon="1.72722">
        <ele>176.60000610352</ele>
        <time>2014-05-05T13:40:32.000Z</time>
      </trkpt>
      <trkpt lat="48.70173" lon="1.72728">
        <ele>176.60000610352</ele>
        <time>2014-05-05T13:40:38.000Z</time>
      </trkpt>
      <trkpt lat="48.70167" lon="1.7274">
        <ele>177.19999694824</ele>
        <time>2014-05-05T13:40:43.000Z</time>
      </trkpt>
      <trkpt lat="48.70163" lon="1.72748">
        <ele>177.19999694824</ele>
        <time>2014-05-05T13:40:47.000Z</time>
      </trkpt>
      <trkpt lat="48.70158" lon="1.72763">
        <ele>177.39999389648</ele>
        <time>2014-05-05T13:40:54.000Z</time>
      </trkpt>
      <trkpt lat="48.70155" lon="1.72775">
        <ele>177.39999389648</ele>
        <time>2014-05-05T13:40:59.000Z</time>
      </trkpt>
      <trkpt lat="48.70151" lon="1.72784">
        <ele>177.60000610352</ele>
        <time>2014-05-05T13:41:03.000Z</time>
      </trkpt>
      <trkpt lat="48.70145" lon="1.72798">
        <ele>178</ele>
        <time>2014-05-05T13:41:09.000Z</time>
      </trkpt>
      <trkpt lat="48.70144" lon="1.72807">
        <ele>178</ele>
        <time>2014-05-05T13:41:14.000Z</time>
      </trkpt>
      <trkpt lat="48.70139" lon="1.72819">
        <ele>178.39999389648</ele>
        <time>2014-05-05T13:41:19.000Z</time>
      </trkpt>
      <trkpt lat="48.70136" lon="1.72825">
        <ele>178.60000610352</ele>
        <time>2014-05-05T13:41:21.000Z</time>
      </trkpt>
      <trkpt lat="48.70133" lon="1.72834">
        <ele>178.60000610352</ele>
        <time>2014-05-05T13:41:25.000Z</time>
      </trkpt>
      <trkpt lat="48.70129" lon="1.72842">
        <ele>178.60000610352</ele>
        <time>2014-05-05T13:41:29.000Z</time>
      </trkpt>
      <trkpt lat="48.70129" lon="1.72846">
        <ele>178.60000610352</ele>
        <time>2014-05-05T13:41:34.000Z</time>
      </trkpt>
      <trkpt lat="48.70133" lon="1.72846">
        <ele>178.19999694824</ele>
        <time>2014-05-05T13:42:02.000Z</time>
      </trkpt>
      <trkpt lat="48.70126" lon="1.72859">
        <ele>178.39999389648</ele>
        <time>2014-05-05T13:42:07.000Z</time>
      </trkpt>
      <trkpt lat="48.70119" lon="1.72872">
        <ele>178.60000610352</ele>
        <time>2014-05-05T13:42:14.000Z</time>
      </trkpt>
      <trkpt lat="48.70117" lon="1.7288">
        <ele>178.60000610352</ele>
        <time>2014-05-05T13:42:18.000Z</time>
      </trkpt>
      <trkpt lat="48.70113" lon="1.72891">
        <ele>178.60000610352</ele>
        <time>2014-05-05T13:42:23.000Z</time>
      </trkpt>
      <trkpt lat="48.70112" lon="1.72894">
        <ele>178.60000610352</ele>
        <time>2014-05-05T13:42:25.000Z</time>
      </trkpt>
      <trkpt lat="48.70111" lon="1.72905">
        <ele>178.39999389648</ele>
        <time>2014-05-05T13:42:31.000Z</time>
      </trkpt>
      <trkpt lat="48.70109" lon="1.72916">
        <ele>178.80000305176</ele>
        <time>2014-05-05T13:42:36.000Z</time>
      </trkpt>
      <trkpt lat="48.70106" lon="1.72925">
        <ele>179</ele>
        <time>2014-05-05T13:42:40.000Z</time>
      </trkpt>
      <trkpt lat="48.70103" lon="1.7293">
        <ele>179.39999389648</ele>
        <time>2014-05-05T13:42:42.000Z</time>
      </trkpt>
      <trkpt lat="48.70095" lon="1.72946">
        <ele>180</ele>
        <time>2014-05-05T13:42:49.000Z</time>
      </trkpt>
      <trkpt lat="48.70093" lon="1.7295">
        <ele>180.19999694824</ele>
        <time>2014-05-05T13:42:51.000Z</time>
      </trkpt>
      <trkpt lat="48.70088" lon="1.72966">
        <ele>180.80000305176</ele>
        <time>2014-05-05T13:42:58.000Z</time>
      </trkpt>
      <trkpt lat="48.70084" lon="1.72982">
        <ele>181.60000610352</ele>
        <time>2014-05-05T13:43:06.000Z</time>
      </trkpt>
      <trkpt lat="48.70084" lon="1.72988">
        <ele>181.80000305176</ele>
        <time>2014-05-05T13:43:10.000Z</time>
      </trkpt>
      <trkpt lat="48.70077" lon="1.73001">
        <ele>182.80000305176</ele>
        <time>2014-05-05T13:43:16.000Z</time>
      </trkpt>
      <trkpt lat="48.70076" lon="1.73011">
        <ele>183</ele>
        <time>2014-05-05T13:43:20.000Z</time>
      </trkpt>
      <trkpt lat="48.70074" lon="1.73017">
        <ele>183.19999694824</ele>
        <time>2014-05-05T13:43:22.000Z</time>
      </trkpt>
      <trkpt lat="48.70067" lon="1.73034">
        <ele>184</ele>
        <time>2014-05-05T13:43:30.000Z</time>
      </trkpt>
      <trkpt lat="48.70065" lon="1.73045">
        <ele>184</ele>
        <time>2014-05-05T13:43:35.000Z</time>
      </trkpt>
      <trkpt lat="48.70063" lon="1.73055">
        <ele>183.80000305176</ele>
        <time>2014-05-05T13:43:41.000Z</time>
      </trkpt>
      <trkpt lat="48.70061" lon="1.73065">
        <ele>183.60000610352</ele>
        <time>2014-05-05T13:43:45.000Z</time>
      </trkpt>
      <trkpt lat="48.70052" lon="1.73086">
        <ele>184</ele>
        <time>2014-05-05T13:43:54.000Z</time>
      </trkpt>
      <trkpt lat="48.70049" lon="1.73089">
        <ele>184.19999694824</ele>
        <time>2014-05-05T13:43:56.000Z</time>
      </trkpt>
      <trkpt lat="48.70048" lon="1.73096">
        <ele>184.39999389648</ele>
        <time>2014-05-05T13:44:00.000Z</time>
      </trkpt>
      <trkpt lat="48.70041" lon="1.73117">
        <ele>183.80000305176</ele>
        <time>2014-05-05T13:44:10.000Z</time>
      </trkpt>
      <trkpt lat="48.70039" lon="1.73123">
        <ele>183.60000610352</ele>
        <time>2014-05-05T13:44:14.000Z</time>
      </trkpt>
      <trkpt lat="48.70031" lon="1.73135">
        <ele>183.39999389648</ele>
        <time>2014-05-05T13:44:22.000Z</time>
      </trkpt>
      <trkpt lat="48.7003" lon="1.73136">
        <ele>183.39999389648</ele>
        <time>2014-05-05T13:44:23.000Z</time>
      </trkpt>
      <trkpt lat="48.70026" lon="1.73149">
        <ele>183</ele>
        <time>2014-05-05T13:44:29.000Z</time>
      </trkpt>
      <trkpt lat="48.70024" lon="1.73162">
        <ele>182.60000610352</ele>
        <time>2014-05-05T13:44:35.000Z</time>
      </trkpt>
      <trkpt lat="48.70023" lon="1.73163">
        <ele>182.60000610352</ele>
        <time>2014-05-05T13:44:36.000Z</time>
      </trkpt>
      <trkpt lat="48.70016" lon="1.7318">
        <ele>181.19999694824</ele>
        <time>2014-05-05T13:44:42.000Z</time>
      </trkpt>
      <trkpt lat="48.70007" lon="1.73199">
        <ele>179.39999389648</ele>
        <time>2014-05-05T13:44:50.000Z</time>
      </trkpt>
      <trkpt lat="48.70003" lon="1.73208">
        <ele>178.80000305176</ele>
        <time>2014-05-05T13:44:55.000Z</time>
      </trkpt>
      <trkpt lat="48.70002" lon="1.73209">
        <ele>178.60000610352</ele>
        <time>2014-05-05T13:44:56.000Z</time>
      </trkpt>
      <trkpt lat="48.7" lon="1.7322">
        <ele>177.80000305176</ele>
        <time>2014-05-05T13:45:04.000Z</time>
      </trkpt>
      <trkpt lat="48.69992" lon="1.73231">
        <ele>177.19999694824</ele>
        <time>2014-05-05T13:45:11.000Z</time>
      </trkpt>
      <trkpt lat="48.69987" lon="1.73237">
        <ele>176.80000305176</ele>
        <time>2014-05-05T13:45:15.000Z</time>
      </trkpt>
      <trkpt lat="48.69981" lon="1.7325">
        <ele>176.80000305176</ele>
        <time>2014-05-05T13:45:21.000Z</time>
      </trkpt>
      <trkpt lat="48.69974" lon="1.73257">
        <ele>176.60000610352</ele>
        <time>2014-05-05T13:45:27.000Z</time>
      </trkpt>
      <trkpt lat="48.69971" lon="1.73268">
        <ele>176.60000610352</ele>
        <time>2014-05-05T13:45:32.000Z</time>
      </trkpt>
      <trkpt lat="48.69969" lon="1.73276">
        <ele>176.80000305176</ele>
        <time>2014-05-05T13:45:37.000Z</time>
      </trkpt>
      <trkpt lat="48.69966" lon="1.73281">
        <ele>176.80000305176</ele>
        <time>2014-05-05T13:45:40.000Z</time>
      </trkpt>
      <trkpt lat="48.69959" lon="1.73293">
        <ele>176.80000305176</ele>
        <time>2014-05-05T13:45:47.000Z</time>
      </trkpt>
      <trkpt lat="48.69957" lon="1.73298">
        <ele>177</ele>
        <time>2014-05-05T13:45:49.000Z</time>
      </trkpt>
      <trkpt lat="48.69953" lon="1.73304">
        <ele>177</ele>
        <time>2014-05-05T13:45:53.000Z</time>
      </trkpt>
      <trkpt lat="48.69949" lon="1.73314">
        <ele>177.19999694824</ele>
        <time>2014-05-05T13:45:59.000Z</time>
      </trkpt>
      <trkpt lat="48.69943" lon="1.73324">
        <ele>177.19999694824</ele>
        <time>2014-05-05T13:46:04.000Z</time>
      </trkpt>
      <trkpt lat="48.69941" lon="1.73329">
        <ele>177.19999694824</ele>
        <time>2014-05-05T13:46:06.000Z</time>
      </trkpt>
      <trkpt lat="48.69934" lon="1.73339">
        <ele>177.39999389648</ele>
        <time>2014-05-05T13:46:12.000Z</time>
      </trkpt>
      <trkpt lat="48.6993" lon="1.73346">
        <ele>177.60000610352</ele>
        <time>2014-05-05T13:46:16.000Z</time>
      </trkpt>
      <trkpt lat="48.69926" lon="1.73354">
        <ele>178</ele>
        <time>2014-05-05T13:46:21.000Z</time>
      </trkpt>
      <trkpt lat="48.69922" lon="1.73368">
        <ele>178.39999389648</ele>
        <time>2014-05-05T13:46:27.000Z</time>
      </trkpt>
      <trkpt lat="48.69919" lon="1.73375">
        <ele>178.60000610352</ele>
        <time>2014-05-05T13:46:31.000Z</time>
      </trkpt>
      <trkpt lat="48.69913" lon="1.73386">
        <ele>178.80000305176</ele>
        <time>2014-05-05T13:46:37.000Z</time>
      </trkpt>
      <trkpt lat="48.69907" lon="1.73396">
        <ele>179</ele>
        <time>2014-05-05T13:46:42.000Z</time>
      </trkpt>
      <trkpt lat="48.69906" lon="1.73398">
        <ele>179</ele>
        <time>2014-05-05T13:46:43.000Z</time>
      </trkpt>
      <trkpt lat="48.69901" lon="1.7341">
        <ele>178.80000305176</ele>
        <time>2014-05-05T13:46:49.000Z</time>
      </trkpt>
      <trkpt lat="48.69894" lon="1.73424">
        <ele>178.19999694824</ele>
        <time>2014-05-05T13:46:56.000Z</time>
      </trkpt>
      <trkpt lat="48.69886" lon="1.73436">
        <ele>177.80000305176</ele>
        <time>2014-05-05T13:47:02.000Z</time>
      </trkpt>
      <trkpt lat="48.69881" lon="1.73447">
        <ele>178</ele>
        <time>2014-05-05T13:47:08.000Z</time>
      </trkpt>
      <trkpt lat="48.69878" lon="1.73456">
        <ele>178</ele>
        <time>2014-05-05T13:47:13.000Z</time>
      </trkpt>
      <trkpt lat="48.69878" lon="1.73459">
        <ele>178.19999694824</ele>
        <time>2014-05-05T13:47:14.000Z</time>
      </trkpt>
      <trkpt lat="48.69879" lon="1.7347">
        <ele>178</ele>
        <time>2014-05-05T13:47:19.000Z</time>
      </trkpt>
      <trkpt lat="48.69882" lon="1.73484">
        <ele>178</ele>
        <time>2014-05-05T13:47:27.000Z</time>
      </trkpt>
      <trkpt lat="48.69889" lon="1.73497">
        <ele>177.80000305176</ele>
        <time>2014-05-05T13:47:34.000Z</time>
      </trkpt>
      <trkpt lat="48.69892" lon="1.73501">
        <ele>177.60000610352</ele>
        <time>2014-05-05T13:47:37.000Z</time>
      </trkpt>
      <trkpt lat="48.69898" lon="1.73511">
        <ele>177.39999389648</ele>
        <time>2014-05-05T13:47:43.000Z</time>
      </trkpt>
      <trkpt lat="48.69899" lon="1.73512">
        <ele>177.39999389648</ele>
        <time>2014-05-05T13:47:44.000Z</time>
      </trkpt>
      <trkpt lat="48.69901" lon="1.73517">
        <ele>177.19999694824</ele>
        <time>2014-05-05T13:47:47.000Z</time>
      </trkpt>
      <trkpt lat="48.69913" lon="1.73523">
        <ele>176.80000305176</ele>
        <time>2014-05-05T13:47:54.000Z</time>
      </trkpt>
      <trkpt lat="48.69923" lon="1.73528">
        <ele>176.39999389648</ele>
        <time>2014-05-05T13:48:01.000Z</time>
      </trkpt>
      <trkpt lat="48.69924" lon="1.73533">
        <ele>176.39999389648</ele>
        <time>2014-05-05T13:48:04.000Z</time>
      </trkpt>
      <trkpt lat="48.69932" lon="1.73545">
        <ele>176.19999694824</ele>
        <time>2014-05-05T13:48:11.000Z</time>
      </trkpt>
      <trkpt lat="48.69939" lon="1.73553">
        <ele>176</ele>
        <time>2014-05-05T13:48:17.000Z</time>
      </trkpt>
      <trkpt lat="48.69946" lon="1.73558">
        <ele>176.19999694824</ele>
        <time>2014-05-05T13:48:22.000Z</time>
      </trkpt>
      <trkpt lat="48.6995" lon="1.73561">
        <ele>176.19999694824</ele>
        <time>2014-05-05T13:48:24.000Z</time>
      </trkpt>
      <trkpt lat="48.69959" lon="1.73573">
        <ele>176.39999389648</ele>
        <time>2014-05-05T13:48:30.000Z</time>
      </trkpt>
      <trkpt lat="48.69961" lon="1.73577">
        <ele>176.39999389648</ele>
        <time>2014-05-05T13:48:32.000Z</time>
      </trkpt>
      <trkpt lat="48.69968" lon="1.73587">
        <ele>176.80000305176</ele>
        <time>2014-05-05T13:48:38.000Z</time>
      </trkpt>
      <trkpt lat="48.69972" lon="1.73594">
        <ele>177</ele>
        <time>2014-05-05T13:48:42.000Z</time>
      </trkpt>
      <trkpt lat="48.69977" lon="1.73603">
        <ele>177.19999694824</ele>
        <time>2014-05-05T13:48:47.000Z</time>
      </trkpt>
      <trkpt lat="48.69978" lon="1.73606">
        <ele>177.39999389648</ele>
        <time>2014-05-05T13:48:49.000Z</time>
      </trkpt>
      <trkpt lat="48.69985" lon="1.73614">
        <ele>177.60000610352</ele>
        <time>2014-05-05T13:48:54.000Z</time>
      </trkpt>
      <trkpt lat="48.69991" lon="1.73624">
        <ele>178</ele>
        <time>2014-05-05T13:48:59.000Z</time>
      </trkpt>
      <trkpt lat="48.70001" lon="1.73631">
        <ele>178.19999694824</ele>
        <time>2014-05-05T13:49:05.000Z</time>
      </trkpt>
      <trkpt lat="48.70005" lon="1.73633">
        <ele>178.39999389648</ele>
        <time>2014-05-05T13:49:13.000Z</time>
      </trkpt>
      <trkpt lat="48.70009" lon="1.73632">
        <ele>178.39999389648</ele>
        <time>2014-05-05T13:49:17.000Z</time>
      </trkpt>
      <trkpt lat="48.7001" lon="1.73651">
        <ele>178.80000305176</ele>
        <time>2014-05-05T13:49:31.000Z</time>
      </trkpt>
      <trkpt lat="48.70013" lon="1.73661">
        <ele>178.80000305176</ele>
        <time>2014-05-05T13:49:35.000Z</time>
      </trkpt>
      <trkpt lat="48.70022" lon="1.73672">
        <ele>178.80000305176</ele>
        <time>2014-05-05T13:49:42.000Z</time>
      </trkpt>
      <trkpt lat="48.70029" lon="1.73686">
        <ele>178.60000610352</ele>
        <time>2014-05-05T13:49:50.000Z</time>
      </trkpt>
      <trkpt lat="48.70036" lon="1.73697">
        <ele>178.39999389648</ele>
        <time>2014-05-05T13:49:57.000Z</time>
      </trkpt>
      <trkpt lat="48.70042" lon="1.737">
        <ele>178.39999389648</ele>
        <time>2014-05-05T13:50:00.000Z</time>
      </trkpt>
      <trkpt lat="48.70047" lon="1.73705">
        <ele>178.39999389648</ele>
        <time>2014-05-05T13:50:04.000Z</time>
      </trkpt>
      <trkpt lat="48.70056" lon="1.73713">
        <ele>178.19999694824</ele>
        <time>2014-05-05T13:50:11.000Z</time>
      </trkpt>
      <trkpt lat="48.70064" lon="1.73714">
        <ele>178.19999694824</ele>
        <time>2014-05-05T13:50:15.000Z</time>
      </trkpt>
      <trkpt lat="48.7007" lon="1.7372">
        <ele>178.19999694824</ele>
        <time>2014-05-05T13:50:21.000Z</time>
      </trkpt>
      <trkpt lat="48.70076" lon="1.73726">
        <ele>178.19999694824</ele>
        <time>2014-05-05T13:50:28.000Z</time>
      </trkpt>
      <trkpt lat="48.70083" lon="1.73733">
        <ele>178</ele>
        <time>2014-05-05T13:50:34.000Z</time>
      </trkpt>
      <trkpt lat="48.7009" lon="1.73735">
        <ele>178</ele>
        <time>2014-05-05T13:50:40.000Z</time>
      </trkpt>
      <trkpt lat="48.70095" lon="1.73736">
        <ele>178</ele>
        <time>2014-05-05T13:50:43.000Z</time>
      </trkpt>
      <trkpt lat="48.70101" lon="1.73736">
        <ele>178</ele>
        <time>2014-05-05T13:50:46.000Z</time>
      </trkpt>
      <trkpt lat="48.7011" lon="1.73741">
        <ele>178</ele>
        <time>2014-05-05T13:50:50.000Z</time>
      </trkpt>
      <trkpt lat="48.70118" lon="1.73755">
        <ele>178</ele>
        <time>2014-05-05T13:50:57.000Z</time>
      </trkpt>
      <trkpt lat="48.70121" lon="1.73759">
        <ele>178</ele>
        <time>2014-05-05T13:50:59.000Z</time>
      </trkpt>
      <trkpt lat="48.70126" lon="1.73772">
        <ele>178</ele>
        <time>2014-05-05T13:51:06.000Z</time>
      </trkpt>
      <trkpt lat="48.70132" lon="1.73781">
        <ele>178</ele>
        <time>2014-05-05T13:51:13.000Z</time>
      </trkpt>
      <trkpt lat="48.70137" lon="1.73784">
        <ele>178</ele>
        <time>2014-05-05T13:51:16.000Z</time>
      </trkpt>
      <trkpt lat="48.7014" lon="1.73786">
        <ele>178</ele>
        <time>2014-05-05T13:51:18.000Z</time>
      </trkpt>
      <trkpt lat="48.70149" lon="1.73792">
        <ele>178</ele>
        <time>2014-05-05T13:51:24.000Z</time>
      </trkpt>
      <trkpt lat="48.70156" lon="1.73797">
        <ele>178</ele>
        <time>2014-05-05T13:51:29.000Z</time>
      </trkpt>
      <trkpt lat="48.70157" lon="1.73797">
        <ele>178</ele>
        <time>2014-05-05T13:51:30.000Z</time>
      </trkpt>
      <trkpt lat="48.70167" lon="1.73805">
        <ele>178</ele>
        <time>2014-05-05T13:51:37.000Z</time>
      </trkpt>
      <trkpt lat="48.70172" lon="1.73811">
        <ele>178</ele>
        <time>2014-05-05T13:51:40.000Z</time>
      </trkpt>
      <trkpt lat="48.70176" lon="1.73823">
        <ele>178</ele>
        <time>2014-05-05T13:51:46.000Z</time>
      </trkpt>
      <trkpt lat="48.70179" lon="1.73834">
        <ele>178</ele>
        <time>2014-05-05T13:51:51.000Z</time>
      </trkpt>
      <trkpt lat="48.70181" lon="1.73836">
        <ele>178</ele>
        <time>2014-05-05T13:51:53.000Z</time>
      </trkpt>
      <trkpt lat="48.70189" lon="1.73846">
        <ele>178</ele>
        <time>2014-05-05T13:52:00.000Z</time>
      </trkpt>
      <trkpt lat="48.7019" lon="1.73849">
        <ele>178</ele>
        <time>2014-05-05T13:52:02.000Z</time>
      </trkpt>
      <trkpt lat="48.70197" lon="1.73856">
        <ele>178</ele>
        <time>2014-05-05T13:52:08.000Z</time>
      </trkpt>
      <trkpt lat="48.70203" lon="1.7386">
        <ele>178</ele>
        <time>2014-05-05T13:52:12.000Z</time>
      </trkpt>
      <trkpt lat="48.70207" lon="1.73863">
        <ele>178</ele>
        <time>2014-05-05T13:52:15.000Z</time>
      </trkpt>
      <trkpt lat="48.70214" lon="1.73869">
        <ele>178</ele>
        <time>2014-05-05T13:52:21.000Z</time>
      </trkpt>
      <trkpt lat="48.70222" lon="1.73874">
        <ele>178</ele>
        <time>2014-05-05T13:52:26.000Z</time>
      </trkpt>
      <trkpt lat="48.70234" lon="1.73884">
        <ele>178</ele>
        <time>2014-05-05T13:52:35.000Z</time>
      </trkpt>
      <trkpt lat="48.70243" lon="1.73891">
        <ele>178</ele>
        <time>2014-05-05T13:52:43.000Z</time>
      </trkpt>
      <trkpt lat="48.70251" lon="1.73898">
        <ele>178</ele>
        <time>2014-05-05T13:52:49.000Z</time>
      </trkpt>
      <trkpt lat="48.7026" lon="1.73908">
        <ele>178.19999694824</ele>
        <time>2014-05-05T13:52:56.000Z</time>
      </trkpt>
      <trkpt lat="48.70262" lon="1.73909">
        <ele>178.19999694824</ele>
        <time>2014-05-05T13:52:57.000Z</time>
      </trkpt>
      <trkpt lat="48.70268" lon="1.73918">
        <ele>178.60000610352</ele>
        <time>2014-05-05T13:53:02.000Z</time>
      </trkpt>
      <trkpt lat="48.70274" lon="1.73927">
        <ele>178.80000305176</ele>
        <time>2014-05-05T13:53:07.000Z</time>
      </trkpt>
      <trkpt lat="48.70278" lon="1.73931">
        <ele>178.80000305176</ele>
        <time>2014-05-05T13:53:10.000Z</time>
      </trkpt>
      <trkpt lat="48.7028" lon="1.73937">
        <ele>179</ele>
        <time>2014-05-05T13:53:14.000Z</time>
      </trkpt>
      <trkpt lat="48.70287" lon="1.7395">
        <ele>179.39999389648</ele>
        <time>2014-05-05T13:53:21.000Z</time>
      </trkpt>
      <trkpt lat="48.70293" lon="1.73954">
        <ele>179.60000610352</ele>
        <time>2014-05-05T13:53:24.000Z</time>
      </trkpt>
      <trkpt lat="48.70297" lon="1.73959">
        <ele>179.60000610352</ele>
        <time>2014-05-05T13:53:28.000Z</time>
      </trkpt>
      <trkpt lat="48.703" lon="1.73965">
        <ele>179.80000305176</ele>
        <time>2014-05-05T13:53:32.000Z</time>
      </trkpt>
      <trkpt lat="48.70305" lon="1.73979">
        <ele>180.19999694824</ele>
        <time>2014-05-05T13:53:39.000Z</time>
      </trkpt>
      <trkpt lat="48.70308" lon="1.73986">
        <ele>180.39999389648</ele>
        <time>2014-05-05T13:53:45.000Z</time>
      </trkpt>
      <trkpt lat="48.70314" lon="1.73993">
        <ele>180.39999389648</ele>
        <time>2014-05-05T13:53:49.000Z</time>
      </trkpt>
      <trkpt lat="48.70321" lon="1.73999">
        <ele>180.39999389648</ele>
        <time>2014-05-05T13:53:53.000Z</time>
      </trkpt>
      <trkpt lat="48.70327" lon="1.74007">
        <ele>180.39999389648</ele>
        <time>2014-05-05T13:53:58.000Z</time>
      </trkpt>
      <trkpt lat="48.70329" lon="1.74008">
        <ele>180.19999694824</ele>
        <time>2014-05-05T13:53:59.000Z</time>
      </trkpt>
      <trkpt lat="48.7034" lon="1.7402">
        <ele>180.19999694824</ele>
        <time>2014-05-05T13:54:07.000Z</time>
      </trkpt>
      <trkpt lat="48.70349" lon="1.74026">
        <ele>180</ele>
        <time>2014-05-05T13:54:12.000Z</time>
      </trkpt>
      <trkpt lat="48.70354" lon="1.74029">
        <ele>180</ele>
        <time>2014-05-05T13:54:16.000Z</time>
      </trkpt>
      <trkpt lat="48.7036" lon="1.74033">
        <ele>179.80000305176</ele>
        <time>2014-05-05T13:54:21.000Z</time>
      </trkpt>
      <trkpt lat="48.70363" lon="1.74039">
        <ele>179.80000305176</ele>
        <time>2014-05-05T13:54:27.000Z</time>
      </trkpt>
      <trkpt lat="48.70373" lon="1.74047">
        <ele>179.60000610352</ele>
        <time>2014-05-05T13:54:32.000Z</time>
      </trkpt>
      <trkpt lat="48.70383" lon="1.74056">
        <ele>179.19999694824</ele>
        <time>2014-05-05T13:54:37.000Z</time>
      </trkpt>
      <trkpt lat="48.7039" lon="1.74063">
        <ele>179.19999694824</ele>
        <time>2014-05-05T13:54:44.000Z</time>
      </trkpt>
      <trkpt lat="48.70394" lon="1.74065">
        <ele>179</ele>
        <time>2014-05-05T13:54:47.000Z</time>
      </trkpt>
      <trkpt lat="48.70403" lon="1.74074">
        <ele>178.80000305176</ele>
        <time>2014-05-05T13:54:53.000Z</time>
      </trkpt>
      <trkpt lat="48.70409" lon="1.74077">
        <ele>178.60000610352</ele>
        <time>2014-05-05T13:54:57.000Z</time>
      </trkpt>
      <trkpt lat="48.70422" lon="1.7409">
        <ele>178.39999389648</ele>
        <time>2014-05-05T13:55:05.000Z</time>
      </trkpt>
      <trkpt lat="48.70423" lon="1.74091">
        <ele>178.39999389648</ele>
        <time>2014-05-05T13:55:06.000Z</time>
      </trkpt>
      <trkpt lat="48.70426" lon="1.74095">
        <ele>178.19999694824</ele>
        <time>2014-05-05T13:55:09.000Z</time>
      </trkpt>
      <trkpt lat="48.7043" lon="1.74105">
        <ele>178.19999694824</ele>
        <time>2014-05-05T13:55:14.000Z</time>
      </trkpt>
      <trkpt lat="48.70432" lon="1.74108">
        <ele>178.19999694824</ele>
        <time>2014-05-05T13:55:15.000Z</time>
      </trkpt>
      <trkpt lat="48.70438" lon="1.74118">
        <ele>178</ele>
        <time>2014-05-05T13:55:20.000Z</time>
      </trkpt>
      <trkpt lat="48.7044" lon="1.74124">
        <ele>178</ele>
        <time>2014-05-05T13:55:24.000Z</time>
      </trkpt>
      <trkpt lat="48.70442" lon="1.74127">
        <ele>178</ele>
        <time>2014-05-05T13:55:26.000Z</time>
      </trkpt>
      <trkpt lat="48.70447" lon="1.74132">
        <ele>178</ele>
        <time>2014-05-05T13:55:30.000Z</time>
      </trkpt>
      <trkpt lat="48.7045" lon="1.74132">
        <ele>178</ele>
        <time>2014-05-05T13:55:32.000Z</time>
      </trkpt>
      <trkpt lat="48.70454" lon="1.74135">
        <ele>178</ele>
        <time>2014-05-05T13:55:35.000Z</time>
      </trkpt>
      <trkpt lat="48.70462" lon="1.74146">
        <ele>178</ele>
        <time>2014-05-05T13:55:42.000Z</time>
      </trkpt>
      <trkpt lat="48.70463" lon="1.74147">
        <ele>178</ele>
        <time>2014-05-05T13:55:43.000Z</time>
      </trkpt>
      <trkpt lat="48.70464" lon="1.74152">
        <ele>178</ele>
        <time>2014-05-05T13:55:45.000Z</time>
      </trkpt>
      <trkpt lat="48.70473" lon="1.74157">
        <ele>178</ele>
        <time>2014-05-05T13:55:50.000Z</time>
      </trkpt>
      <trkpt lat="48.7048" lon="1.74166">
        <ele>178</ele>
        <time>2014-05-05T13:55:55.000Z</time>
      </trkpt>
      <trkpt lat="48.70483" lon="1.74175">
        <ele>178</ele>
        <time>2014-05-05T13:55:59.000Z</time>
      </trkpt>
      <trkpt lat="48.70491" lon="1.74188">
        <ele>178</ele>
        <time>2014-05-05T13:56:06.000Z</time>
      </trkpt>
      <trkpt lat="48.70494" lon="1.7419">
        <ele>178</ele>
        <time>2014-05-05T13:56:08.000Z</time>
      </trkpt>
      <trkpt lat="48.705" lon="1.74195">
        <ele>178</ele>
        <time>2014-05-05T13:56:12.000Z</time>
      </trkpt>
      <trkpt lat="48.7051" lon="1.74202">
        <ele>178</ele>
        <time>2014-05-05T13:56:18.000Z</time>
      </trkpt>
      <trkpt lat="48.7051" lon="1.74211">
        <ele>178</ele>
        <time>2014-05-05T13:56:21.000Z</time>
      </trkpt>
      <trkpt lat="48.70517" lon="1.74218">
        <ele>178</ele>
        <time>2014-05-05T13:56:26.000Z</time>
      </trkpt>
      <trkpt lat="48.70516" lon="1.74231">
        <ele>178</ele>
        <time>2014-05-05T13:56:34.000Z</time>
      </trkpt>
      <trkpt lat="48.70514" lon="1.74245">
        <ele>178.19999694824</ele>
        <time>2014-05-05T13:56:39.000Z</time>
      </trkpt>
      <trkpt lat="48.70513" lon="1.74247">
        <ele>178.19999694824</ele>
        <time>2014-05-05T13:56:40.000Z</time>
      </trkpt>
      <trkpt lat="48.70508" lon="1.74257">
        <ele>178.39999389648</ele>
        <time>2014-05-05T13:56:43.000Z</time>
      </trkpt>
      <trkpt lat="48.70506" lon="1.74274">
        <ele>178.60000610352</ele>
        <time>2014-05-05T13:56:49.000Z</time>
      </trkpt>
      <trkpt lat="48.70511" lon="1.74282">
        <ele>178.60000610352</ele>
        <time>2014-05-05T13:56:54.000Z</time>
      </trkpt>
      <trkpt lat="48.7051" lon="1.74283">
        <ele>178.60000610352</ele>
        <time>2014-05-05T13:56:55.000Z</time>
      </trkpt>
      <trkpt lat="48.70509" lon="1.74294">
        <ele>178.80000305176</ele>
        <time>2014-05-05T13:56:59.000Z</time>
      </trkpt>
      <trkpt lat="48.70507" lon="1.74299">
        <ele>178.80000305176</ele>
        <time>2014-05-05T13:57:01.000Z</time>
      </trkpt>
      <trkpt lat="48.70507" lon="1.74312">
        <ele>179</ele>
        <time>2014-05-05T13:57:07.000Z</time>
      </trkpt>
      <trkpt lat="48.70506" lon="1.74322">
        <ele>178.80000305176</ele>
        <time>2014-05-05T13:57:11.000Z</time>
      </trkpt>
      <trkpt lat="48.70506" lon="1.74328">
        <ele>179</ele>
        <time>2014-05-05T13:57:13.000Z</time>
      </trkpt>
      <trkpt lat="48.70506" lon="1.7434">
        <ele>179.19999694824</ele>
        <time>2014-05-05T13:57:18.000Z</time>
      </trkpt>
      <trkpt lat="48.70501" lon="1.74361">
        <ele>179.80000305176</ele>
        <time>2014-05-05T13:57:26.000Z</time>
      </trkpt>
      <trkpt lat="48.705" lon="1.74365">
        <ele>179.80000305176</ele>
        <time>2014-05-05T13:57:28.000Z</time>
      </trkpt>
      <trkpt lat="48.705" lon="1.7438">
        <ele>180.19999694824</ele>
        <time>2014-05-05T13:57:34.000Z</time>
      </trkpt>
      <trkpt lat="48.70502" lon="1.74384">
        <ele>180.19999694824</ele>
        <time>2014-05-05T13:57:36.000Z</time>
      </trkpt>
      <trkpt lat="48.70505" lon="1.74388">
        <ele>180.39999389648</ele>
        <time>2014-05-05T13:57:39.000Z</time>
      </trkpt>
      <trkpt lat="48.70507" lon="1.74399">
        <ele>180.39999389648</ele>
        <time>2014-05-05T13:57:45.000Z</time>
      </trkpt>
      <trkpt lat="48.70508" lon="1.74402">
        <ele>180.39999389648</ele>
        <time>2014-05-05T13:57:46.000Z</time>
      </trkpt>
      <trkpt lat="48.70511" lon="1.74411">
        <ele>180.60000610352</ele>
        <time>2014-05-05T13:57:51.000Z</time>
      </trkpt>
      <trkpt lat="48.70512" lon="1.74413">
        <ele>180.60000610352</ele>
        <time>2014-05-05T13:57:52.000Z</time>
      </trkpt>
      <trkpt lat="48.70511" lon="1.74427">
        <ele>180.80000305176</ele>
        <time>2014-05-05T13:57:58.000Z</time>
      </trkpt>
      <trkpt lat="48.70511" lon="1.74437">
        <ele>180.80000305176</ele>
        <time>2014-05-05T13:58:02.000Z</time>
      </trkpt>
      <trkpt lat="48.7051" lon="1.7445">
        <ele>181</ele>
        <time>2014-05-05T13:58:07.000Z</time>
      </trkpt>
      <trkpt lat="48.70511" lon="1.74462">
        <ele>181.19999694824</ele>
        <time>2014-05-05T13:58:14.000Z</time>
      </trkpt>
      <trkpt lat="48.7051" lon="1.74463">
        <ele>181.19999694824</ele>
        <time>2014-05-05T13:58:15.000Z</time>
      </trkpt>
      <trkpt lat="48.70509" lon="1.74474">
        <ele>181.19999694824</ele>
        <time>2014-05-05T13:58:20.000Z</time>
      </trkpt>
      <trkpt lat="48.70508" lon="1.74488">
        <ele>181.39999389648</ele>
        <time>2014-05-05T13:58:26.000Z</time>
      </trkpt>
      <trkpt lat="48.70506" lon="1.74495">
        <ele>181.39999389648</ele>
        <time>2014-05-05T13:58:29.000Z</time>
      </trkpt>
      <trkpt lat="48.70502" lon="1.74518">
        <ele>181.19999694824</ele>
        <time>2014-05-05T13:58:35.000Z</time>
      </trkpt>
      <trkpt lat="48.70504" lon="1.74526">
        <ele>181.19999694824</ele>
        <time>2014-05-05T13:58:40.000Z</time>
      </trkpt>
      <trkpt lat="48.70503" lon="1.74538">
        <ele>181.19999694824</ele>
        <time>2014-05-05T13:58:47.000Z</time>
      </trkpt>
      <trkpt lat="48.70504" lon="1.74542">
        <ele>181.19999694824</ele>
        <time>2014-05-05T13:58:49.000Z</time>
      </trkpt>
      <trkpt lat="48.70509" lon="1.74549">
        <ele>181.39999389648</ele>
        <time>2014-05-05T13:58:56.000Z</time>
      </trkpt>
      <trkpt lat="48.7051" lon="1.74552">
        <ele>181.39999389648</ele>
        <time>2014-05-05T13:58:58.000Z</time>
      </trkpt>
      <trkpt lat="48.70516" lon="1.74557">
        <ele>181.80000305176</ele>
        <time>2014-05-05T13:59:05.000Z</time>
      </trkpt>
      <trkpt lat="48.70522" lon="1.74556">
        <ele>182</ele>
        <time>2014-05-05T13:59:09.000Z</time>
      </trkpt>
      <trkpt lat="48.70531" lon="1.74547">
        <ele>182.19999694824</ele>
        <time>2014-05-05T13:59:16.000Z</time>
      </trkpt>
      <trkpt lat="48.70532" lon="1.74546">
        <ele>182.19999694824</ele>
        <time>2014-05-05T13:59:17.000Z</time>
      </trkpt>
      <trkpt lat="48.70537" lon="1.74543">
        <ele>182.39999389648</ele>
        <time>2014-05-05T13:59:20.000Z</time>
      </trkpt>
      <trkpt lat="48.70542" lon="1.74542">
        <ele>182.60000610352</ele>
        <time>2014-05-05T13:59:23.000Z</time>
      </trkpt>
      <trkpt lat="48.70549" lon="1.74539">
        <ele>182.60000610352</ele>
        <time>2014-05-05T13:59:27.000Z</time>
      </trkpt>
      <trkpt lat="48.70549" lon="1.74533">
        <ele>182.80000305176</ele>
        <time>2014-05-05T13:59:31.000Z</time>
      </trkpt>
      <trkpt lat="48.70559" lon="1.74529">
        <ele>183</ele>
        <time>2014-05-05T13:59:36.000Z</time>
      </trkpt>
      <trkpt lat="48.70567" lon="1.74525">
        <ele>183.19999694824</ele>
        <time>2014-05-05T13:59:40.000Z</time>
      </trkpt>
      <trkpt lat="48.70572" lon="1.74519">
        <ele>183.39999389648</ele>
        <time>2014-05-05T13:59:45.000Z</time>
      </trkpt>
      <trkpt lat="48.70582" lon="1.74513">
        <ele>184</ele>
        <time>2014-05-05T13:59:50.000Z</time>
      </trkpt>
      <trkpt lat="48.70584" lon="1.74513">
        <ele>184</ele>
        <time>2014-05-05T13:59:52.000Z</time>
      </trkpt>
      <trkpt lat="48.70597" lon="1.74506">
        <ele>184.60000610352</ele>
        <time>2014-05-05T13:59:57.000Z</time>
      </trkpt>
      <trkpt lat="48.70604" lon="1.74508">
        <ele>184.80000305176</ele>
        <time>2014-05-05T14:00:01.000Z</time>
      </trkpt>
      <trkpt lat="48.70606" lon="1.74509">
        <ele>184.60000610352</ele>
        <time>2014-05-05T14:00:03.000Z</time>
      </trkpt>
      <trkpt lat="48.70619" lon="1.74506">
        <ele>183.80000305176</ele>
        <time>2014-05-05T14:00:10.000Z</time>
      </trkpt>
      <trkpt lat="48.70621" lon="1.74506">
        <ele>183.80000305176</ele>
        <time>2014-05-05T14:00:12.000Z</time>
      </trkpt>
      <trkpt lat="48.70628" lon="1.745">
        <ele>183.39999389648</ele>
        <time>2014-05-05T14:00:17.000Z</time>
      </trkpt>
      <trkpt lat="48.70633" lon="1.74495">
        <ele>183.19999694824</ele>
        <time>2014-05-05T14:00:21.000Z</time>
      </trkpt>
      <trkpt lat="48.70646" lon="1.74492">
        <ele>182.39999389648</ele>
        <time>2014-05-05T14:00:30.000Z</time>
      </trkpt>
      <trkpt lat="48.7066" lon="1.74484">
        <ele>181.60000610352</ele>
        <time>2014-05-05T14:00:36.000Z</time>
      </trkpt>
      <trkpt lat="48.70673" lon="1.74476">
        <ele>180.60000610352</ele>
        <time>2014-05-05T14:00:40.000Z</time>
      </trkpt>
      <trkpt lat="48.70673" lon="1.74478">
        <ele>180.80000305176</ele>
        <time>2014-05-05T14:00:42.000Z</time>
      </trkpt>
      <trkpt lat="48.70676" lon="1.74476">
        <ele>180.60000610352</ele>
        <time>2014-05-05T14:00:47.000Z</time>
      </trkpt>
      <trkpt lat="48.70683" lon="1.74474">
        <ele>180.39999389648</ele>
        <time>2014-05-05T14:00:53.000Z</time>
      </trkpt>
      <trkpt lat="48.70684" lon="1.74474">
        <ele>180.19999694824</ele>
        <time>2014-05-05T14:00:54.000Z</time>
      </trkpt>
      <trkpt lat="48.70692" lon="1.7447">
        <ele>180</ele>
        <time>2014-05-05T14:01:01.000Z</time>
      </trkpt>
      <trkpt lat="48.70698" lon="1.74467">
        <ele>179.80000305176</ele>
        <time>2014-05-05T14:01:05.000Z</time>
      </trkpt>
      <trkpt lat="48.70709" lon="1.74464">
        <ele>179.39999389648</ele>
        <time>2014-05-05T14:01:13.000Z</time>
      </trkpt>
      <trkpt lat="48.70719" lon="1.74466">
        <ele>179.19999694824</ele>
        <time>2014-05-05T14:01:19.000Z</time>
      </trkpt>
      <trkpt lat="48.7072" lon="1.74465">
        <ele>179</ele>
        <time>2014-05-05T14:01:20.000Z</time>
      </trkpt>
      <trkpt lat="48.70722" lon="1.74463">
        <ele>179</ele>
        <time>2014-05-05T14:01:23.000Z</time>
      </trkpt>
      <trkpt lat="48.70723" lon="1.7446">
        <ele>179</ele>
        <time>2014-05-05T14:01:28.000Z</time>
      </trkpt>
      <trkpt lat="48.70731" lon="1.74466">
        <ele>178.60000610352</ele>
        <time>2014-05-05T14:02:23.000Z</time>
      </trkpt>
      <trkpt lat="48.7073" lon="1.74473">
        <ele>178.60000610352</ele>
        <time>2014-05-05T14:02:27.000Z</time>
      </trkpt>
      <trkpt lat="48.70729" lon="1.74473">
        <ele>178.60000610352</ele>
        <time>2014-05-05T14:02:30.000Z</time>
      </trkpt>
      <trkpt lat="48.70742" lon="1.74486">
        <ele>178</ele>
        <time>2014-05-05T14:03:30.000Z</time>
      </trkpt>
      <trkpt lat="48.70748" lon="1.74496">
        <ele>177.80000305176</ele>
        <time>2014-05-05T14:03:33.000Z</time>
      </trkpt>
      <trkpt lat="48.70771" lon="1.74524">
        <ele>177</ele>
        <time>2014-05-05T14:03:41.000Z</time>
      </trkpt>
      <trkpt lat="48.70795" lon="1.74554">
        <ele>176.80000305176</ele>
        <time>2014-05-05T14:03:49.000Z</time>
      </trkpt>
      <trkpt lat="48.70809" lon="1.74574">
        <ele>176.60000610352</ele>
        <time>2014-05-05T14:03:54.000Z</time>
      </trkpt>
      <trkpt lat="48.7083" lon="1.74602">
        <ele>176.19999694824</ele>
        <time>2014-05-05T14:04:00.000Z</time>
      </trkpt>
      <trkpt lat="48.70833" lon="1.74606">
        <ele>176.19999694824</ele>
        <time>2014-05-05T14:04:01.000Z</time>
      </trkpt>
      <trkpt lat="48.70848" lon="1.74622">
        <ele>176</ele>
        <time>2014-05-05T14:04:05.000Z</time>
      </trkpt>
      <trkpt lat="48.70861" lon="1.74641">
        <ele>176</ele>
        <time>2014-05-05T14:04:09.000Z</time>
      </trkpt>
      <trkpt lat="48.70886" lon="1.74673">
        <ele>176.39999389648</ele>
        <time>2014-05-05T14:04:16.000Z</time>
      </trkpt>
      <trkpt lat="48.70899" lon="1.7469">
        <ele>176.80000305176</ele>
        <time>2014-05-05T14:04:20.000Z</time>
      </trkpt>
      <trkpt lat="48.70917" lon="1.74716">
        <ele>177.39999389648</ele>
        <time>2014-05-05T14:04:26.000Z</time>
      </trkpt>
      <trkpt lat="48.70932" lon="1.74739">
        <ele>178.19999694824</ele>
        <time>2014-05-05T14:04:31.000Z</time>
      </trkpt>
      <trkpt lat="48.70946" lon="1.74757">
        <ele>178.19999694824</ele>
        <time>2014-05-05T14:04:35.000Z</time>
      </trkpt>
      <trkpt lat="48.70954" lon="1.74765">
        <ele>178.19999694824</ele>
        <time>2014-05-05T14:04:37.000Z</time>
      </trkpt>
      <trkpt lat="48.70966" lon="1.74782">
        <ele>178.39999389648</ele>
        <time>2014-05-05T14:04:41.000Z</time>
      </trkpt>
      <trkpt lat="48.70994" lon="1.74817">
        <ele>178.60000610352</ele>
        <time>2014-05-05T14:04:48.000Z</time>
      </trkpt>
      <trkpt lat="48.71004" lon="1.74831">
        <ele>178.80000305176</ele>
        <time>2014-05-05T14:04:51.000Z</time>
      </trkpt>
      <trkpt lat="48.7101" lon="1.74848">
        <ele>178.80000305176</ele>
        <time>2014-05-05T14:04:55.000Z</time>
      </trkpt>
      <trkpt lat="48.71003" lon="1.74865">
        <ele>178.80000305176</ele>
        <time>2014-05-05T14:04:59.000Z</time>
      </trkpt>
      <trkpt lat="48.71" lon="1.74869">
        <ele>178.80000305176</ele>
        <time>2014-05-05T14:05:00.000Z</time>
      </trkpt>
      <trkpt lat="48.70991" lon="1.74881">
        <ele>178.39999389648</ele>
        <time>2014-05-05T14:05:06.000Z</time>
      </trkpt>
      <trkpt lat="48.70982" lon="1.74888">
        <ele>177.80000305176</ele>
        <time>2014-05-05T14:05:13.000Z</time>
      </trkpt>
      <trkpt lat="48.70976" lon="1.74896">
        <ele>177.19999694824</ele>
        <time>2014-05-05T14:05:17.000Z</time>
      </trkpt>
      <trkpt lat="48.70968" lon="1.74907">
        <ele>176.39999389648</ele>
        <time>2014-05-05T14:05:24.000Z</time>
      </trkpt>
      <trkpt lat="48.70961" lon="1.74915">
        <ele>176</ele>
        <time>2014-05-05T14:05:30.000Z</time>
      </trkpt>
      <trkpt lat="48.70956" lon="1.74921">
        <ele>175.80000305176</ele>
        <time>2014-05-05T14:05:34.000Z</time>
      </trkpt>
      <trkpt lat="48.70947" lon="1.74932">
        <ele>175.39999389648</ele>
        <time>2014-05-05T14:05:40.000Z</time>
      </trkpt>
      <trkpt lat="48.7094" lon="1.74942">
        <ele>175.19999694824</ele>
        <time>2014-05-05T14:05:46.000Z</time>
      </trkpt>
      <trkpt lat="48.70934" lon="1.74951">
        <ele>175</ele>
        <time>2014-05-05T14:05:51.000Z</time>
      </trkpt>
      <trkpt lat="48.70934" lon="1.74952">
        <ele>175</ele>
        <time>2014-05-05T14:05:52.000Z</time>
      </trkpt>
      <trkpt lat="48.70931" lon="1.74959">
        <ele>175</ele>
        <time>2014-05-05T14:05:56.000Z</time>
      </trkpt>
      <trkpt lat="48.70933" lon="1.74959">
        <ele>175</ele>
        <time>2014-05-05T14:06:03.000Z</time>
      </trkpt>
      <trkpt lat="48.70933" lon="1.74958">
        <ele>175</ele>
        <time>2014-05-05T14:06:05.000Z</time>
      </trkpt>
      <trkpt lat="48.70927" lon="1.74975">
        <ele>174.80000305176</ele>
        <time>2014-05-05T14:07:25.000Z</time>
      </trkpt>
      <trkpt lat="48.70924" lon="1.74979">
        <ele>174.80000305176</ele>
        <time>2014-05-05T14:07:27.000Z</time>
      </trkpt>
      <trkpt lat="48.7092" lon="1.74986">
        <ele>175</ele>
        <time>2014-05-05T14:07:32.000Z</time>
      </trkpt>
      <trkpt lat="48.70913" lon="1.74997">
        <ele>174.80000305176</ele>
        <time>2014-05-05T14:07:40.000Z</time>
      </trkpt>
      <trkpt lat="48.7091" lon="1.75005">
        <ele>174.80000305176</ele>
        <time>2014-05-05T14:07:45.000Z</time>
      </trkpt>
      <trkpt lat="48.709" lon="1.75024">
        <ele>174.60000610352</ele>
        <time>2014-05-05T14:07:54.000Z</time>
      </trkpt>
      <trkpt lat="48.70895" lon="1.75035">
        <ele>174.39999389648</ele>
        <time>2014-05-05T14:08:00.000Z</time>
      </trkpt>
      <trkpt lat="48.70888" lon="1.75049">
        <ele>174.19999694824</ele>
        <time>2014-05-05T14:08:08.000Z</time>
      </trkpt>
      <trkpt lat="48.70881" lon="1.75061">
        <ele>174.19999694824</ele>
        <time>2014-05-05T14:08:16.000Z</time>
      </trkpt>
      <trkpt lat="48.70876" lon="1.75074">
        <ele>174</ele>
        <time>2014-05-05T14:08:23.000Z</time>
      </trkpt>
      <trkpt lat="48.70874" lon="1.75079">
        <ele>174</ele>
        <time>2014-05-05T14:08:28.000Z</time>
      </trkpt>
      <trkpt lat="48.7087" lon="1.75089">
        <ele>174.19999694824</ele>
        <time>2014-05-05T14:08:36.000Z</time>
      </trkpt>
      <trkpt lat="48.70867" lon="1.75096">
        <ele>174</ele>
        <time>2014-05-05T14:08:46.000Z</time>
      </trkpt>
      <trkpt lat="48.70862" lon="1.75109">
        <ele>173.80000305176</ele>
        <time>2014-05-05T14:08:53.000Z</time>
      </trkpt>
      <trkpt lat="48.70857" lon="1.7512">
        <ele>173.39999389648</ele>
        <time>2014-05-05T14:08:59.000Z</time>
      </trkpt>
      <trkpt lat="48.70851" lon="1.7513">
        <ele>173.39999389648</ele>
        <time>2014-05-05T14:09:06.000Z</time>
      </trkpt>
      <trkpt lat="48.70845" lon="1.75142">
        <ele>173.19999694824</ele>
        <time>2014-05-05T14:09:15.000Z</time>
      </trkpt>
      <trkpt lat="48.70844" lon="1.75144">
        <ele>173.19999694824</ele>
        <time>2014-05-05T14:09:17.000Z</time>
      </trkpt>
      <trkpt lat="48.7084" lon="1.75154">
        <ele>173</ele>
        <time>2014-05-05T14:09:22.000Z</time>
      </trkpt>
      <trkpt lat="48.70839" lon="1.75158">
        <ele>173</ele>
        <time>2014-05-05T14:09:27.000Z</time>
      </trkpt>
      <trkpt lat="48.70839" lon="1.75158">
        <ele>173</ele>
        <time>2014-05-05T14:09:28.000Z</time>
      </trkpt>
      <trkpt lat="48.70826" lon="1.75187">
        <ele>173.39999389648</ele>
        <time>2014-05-05T14:12:01.000Z</time>
      </trkpt>
      <trkpt lat="48.70825" lon="1.75189">
        <ele>173.39999389648</ele>
        <time>2014-05-05T14:12:02.000Z</time>
      </trkpt>
      <trkpt lat="48.70823" lon="1.75191">
        <ele>173.39999389648</ele>
        <time>2014-05-05T14:12:05.000Z</time>
      </trkpt>
      <trkpt lat="48.70824" lon="1.7519">
        <ele>173.39999389648</ele>
        <time>2014-05-05T14:12:51.000Z</time>
      </trkpt>
      <trkpt lat="48.70819" lon="1.75204">
        <ele>173.60000610352</ele>
        <time>2014-05-05T14:12:57.000Z</time>
      </trkpt>
      <trkpt lat="48.70815" lon="1.75214">
        <ele>173.60000610352</ele>
        <time>2014-05-05T14:13:02.000Z</time>
      </trkpt>
      <trkpt lat="48.7081" lon="1.75226">
        <ele>173.39999389648</ele>
        <time>2014-05-05T14:13:08.000Z</time>
      </trkpt>
      <trkpt lat="48.70808" lon="1.75231">
        <ele>173.39999389648</ele>
        <time>2014-05-05T14:13:11.000Z</time>
      </trkpt>
      <trkpt lat="48.70805" lon="1.75241">
        <ele>173.39999389648</ele>
        <time>2014-05-05T14:13:17.000Z</time>
      </trkpt>
      <trkpt lat="48.70801" lon="1.75247">
        <ele>173.39999389648</ele>
        <time>2014-05-05T14:13:21.000Z</time>
      </trkpt>
      <trkpt lat="48.70798" lon="1.75256">
        <ele>173.39999389648</ele>
        <time>2014-05-05T14:13:26.000Z</time>
      </trkpt>
      <trkpt lat="48.70794" lon="1.75268">
        <ele>173.19999694824</ele>
        <time>2014-05-05T14:13:34.000Z</time>
      </trkpt>
      <trkpt lat="48.70791" lon="1.75272">
        <ele>173</ele>
        <time>2014-05-05T14:13:37.000Z</time>
      </trkpt>
      <trkpt lat="48.7079" lon="1.75279">
        <ele>173</ele>
        <time>2014-05-05T14:13:41.000Z</time>
      </trkpt>
      <trkpt lat="48.70785" lon="1.75292">
        <ele>172.80000305176</ele>
        <time>2014-05-05T14:13:48.000Z</time>
      </trkpt>
      <trkpt lat="48.70782" lon="1.75296">
        <ele>172.60000610352</ele>
        <time>2014-05-05T14:13:51.000Z</time>
      </trkpt>
      <trkpt lat="48.70777" lon="1.75312">
        <ele>172.19999694824</ele>
        <time>2014-05-05T14:14:00.000Z</time>
      </trkpt>
      <trkpt lat="48.7077" lon="1.75325">
        <ele>172</ele>
        <time>2014-05-05T14:14:08.000Z</time>
      </trkpt>
      <trkpt lat="48.70767" lon="1.75334">
        <ele>172</ele>
        <time>2014-05-05T14:14:13.000Z</time>
      </trkpt>
      <trkpt lat="48.70765" lon="1.75341">
        <ele>172</ele>
        <time>2014-05-05T14:14:17.000Z</time>
      </trkpt>
      <trkpt lat="48.7076" lon="1.75354">
        <ele>171.80000305176</ele>
        <time>2014-05-05T14:14:24.000Z</time>
      </trkpt>
      <trkpt lat="48.70759" lon="1.75355">
        <ele>171.80000305176</ele>
        <time>2014-05-05T14:14:25.000Z</time>
      </trkpt>
      <trkpt lat="48.70755" lon="1.75365">
        <ele>171.80000305176</ele>
        <time>2014-05-05T14:14:32.000Z</time>
      </trkpt>
      <trkpt lat="48.7075" lon="1.75376">
        <ele>171.80000305176</ele>
        <time>2014-05-05T14:14:37.000Z</time>
      </trkpt>
      <trkpt lat="48.70746" lon="1.75388">
        <ele>171.80000305176</ele>
        <time>2014-05-05T14:14:44.000Z</time>
      </trkpt>
      <trkpt lat="48.70742" lon="1.75398">
        <ele>171.60000610352</ele>
        <time>2014-05-05T14:14:50.000Z</time>
      </trkpt>
      <trkpt lat="48.70736" lon="1.75412">
        <ele>171.60000610352</ele>
        <time>2014-05-05T14:14:58.000Z</time>
      </trkpt>
      <trkpt lat="48.70731" lon="1.75421">
        <ele>171.39999389648</ele>
        <time>2014-05-05T14:15:04.000Z</time>
      </trkpt>
      <trkpt lat="48.70727" lon="1.7543">
        <ele>171.19999694824</ele>
        <time>2014-05-05T14:15:11.000Z</time>
      </trkpt>
      <trkpt lat="48.70725" lon="1.75432">
        <ele>171.19999694824</ele>
        <time>2014-05-05T14:15:13.000Z</time>
      </trkpt>
      <trkpt lat="48.70721" lon="1.7544">
        <ele>171</ele>
        <time>2014-05-05T14:15:21.000Z</time>
      </trkpt>
      <trkpt lat="48.70719" lon="1.75446">
        <ele>171.19999694824</ele>
        <time>2014-05-05T14:15:25.000Z</time>
      </trkpt>
      <trkpt lat="48.70713" lon="1.75458">
        <ele>171.60000610352</ele>
        <time>2014-05-05T14:15:33.000Z</time>
      </trkpt>
      <trkpt lat="48.70707" lon="1.75472">
        <ele>172.19999694824</ele>
        <time>2014-05-05T14:15:43.000Z</time>
      </trkpt>
      <trkpt lat="48.70704" lon="1.7548">
        <ele>172.39999389648</ele>
        <time>2014-05-05T14:15:49.000Z</time>
      </trkpt>
      <trkpt lat="48.707" lon="1.75483">
        <ele>172.60000610352</ele>
        <time>2014-05-05T14:15:54.000Z</time>
      </trkpt>
      <trkpt lat="48.70699" lon="1.75483">
        <ele>172.60000610352</ele>
        <time>2014-05-05T14:15:57.000Z</time>
      </trkpt>
    </trkseg>
  </trk>
</gpx>